[[{"header":{"parameterUnit":"m.s-1","parameterCategory":1,"la1":30.6,"la2":28.766,"lo1":-90.7593,"lo2":-88.6598,"dy":0.0162,"dx":0.0183,"nx":116,"ny":114,"refTime":"2023-09-11T06:00:00:Z","depth":0,"parameterNumber":2,"parameterNumberName":"U-component_of_WINDS"},"data":[0.0,0.0,0.0,0.0,0.0,0.0,0.0,0.0,0.0,0.0,0.0,0.0,0.0,0.0,0.0,0.0,0.0,0.0,0.0,0.0,0.0,0.0,0.0,0.0,0.0,0.0,0.0,0.0,0.0,0.0,0.0,0.0,0.0,0.0,0.0,0.0,0.0,0.0,0.0,0.0,0.0,0.0,0.0,0.0,0.0,0.0,0.0,0.0,0.0,0.0,0.0,0.0,0.0,0.0,0.0,0.0,0.0,0.0,0.0,0.0,0.0,0.0,0.0,0.0,0.0,0.0,0.0,0.0,0.0,0.0,0.0,0.0,0.0,0.0,0.0,0.0,0.0,0.0,0.0,0.0,0.0,0.0,0.0,0.0,0.0,0.0,0.0,0.0,0.0,0.0,0.0,0.0,0.0,0.0,0.0,0.0,0.0,0.0,0.0,0.0,0.0,0.0,0.0,0.0,0.0,0.0,0.0,0.0,0.0,0.0,0.0,0.0,0.0,0.0,0.0,0.0,0.0,0.0,0.0,0.0,0.0,0.0,0.0,0.0,0.0,0.0,0.0,0.0,0.0,0.0,0.0,0.0,0.0,0.0,0.0,0.0,0.0,0.0,0.0,0.0,0.0,0.0,0.0,0.0,0.0,0.0,0.0,0.0,0.0,0.0,0.0,0.0,0.0,0.0,0.0,0.0,0.0,0.0,0.0,0.0,0.0,0.0,0.0,0.0,0.0,0.0,0.0,0.0,0.0,0.0,0.0,0.0,0.0,0.0,0.0,0.0,0.0,0.0,0.0,0.0,0.0,0.0,0.0,0.0,0.0,0.0,0.0,0.0,0.0,0.0,0.0,0.0,0.0,0.0,0.0,0.0,0.0,0.0,0.0,0.0,0.0,0.0,0.0,0.0,0.0,0.0,0.0,0.0,0.0,0.0,0.0,0.0,0.0,0.0,0.0,0.0,0.0,0.0,0.0,0.0,0.0,0.0,0.0,0.0,0.0,0.0,0.0,0.0,0.0,0.0,0.0,0.0,0.0,0.0,0.0,0.0,0.0,0.0,0.0,0.0,0.0,0.0,0.0,0.0,0.0,0.0,0.0,0.0,0.0,0.0,0.0,0.0,0.0,0.0,0.0,0.0,0.0,0.0,0.0,0.0,0.0,0.0,0.0,0.0,0.0,0.0,0.0,0.0,0.0,0.0,0.0,0.0,0.0,0.0,0.0,0.0,0.0,0.0,0.0,0.0,0.0,0.0,0.0,0.0,0.0,0.0,0.0,0.0,0.0,0.0,0.0,0.0,0.0,0.0,0.0,0.0,0.0,0.0,0.0,0.0,0.0,0.0,0.0,0.0,0.0,0.0,0.0,0.0,0.0,0.0,0.0,0.0,0.0,0.0,0.0,0.0,0.0,0.0,0.0,0.0,0.0,0.0,0.0,0.0,0.0,0.0,0.0,0.0,0.0,0.0,0.0,0.0,0.0,0.0,0.0,0.0,0.0,0.0,0.0,0.0,0.0,0.0,0.0,0.0,0.0,0.0,0.0,0.0,0.0,0.0,0.0,0.0,0.0,0.0,0.0,0.0,0.0,0.0,0.0,0.0,0.0,0.0,0.0,0.0,0.0,0.0,0.0,0.0,0.0,0.0,0.0,0.0,0.0,0.0,0.0,0.0,0.0,0.0,0.0,0.0,0.0,0.0,0.0,0.0,0.0,0.0,0.0,0.0,0.0,0.0,0.0,0.0,0.0,0.0,0.0,0.0,0.0,0.0,0.0,0.0,0.0,0.0,0.0,0.0,0.0,0.0,0.0,0.0,0.0,0.0,0.0,0.0,0.0,0.0,0.0,0.0,0.0,0.0,0.0,0.0,0.0,0.0,0.0,0.0,0.0,0.0,0.0,0.0,0.0,0.0,0.0,0.0,0.0,0.0,0.0,0.0,0.0,0.0,0.0,0.0,0.0,0.0,0.0,0.0,0.0,0.0,0.0,0.0,0.0,0.0,0.0,0.0,0.0,0.0,0.0,0.0,0.0,0.0,0.0,0.0,0.0,0.0,0.0,0.0,0.0,0.0,0.0,0.0,0.0,0.0,0.0,0.0,0.0,0.0,0.0,0.0,0.0,0.0,0.0,0.0,0.0,0.0,0.0,0.0,0.0,0.0,0.0,0.0,0.0,0.0,0.0,0.0,0.0,0.0,0.0,0.0,0.0,0.0,0.0,0.0,0.0,0.0,0.0,0.0,0.0,0.0,0.0,0.0,0.0,0.0,0.0,0.0,0.0,0.0,0.0,0.0,0.0,0.0,0.0,0.0,0.0,0.0,0.0,0.0,0.0,0.0,0.0,0.0,0.0,0.0,0.0,0.0,0.0,0.0,0.0,0.0,0.0,0.0,0.0,0.0,0.0,0.0,0.0,0.0,0.0,0.0,0.0,0.0,0.0,0.0,0.0,0.0,0.0,0.0,0.0,0.0,0.0,0.0,0.0,0.0,0.0,0.0,0.0,0.0,0.0,0.0,0.0,0.0,0.0,0.0,0.0,0.0,0.0,0.0,0.0,0.0,0.0,0.0,0.0,0.0,0.0,0.0,0.0,0.0,0.0,0.0,0.0,0.0,0.0,0.0,0.0,0.0,0.0,0.0,0.0,0.0,0.0,0.0,0.0,0.0,0.0,0.0,0.0,0.0,0.0,0.0,0.0,0.0,0.0,0.0,0.0,0.0,0.0,0.0,0.0,0.0,0.0,0.0,0.0,0.0,0.0,0.0,0.0,0.0,0.0,0.0,0.0,0.0,0.0,0.0,0.0,0.0,0.0,0.0,0.0,0.0,0.0,0.0,0.0,0.0,0.0,0.0,0.0,0.0,0.0,0.0,0.0,0.0,0.0,0.0,0.0,0.0,0.0,0.0,0.0,0.0,0.0,0.0,0.0,0.0,0.0,0.0,0.0,0.0,0.0,0.0,0.0,0.0,0.0,0.0,0.0,0.0,0.0,0.0,0.0,0.0,0.0,0.0,0.0,0.0,0.0,0.0,0.0,0.0,0.0,0.0,0.0,0.0,0.0,0.0,0.0,0.0,0.0,0.0,0.0,0.0,0.0,0.0,0.0,0.0,0.0,0.0,0.0,0.0,0.0,0.0,0.0,0.0,0.0,0.0,0.0,0.0,0.0,0.0,0.0,0.0,0.0,0.0,0.0,0.0,0.0,0.0,0.0,0.0,0.0,0.0,0.0,0.0,0.0,0.0,0.0,0.0,0.0,0.0,0.0,0.0,0.0,0.0,0.0,0.0,0.0,0.0,0.0,0.0,0.0,0.0,0.0,0.0,0.0,0.0,0.0,0.0,0.0,0.0,0.0,0.0,0.0,0.0,0.0,0.0,0.0,0.0,0.0,0.0,0.0,0.0,0.0,0.0,0.0,0.0,0.0,0.0,0.0,0.0,0.0,0.0,0.0,0.0,0.0,0.0,0.0,0.0,0.0,0.0,0.0,0.0,0.0,0.0,0.0,0.0,0.0,0.0,0.0,0.0,0.0,0.0,0.0,0.0,0.0,0.0,0.0,0.0,0.0,0.0,0.0,0.0,0.0,0.0,0.0,0.0,0.0,0.0,0.0,0.0,0.0,0.0,0.0,0.0,0.0,0.0,0.0,0.0,0.0,0.0,0.0,0.0,0.0,0.0,0.0,0.0,0.0,0.0,0.0,0.0,0.0,0.0,0.0,0.0,0.0,0.0,0.0,0.0,0.0,0.0,0.0,0.0,0.0,0.0,0.0,0.0,0.0,0.0,0.0,0.0,0.0,0.0,0.0,0.0,0.0,0.0,0.0,0.0,0.0,0.0,0.0,0.0,0.0,0.0,0.0,0.0,0.0,0.0,0.0,0.0,0.0,0.0,0.0,0.0,0.0,0.0,0.0,0.0,0.0,0.0,0.0,0.0,0.0,0.0,0.0,0.0,0.0,0.0,0.0,0.0,0.0,0.0,0.0,0.0,0.0,0.0,0.0,0.0,0.0,0.0,0.0,0.0,0.0,0.0,0.0,0.0,0.0,0.0,0.0,0.0,0.0,0.0,0.0,0.0,0.0,0.0,0.0,0.0,0.0,0.0,0.0,0.0,0.0,0.0,0.0,0.0,0.0,0.0,0.0,0.0,0.0,0.0,0.0,0.0,0.0,0.0,0.0,0.0,0.0,0.0,0.0,0.0,0.0,0.0,0.0,0.0,0.0,0.0,0.0,0.0,0.0,0.0,0.0,0.0,0.0,0.0,0.0,0.0,0.0,0.0,0.0,0.0,0.0,0.0,0.0,0.0,0.0,0.0,0.0,0.0,0.0,0.0,0.0,0.0,0.0,0.0,0.0,0.0,0.0,0.0,0.0,0.0,0.0,0.0,0.0,0.0,0.0,0.0,0.0,0.0,0.0,0.0,0.0,0.0,0.0,0.0,0.0,0.0,0.0,0.0,0.0,0.0,0.0,0.0,0.0,0.0,0.0,0.0,0.0,0.0,0.0,0.0,0.0,0.0,0.0,0.0,0.0,0.0,0.0,0.0,0.0,0.0,0.0,0.0,0.0,0.0,0.0,0.0,0.0,0.0,0.0,0.0,0.0,0.0,0.0,0.0,0.0,0.0,0.0,0.0,0.0,0.0,0.0,0.0,0.0,0.0,0.0,0.0,0.0,0.0,0.0,0.0,0.0,0.0,0.0,0.0,0.0,0.0,0.0,0.0,0.0,0.0,0.0,0.0,0.0,0.0,0.0,0.0,0.0,0.0,0.0,0.0,0.0,0.0,0.0,0.0,0.0,0.0,0.0,0.0,0.0,0.0,0.0,0.0,0.0,0.0,0.0,0.0,0.0,0.0,0.0,0.0,0.0,0.0,0.0,0.0,0.0,0.0,0.0,0.0,0.0,0.0,0.0,0.0,0.0,0.0,0.0,0.0,0.0,0.0,0.0,0.0,0.0,0.0,0.0,0.0,0.0,0.0,0.0,0.0,0.0,0.0,0.0,0.0,0.0,0.0,0.0,0.0,0.0,0.0,0.0,0.0,0.0,0.0,0.0,0.0,0.0,0.0,0.0,0.0,0.0,0.0,0.0,0.0,0.0,0.0,0.0,0.0,0.0,0.0,0.0,0.0,0.0,0.0,0.0,0.0,0.0,0.0,0.0,0.0,0.0,0.0,0.0,0.0,0.0,0.0,0.0,0.0,0.0,0.0,0.0,0.0,0.0,0.0,0.0,0.0,0.0,0.0,0.0,0.0,0.0,0.0,0.0,0.0,0.0,0.0,0.0,0.0,0.0,0.0,0.0,0.0,0.0,0.0,0.0,0.0,0.0,0.0,0.0,0.0,0.0,0.0,0.0,0.0,0.0,0.0,0.0,0.0,0.0,0.0,0.0,0.0,0.0,0.0,0.0,0.0,0.0,0.0,0.0,0.0,0.0,0.0,0.0,0.0,0.0,0.0,0.0,0.0,0.0,0.0,0.0,0.0,0.0,0.0,0.0,0.0,0.0,0.0,0.0,0.0,0.0,0.0,0.0,0.0,0.0,0.0,0.0,0.0,0.0,0.0,0.0,0.0,0.0,0.0,0.0,0.0,0.0,0.0,0.0,0.0,0.0,0.0,0.0,0.0,0.0,0.0,0.0,0.0,0.0,0.0,0.0,0.0,0.0,0.0,0.0,0.0,0.0,0.0,0.0,0.0,0.0,0.0,0.0,0.0,0.0,0.0,0.0,0.0,0.0,0.0,0.0,0.0,0.0,0.0,0.0,0.0,0.0,0.0,0.0,0.0,0.0,0.0,0.0,0.0,0.0,0.0,0.0,0.0,0.0,0.0,0.0,0.0,0.0,0.0,0.0,0.0,0.0,0.0,0.0,0.0,0.0,0.0,0.0,0.0,0.0,0.0,0.0,0.0,0.0,0.0,0.0,0.0,0.0,0.0,0.0,0.0,0.0,0.0,0.0,0.0,0.0,0.0,0.0,0.0,0.0,0.0,0.0,0.0,0.0,0.0,0.0,0.0,0.0,0.0,0.0,0.0,0.0,0.0,0.0,0.0,0.0,0.0,0.0,0.0,0.0,0.0,0.0,0.0,0.0,0.0,0.0,0.0,0.0,0.0,0.0,0.0,2.7326,0.0,0.0,0.0,0.0,0.0,0.0,0.0,0.0,0.0,0.0,0.0,0.0,0.0,0.0,0.0,0.0,0.0,0.0,0.0,0.0,0.0,0.0,0.0,0.0,0.0,0.0,0.0,0.0,0.0,0.0,0.0,0.0,0.0,0.0,0.0,0.0,0.0,0.0,0.0,0.0,0.0,0.0,0.0,0.0,0.0,0.0,0.0,0.0,0.0,0.0,0.0,0.0,0.0,0.0,0.0,0.0,0.0,0.0,0.0,0.0,0.0,0.0,0.0,0.0,0.0,0.0,0.0,0.0,0.0,0.0,0.0,0.0,0.0,0.0,0.0,0.0,0.0,0.0,0.0,0.0,0.0,0.0,0.0,0.0,0.0,0.0,0.0,0.0,0.0,0.0,0.0,0.0,0.0,0.0,0.0,0.0,0.0,0.0,0.0,0.0,0.0,0.0,0.0,0.0,0.0,0.0,0.0,0.0,0.0,0.0,0.0,0.0,0.0,0.0,0.0,0.0,2.7808,0.0,0.0,0.0,0.0,0.0,0.0,0.0,0.0,0.0,0.0,0.0,0.0,0.0,0.0,0.0,0.0,0.0,0.0,0.0,0.0,0.0,0.0,0.0,0.0,0.0,0.0,0.0,0.0,0.0,0.0,0.0,0.0,0.0,0.0,0.0,0.0,0.0,0.0,0.0,0.0,0.0,0.0,0.0,0.0,0.0,0.0,0.0,0.0,0.0,0.0,0.0,0.0,0.0,0.0,0.0,0.0,0.0,0.0,0.0,0.0,0.0,0.0,0.0,0.0,0.0,0.0,0.0,0.0,0.0,0.0,0.0,0.0,0.0,0.0,0.0,0.0,0.0,0.0,0.0,0.0,0.0,0.0,0.0,0.0,0.0,0.0,0.0,0.0,0.0,0.0,0.0,0.0,0.0,0.0,0.0,0.0,0.0,0.0,0.0,0.0,0.0,0.0,0.0,0.0,0.0,0.0,0.0,0.0,2.9128,2.9264,2.9399,2.9517,2.9653,2.9771,2.9771,2.9484,2.8993,2.8993,0.0,0.0,0.0,0.0,0.0,0.0,0.0,0.0,0.0,0.0,0.0,0.0,0.0,0.0,0.0,0.0,0.0,0.0,0.0,0.0,0.0,0.0,0.0,0.0,0.0,0.0,0.0,0.0,0.0,0.0,0.0,0.0,0.0,0.0,0.0,0.0,0.0,0.0,2.0578,2.1214,2.1839,2.2419,2.2098,0.0,0.0,0.0,0.0,0.0,0.0,0.0,0.0,0.0,0.0,0.0,0.0,0.0,0.0,0.0,0.0,0.0,0.0,0.0,0.0,0.0,0.0,0.0,0.0,0.0,0.0,0.0,0.0,0.0,0.0,0.0,0.0,0.0,0.0,0.0,0.0,0.0,0.0,0.0,0.0,0.0,0.0,0.0,2.6766,2.6708,0.0,0.0,0.0,0.0,0.0,0.0,0.0,0.0,0.0,0.0,0.0,0.0,0.0,2.8831,2.8831,2.8942,2.8993,2.901,2.9651,3.0294,3.0929,3.1565,3.2215,3.2831,3.2831,0.0,2.8993,2.8993,0.0,0.0,0.0,0.0,0.0,0.0,0.0,0.0,0.0,0.0,0.0,0.0,0.0,0.0,0.0,0.0,0.0,0.0,0.0,0.0,0.0,0.0,0.0,0.0,0.0,0.0,0.0,0.0,0.0,0.0,0.0,0.0,0.0,0.0,0.0,0.0,2.0249,2.0617,2.1276,2.156,2.2064,2.2694,2.2496,2.2738,2.3369,2.3659,0.0,0.0,0.0,0.0,0.0,0.0,0.0,0.0,0.0,0.0,0.0,0.0,0.0,0.0,0.0,0.0,0.0,0.0,0.0,0.0,0.0,0.0,0.0,0.0,0.0,0.0,0.0,0.0,0.0,0.0,0.0,0.0,0.0,0.0,0.0,0.0,0.0,0.0,0.0,2.67,2.67,2.67,2.67,2.686,0.0,0.0,0.0,0.0,0.0,0.0,0.0,0.0,0.0,2.8993,2.9407,2.983,3.0236,3.0651,3.1048,3.1488,3.1799,3.2111,3.2459,3.2763,3.3085,3.3396,3.3396,3.2679,3.1437,3.1041,3.0618,3.0202,0.0,0.0,0.0,0.0,2.8993,2.8993,0.0,0.0,0.0,0.0,0.0,0.0,0.0,0.0,0.0,0.0,0.0,0.0,0.0,0.0,0.0,1.8487,0.0,0.0,0.0,0.0,0.0,0.0,0.0,0.0,0.0,0.0,0.0,2.0703,2.0877,2.1306,2.1959,2.2113,2.2543,2.3186,2.3366,2.3501,2.3627,2.4032,2.4209,0.0,0.0,0.0,0.0,0.0,0.0,0.0,0.0,0.0,0.0,0.0,0.0,0.0,0.0,0.0,0.0,0.0,0.0,0.0,0.0,0.0,0.0,0.0,0.0,0.0,0.0,0.0,0.0,0.0,0.0,0.0,0.0,0.0,0.0,0.0,0.0,0.0,0.0,2.67,2.6767,2.6962,2.6979,2.7283,0.0,0.0,0.0,0.0,0.0,0.0,2.9271,2.9457,2.9653,2.9839,3.0565,3.1207,3.1765,3.2317,3.296,3.3677,3.3677,3.3897,3.4269,3.4269,3.437,3.4545,3.4545,3.4444,3.4184,3.3044,3.2266,3.1715,3.1157,3.0944,3.0876,3.0337,3.0134,3.0134,0.0,0.0,0.0,0.0,0.0,0.0,0.0,0.0,0.0,0.0,0.0,0.0,0.0,0.0,1.7384,1.7384,1.8341,1.894,0.0,0.0,0.0,0.0,0.0,0.0,0.0,0.0,0.0,2.0703,2.1335,2.1989,2.2658,2.3246,2.3853,2.453,2.5169,2.475,2.3595,2.3627,2.3638,2.3638,0.0,0.0,0.0,0.0,0.0,0.0,0.0,0.0,0.0,0.0,0.0,0.0,0.0,0.0,0.0,0.0,0.0,0.0,0.0,0.0,0.0,0.0,0.0,0.0,0.0,0.0,0.0,0.0,0.0,0.0,0.0,0.0,0.0,0.0,0.0,0.0,0.0,0.0,0.0,2.7655,2.7739,0.0,0.0,0.0,0.0,2.8993,2.8993,2.9314,3.0014,3.0717,3.1403,3.2107,3.2848,3.3243,3.3288,3.3339,3.3711,3.4449,3.4449,3.521,3.6626,3.6626,3.7021,3.7674,3.7674,3.728,3.6474,3.4252,3.3311,3.3288,3.3243,3.3227,3.3227,3.3193,3.3176,3.3176,0.0,0.0,0.0,0.0,0.0,0.0,0.0,0.0,0.0,0.0,0.0,0.0,0.0,1.7188,1.7302,1.7302,1.8283,1.8902,1.8902,0.0,0.0,0.0,0.0,0.0,0.0,0.0,2.1116,2.1989,2.2622,2.3266,2.3943,2.4571,2.5005,2.5259,2.5483,2.5319,2.4866,2.4436,2.4231,2.4201,2.3763,2.3595,0.0,0.0,0.0,0.0,0.0,0.0,0.0,0.0,0.0,0.0,0.0,0.0,0.0,0.0,0.0,0.0,0.0,0.0,0.0,0.0,0.0,0.0,0.0,0.0,0.0,0.0,0.0,0.0,0.0,0.0,0.0,0.0,0.0,0.0,0.0,0.0,0.0,2.8484,2.8569,0.0,2.9634,2.9702,3.0091,3.1058,3.1125,3.1454,3.2178,3.2466,3.2949,3.3687,3.3975,3.4573,3.5582,3.5582,3.596,3.6688,3.6688,3.6975,3.7499,3.7499,3.7652,3.7893,3.7893,3.7741,3.7449,3.6637,3.5712,3.4833,3.4833,3.4529,3.4117,3.4117,3.3812,3.3396,0.0,0.0,0.0,0.0,0.0,0.0,0.0,0.0,0.0,0.0,0.0,1.6637,1.6993,1.7034,1.7034,1.7034,1.7857,1.8438,1.8622,0.0,0.0,0.0,0.0,0.0,0.0,2.1131,2.1904,2.2992,2.3625,2.4287,2.4948,2.5618,2.5944,2.5959,2.6168,2.6273,2.6228,2.5558,2.5143,2.4874,2.4212,2.3928,2.392,0.0,0.0,0.0,0.0,0.0,0.0,0.0,0.0,0.0,0.0,0.0,0.0,0.0,0.0,0.0,0.0,0.0,0.0,0.0,0.0,0.0,0.0,0.0,0.0,0.0,0.0,0.0,0.0,0.0,0.0,0.0,0.0,0.0,0.0,0.0,2.8492,2.9288,2.9593,3.0033,3.0768,3.1062,3.163,3.2605,3.2892,3.3264,3.3744,3.4252,3.477,3.5261,3.5532,3.6141,3.7156,3.7173,3.7545,3.8278,3.8278,3.8396,3.8633,3.8633,3.8633,3.8633,3.8633,3.8633,3.8633,3.8633,3.8041,3.7065,3.6575,3.6084,3.5639,3.5639,3.5334,3.4917,0.0,0.0,0.0,0.0,0.0,0.0,0.0,0.0,0.0,0.0,1.65,1.65,1.65,1.65,1.65,1.65,1.6993,1.7524,1.8066,1.8631,0.0,0.0,0.0,0.0,2.0763,2.2049,2.3022,2.3625,2.4321,2.4993,2.5648,2.633,2.6629,2.6659,2.7315,2.76,2.7555,2.6914,2.6258,2.5603,2.4903,2.4634,2.4616,0.0,0.0,0.0,0.0,0.0,0.0,0.0,0.0,0.0,0.0,0.0,0.0,0.0,0.0,0.0,0.0,0.0,0.0,0.0,0.0,0.0,0.0,0.0,0.0,0.0,0.0,0.0,0.0,0.0,0.0,0.0,0.0,0.0,2.9044,2.9044,2.9339,3.0081,3.0818,3.1556,3.2293,3.3,3.3446,3.3497,3.4167,3.4584,3.4601,3.6022,3.6834,3.688,3.755,3.7956,3.7961,3.7961,3.8328,3.9022,3.9022,3.9406,4.0096,4.0096,4.0113,4.013,4.013,4.0146,4.018,4.0146,4.013,3.9994,3.8531,3.7944,3.7927,3.7927,3.791,3.7893,0.0,0.0,0.0,0.0,0.0,0.0,0.0,0.0,0.0,0.0,1.65,1.65,1.65,1.65,1.65,1.65,1.6993,1.7524,1.8066,0.0,0.0,0.0,0.0,0.0,2.2139,2.2947,2.367,2.4321,2.5483,2.6138,2.6333,2.7003,2.733,2.733,2.751,2.76,2.7585,2.7405,2.7225,2.6944,2.5794,2.5334,2.5315,0.0,0.0,0.0,0.0,0.0,0.0,0.0,0.0,0.0,0.0,0.0,0.0,0.0,0.0,0.0,0.0,0.0,0.0,0.0,0.0,0.0,0.0,0.0,0.0,0.0,0.0,0.0,0.0,0.0,0.0,0.0,0.0,3.0405,2.9871,3.026,3.0862,3.1606,3.2341,3.3085,3.3823,3.4077,3.4658,3.5785,3.6039,3.6395,3.6941,3.7364,3.7838,3.8374,3.8582,3.8954,3.9491,3.9491,3.9592,3.9795,3.9795,3.991,4.0096,4.0096,4.0388,4.0899,4.0899,4.12,4.1657,4.1119,4.0899,4.0798,3.9863,3.9169,3.87,3.87,3.8362,3.7893,0.0,0.0,0.0,0.0,0.0,0.0,0.0,0.0,1.6247,1.6473,1.65,1.65,1.65,1.65,1.65,1.65,1.6993,1.7422,1.7747,0.0,0.0,0.0,0.0,2.2135,2.3067,2.3699,2.4481,2.5438,2.6213,2.6734,2.7031,2.742,2.76,2.76,2.76,2.76,2.76,2.76,2.76,2.7525,2.6749,2.6273,2.5989,2.5708,2.569,2.5812,2.5812,2.6067,2.6369,2.6369,0.0,0.0,0.0,0.0,0.0,0.0,0.0,0.0,0.0,0.0,0.0,0.0,0.0,0.0,0.0,0.0,0.0,0.0,0.0,0.0,0.0,0.0,0.0,0.0,3.1183,3.1623,3.1502,3.185,3.2401,3.3129,3.388,3.4624,3.5396,3.5752,3.6299,3.7178,3.7545,3.7917,3.8345,3.865,3.9017,3.944,3.9457,3.9673,4.0096,4.0096,4.0096,4.0096,4.0405,4.0557,4.0574,4.0878,4.1267,4.166,4.166,4.1897,4.2266,4.183,4.166,0.0,0.0,0.0,0.0,0.0,3.9186,3.8819,0.0,0.0,0.0,0.0,0.0,0.0,0.0,0.0,1.5781,1.626,1.6323,1.6348,1.64,1.64,1.6425,1.6488,1.694,1.7292,0.0,0.0,0.0,2.0868,2.1495,2.241,2.3678,2.4358,2.5338,2.6599,2.6674,2.7031,2.76,2.7509,2.7524,2.76,2.7509,2.7554,2.7705,2.7705,2.7764,2.7824,2.7824,2.739,2.6644,2.6048,2.608,2.6422,2.6422,2.6646,2.6956,2.6956,0.0,0.0,0.0,0.0,0.0,0.0,0.0,0.0,0.0,0.0,0.0,0.0,0.0,0.0,0.0,0.0,0.0,0.0,0.0,0.0,0.0,0.0,0.0,0.0,3.2131,3.2892,3.3548,3.3801,3.41,3.4573,3.5357,3.6169,3.697,3.7635,3.8063,3.8142,3.8751,3.9119,3.9119,0.0,0.0,0.0,0.0,4.0096,4.0096,4.018,4.0218,4.0231,4.0967,4.1322,4.1356,4.1999,4.235,4.2422,4.2422,4.2486,4.2553,4.2455,4.2384,4.2164,4.076,4.0218,4.0214,4.013,4.0096,4.0096,0.0,0.0,0.0,0.0,0.0,0.0,0.0,0.0,1.5085,1.5198,1.5211,1.5364,1.5816,1.5856,1.6032,1.645,1.6584,1.7241,0.0,0.0,2.0496,2.2243,2.239,2.3044,2.4388,2.5009,2.5739,2.6599,2.7151,2.7465,2.76,2.6995,2.7021,2.7575,2.6969,2.7342,2.8412,2.8412,2.8725,2.9204,2.9204,2.8498,2.739,2.727,2.6942,2.6573,2.6573,2.6849,2.722,2.722,2.7398,2.7587,2.7587,0.0,0.0,0.0,0.0,0.0,0.0,0.0,0.0,0.0,0.0,0.0,0.0,0.0,0.0,0.0,0.0,0.0,0.0,0.0,0.0,3.2763,3.4089,3.5019,3.5143,3.6253,3.6625,3.5526,3.6608,3.7741,3.851,3.87,3.9022,3.9626,3.9808,3.9893,3.9893,4.0028,4.0096,4.0096,4.0096,4.0096,4.0096,4.0679,4.0984,4.1001,0.0,0.0,4.2083,4.2232,4.2625,4.3186,4.3186,4.3555,4.4093,4.3453,4.2844,4.2215,4.1322,4.0984,4.0916,4.032,4.0096,4.0096,0.0,0.0,0.0,0.0,0.0,0.0,0.0,0.0,1.4601,1.4868,1.4906,1.5097,1.563,1.5703,1.5919,1.645,1.65,0.0,0.0,1.9054,1.9858,2.1673,2.1976,2.2727,2.4059,2.5016,2.5662,2.5993,2.6705,2.685,2.6495,2.6121,2.635,2.7049,2.7015,2.7604,2.8622,2.8951,2.9294,2.9593,2.9593,2.8994,2.8096,2.8096,2.7677,2.7143,2.7431,2.765,2.7854,2.8148,2.8053,2.7807,2.7807,2.7291,2.67,0.0,0.0,0.0,0.0,0.0,0.0,0.0,0.0,0.0,0.0,0.0,0.0,0.0,0.0,3.0557,0.0,0.0,3.277,3.4258,3.5109,3.587,3.6642,3.7724,3.8159,3.7398,3.799,3.8734,3.9474,3.9542,3.9694,4.0079,4.0096,4.0096,4.0096,4.0096,4.0096,4.0096,4.0455,4.0658,4.0658,4.1373,4.1745,4.1762,4.2506,4.2861,4.2861,4.3281,4.3653,4.3995,4.3995,4.4228,4.4581,4.4178,4.3789,4.3366,4.2608,4.2083,4.166,4.0929,4.0658,4.0608,0.0,0.0,0.0,0.0,0.0,0.0,0.0,0.0,0.0,1.4507,1.4569,1.4783,1.5326,1.5399,1.5653,0.0,0.0,0.0,0.0,1.8438,1.8983,2.0718,2.1302,2.2206,2.3563,2.4686,2.5304,2.5398,2.6135,2.6122,2.5398,2.5398,2.5783,2.6526,2.7049,2.7847,2.8831,2.9503,2.9847,2.9967,2.9832,2.9383,2.8771,2.8652,2.8186,2.7673,2.8271,2.8512,2.8608,2.9208,2.8796,2.8027,2.8027,2.7418,2.67,2.67,2.67,0.0,0.0,0.0,0.0,0.0,0.0,0.0,0.0,0.0,3.0025,3.1343,3.164,3.2087,3.3548,3.3835,3.4309,3.5802,3.6169,3.6693,3.7927,3.8751,3.922,3.922,3.922,3.944,4.0045,4.0096,4.0096,4.0096,4.0096,4.0096,4.0096,4.0096,4.018,4.0303,4.0882,4.1271,4.1407,4.2151,4.2506,4.2523,4.3271,4.3626,4.366,4.4296,4.4615,4.4615,4.4615,4.4615,4.4615,4.4615,4.4615,4.4533,4.3893,4.3267,4.2638,4.1745,4.1407,4.1305,0.0,0.0,0.0,0.0,0.0,0.0,0.0,0.0,0.0,1.3382,1.3394,1.3625,1.4211,0.0,0.0,0.0,0.0,0.0,1.8211,1.8228,1.8983,2.0718,2.1258,2.2161,2.3577,2.4148,2.4755,2.5398,2.6135,2.6122,2.5398,2.5398,2.5783,2.6499,2.6511,2.7623,2.9533,3.0133,3.0732,3.1241,3.0643,3.0028,2.9413,2.8831,2.8186,2.7673,2.8271,2.8837,2.9372,2.9971,2.9589,2.8874,2.8874,2.7867,2.67,2.67,0.0,2.6843,2.7503,2.8197,2.8756,2.8857,2.9441,3.0149,0.0,0.0,3.2158,3.2983,3.3152,3.3599,3.5087,3.5346,3.5864,3.7386,3.8193,3.8667,3.8853,3.9508,3.9977,3.9977,3.9977,4.0011,4.0096,4.0096,4.0096,4.0096,4.0096,4.0096,4.0096,4.0096,4.0405,4.1068,4.117,4.1508,4.2181,4.2899,4.3288,4.3288,4.4079,4.4465,4.4465,4.455,4.4615,4.4615,4.4615,4.4615,4.4615,4.4615,4.4615,4.4584,4.4499,4.4415,4.4161,4.2706,4.2181,4.208,0.0,0.0,0.0,0.0,0.0,0.0,0.0,0.0,0.0,0.0,0.0,1.3437,1.4031,0.0,0.0,0.0,0.0,0.0,1.7163,1.7828,1.8663,1.9707,2.0572,2.1469,2.2362,2.33,2.3879,2.4048,2.4838,2.4824,2.4048,2.4048,2.4482,2.5244,2.6047,2.7145,2.8445,2.952,3.0133,3.0372,3.0088,2.9593,2.8994,2.8712,2.8186,2.7673,2.8271,2.8896,0.0,0.0,2.9382,2.8925,2.845,2.7849,2.7342,2.7342,2.7672,0.0,2.8416,2.9059,2.9736,0.0,3.0828,3.1572,3.2307,3.2713,3.3271,3.4444,3.4681,3.5137,3.6659,3.6947,3.7285,0.0,3.8802,3.9153,3.9576,3.991,4.0096,4.0096,4.0096,4.0096,4.0096,4.0096,4.0096,4.0096,4.0096,4.0096,4.0096,4.0506,4.0882,4.1187,4.2019,4.2628,4.2932,4.3707,4.4096,4.4096,4.4432,4.4615,4.4615,4.4615,4.4615,4.4615,4.4615,4.4615,4.4556,4.4049,4.3844,4.38,4.329,4.3092,4.3066,4.297,4.2932,4.2828,0.0,0.0,0.0,0.0,0.0,0.0,0.0,0.0,0.0,0.0,0.0,0.0,0.0,0.0,0.0,0.0,0.0,0.0,0.0,1.7276,1.8117,1.8958,1.9924,2.0717,2.1268,2.233,2.2883,2.2882,2.368,2.3729,2.3108,2.3335,2.3855,2.4665,2.5862,2.6919,2.7872,2.9092,2.9593,2.9578,2.9398,2.9026,2.8562,2.8188,2.7838,2.7622,2.8228,2.8724,0.0,0.0,2.8929,2.8611,2.8238,2.7976,2.7841,2.8069,2.8687,2.9356,2.9542,3.0151,0.0,3.1613,3.2215,3.2858,3.3785,3.4004,3.4427,3.5932,3.6225,3.6642,3.7973,3.8198,3.8447,3.9186,3.9305,3.9491,4.0028,4.0096,4.0096,4.0096,4.0096,4.0096,4.0096,4.0096,4.0096,4.0096,4.0096,4.0096,4.0096,4.0798,4.1288,4.1508,4.273,4.3507,4.3741,4.4313,4.4615,4.4615,4.4615,4.4615,4.4615,4.4615,4.4615,4.4615,4.4615,4.4615,4.4528,4.3651,4.3441,4.3547,4.2426,4.2141,4.2424,4.2842,4.317,4.327,0.0,0.0,0.0,0.0,0.0,0.0,0.0,0.0,0.0,0.0,0.0,0.0,0.0,0.0,1.4119,0.0,0.0,0.0,0.0,1.6525,1.7277,1.8933,1.9535,2.0113,2.0704,2.1271,2.181,2.232,2.3071,2.3314,2.3123,2.3899,2.4667,2.5398,2.609,2.7198,2.8611,2.9324,2.9593,2.9533,2.8891,2.8622,2.8457,2.7168,2.6979,2.7496,2.8098,0.0,0.0,2.8856,2.8475,2.7959,2.873,2.8433,0.0,2.873,2.9491,3.0217,3.0946,3.1674,3.2401,3.3152,3.3345,3.3751,3.5205,3.5532,3.5971,3.7505,3.7826,3.8063,3.8819,3.8966,3.9203,3.996,4.0079,4.0079,4.0096,4.0096,4.0096,4.0096,4.0096,4.0096,0.0,4.0096,4.0096,4.0096,4.0096,4.0096,4.0096,4.0798,4.1525,4.2249,4.3,4.3761,4.455,4.4598,4.4615,4.4615,4.4615,4.4615,4.4615,4.4615,4.4615,4.4615,4.4615,4.4615,4.4528,4.3651,4.38,4.4398,4.2676,4.252,4.3154,4.2347,4.2582,4.3204,0.0,0.0,0.0,0.0,0.0,0.0,0.0,0.0,0.0,0.0,0.0,0.0,0.0,0.0,0.0,0.0,1.4029,1.4525,0.0,1.5906,1.6751,1.7315,1.8569,1.9535,2.0088,2.0679,2.1218,2.1769,2.2012,2.2099,2.2046,2.2685,2.3111,2.3412,2.502,2.6008,2.6557,2.7764,2.8274,2.8214,2.7542,2.726,2.7183,2.6273,2.6047,2.6275,0.0,0.0,0.0,2.7734,2.768,2.7858,2.812,2.8383,2.8848,3.0083,3.098,3.1606,3.186,3.2469,3.3203,3.3947,3.4506,3.5137,3.6163,3.6411,3.6671,3.7691,3.7499,3.741,3.8125,3.8667,3.9085,3.9339,3.9779,4.0096,4.0096,4.0096,4.0096,4.0096,4.0096,0.0,0.0,0.0,0.0,4.0096,4.0096,4.0303,4.0798,4.1525,4.2269,4.3,4.3792,4.433,4.4615,4.4615,4.4615,4.4615,4.4615,4.4615,4.4615,4.4615,4.4615,4.4615,4.4615,4.4615,4.4528,4.3651,4.3472,4.3621,4.2442,4.2173,4.2316,4.1461,4.169,4.2488,0.0,0.0,0.0,0.0,0.0,0.0,0.0,0.0,0.0,0.0,0.0,0.0,0.0,0.0,0.0,0.0,0.0,1.3862,0.0,0.0,1.5806,1.6197,1.7428,1.8368,1.892,1.951,2.0163,2.0891,2.0891,2.1105,2.1507,2.1845,2.2279,2.2813,2.4164,2.5017,2.5532,2.6482,2.7018,2.7168,2.6509,2.639,2.6509,2.5588,2.5356,0.0,0.0,0.0,0.0,2.6956,2.7087,2.7494,2.8052,2.8941,3.0016,3.1234,3.1928,3.2412,3.2936,3.3434,3.4032,3.5075,3.547,3.5881,3.6941,3.6987,3.7004,3.7753,3.7516,3.7342,3.7821,3.8294,3.8616,3.8616,3.9237,3.9711,3.9711,3.9943,4.0096,4.0096,4.0096,4.0096,0.0,0.0,0.0,4.0096,4.0096,4.0422,4.117,4.1897,4.2642,4.3389,4.4195,4.4615,4.4615,4.4615,4.4615,4.4615,4.4615,4.4615,4.4615,4.4615,4.4615,4.4615,4.4615,4.4615,4.4528,4.3651,4.3471,4.3651,4.2457,4.1997,4.1901,4.103,4.086,4.1196,0.0,0.0,0.0,0.0,0.0,0.0,0.0,0.0,0.0,0.0,0.0,0.0,0.0,0.0,0.0,0.0,0.0,0.0,0.0,0.0,0.0,1.5578,1.616,1.6724,1.731,1.7865,1.8656,1.9673,1.971,2.0263,2.1331,2.1397,2.2136,2.3454,2.3546,2.4319,2.5541,2.5591,2.5974,2.6494,2.5779,2.5884,2.63,2.4948,0.0,0.0,0.0,0.0,2.6076,2.6547,2.675,2.7072,2.8536,3.0016,3.1336,3.209,3.2327,3.2666,3.411,3.4567,3.4956,3.6378,3.6231,3.609,3.7521,3.7308,3.6987,3.7652,3.7741,3.7724,3.7724,0.0,3.7792,3.7838,3.8481,3.9,3.9,3.9626,4.0096,0.0,0.0,0.0,0.0,0.0,0.0,4.0096,0.0,4.0438,4.1221,4.1914,4.2658,4.344,4.4212,4.4615,4.4615,4.4615,4.4615,4.4615,4.4615,4.4615,4.4615,4.4615,4.4615,4.4615,4.4615,4.4615,4.4528,4.3651,4.3785,4.4369,4.2707,4.2062,4.1965,4.1147,4.0309,3.9702,0.0,0.0,0.0,0.0,0.0,0.0,0.0,0.0,0.0,0.0,0.0,0.0,0.0,0.0,0.0,0.0,0.0,0.0,0.0,0.0,0.0,0.0,0.0,0.0,0.0,0.0,0.0,1.8015,1.8405,1.8756,1.907,1.986,2.0686,2.1572,2.2925,2.3989,2.4827,2.5361,2.5693,2.5737,0.0,2.4208,2.4223,0.0,0.0,0.0,0.0,0.0,2.6076,2.6547,2.7461,2.8485,2.8874,3.0016,3.1336,3.209,3.2689,3.3322,3.4263,3.5329,3.6158,3.596,3.6608,3.7268,3.7122,3.6936,3.6682,3.627,3.5757,3.5368,3.5368,3.5814,0.0,3.6987,3.8154,0.0,3.9,3.9626,0.0,4.0096,0.0,4.0096,4.0096,4.0096,0.0,0.0,4.0096,4.0658,4.1948,4.2198,4.2909,4.4245,4.4482,4.4615,4.4615,4.4615,4.4615,4.4615,4.4615,4.4615,4.4615,4.4615,4.4615,4.4615,4.4615,4.4615,4.4528,4.3651,4.3426,4.3591,4.3139,4.2971,4.2939,4.2707,4.2489,4.2157,0.0,0.0,0.0,0.0,0.0,0.0,0.0,0.0,0.0,0.0,0.0,0.0,0.0,0.0,0.0,0.0,0.0,0.0,0.0,0.0,0.0,0.0,0.0,0.0,0.0,0.0,0.0,0.0,0.0,0.0,1.7476,1.8341,1.9219,2.0113,2.1356,2.242,2.3306,2.3714,0.0,0.0,0.0,0.0,0.0,0.0,0.0,0.0,0.0,0.0,0.0,2.6615,2.7715,2.8993,2.8993,3.0228,3.1826,3.2571,3.3305,3.4117,3.521,3.5887,3.6332,3.6558,3.6761,3.6862,3.6801,3.6288,3.5667,3.5216,3.4539,3.4015,3.4015,3.437,3.4884,0.0,0.0,0.0,3.8413,3.9153,3.974,0.0,4.0096,0.0,4.0096,4.0096,4.0096,0.0,4.0096,4.0743,4.2215,4.23,4.301,4.4564,4.4615,4.4615,4.4615,4.4615,4.4615,4.4615,4.4615,4.4615,4.4615,4.4615,4.4615,4.4615,0.0,4.4615,4.4556,4.4064,4.3652,4.3306,4.3306,4.2832,4.2157,4.2157,4.2157,4.2077,0.0,0.0,0.0,0.0,0.0,0.0,0.0,0.0,0.0,0.0,0.0,0.0,0.0,0.0,0.0,0.0,0.0,0.0,0.0,0.0,0.0,0.0,0.0,0.0,0.0,0.0,0.0,0.0,0.0,0.0,0.0,0.0,0.0,0.0,0.0,0.0,0.0,0.0,0.0,0.0,0.0,0.0,0.0,0.0,0.0,0.0,0.0,0.0,0.0,2.67,2.7715,2.8993,2.8993,3.0516,3.2446,3.3186,3.3914,3.4821,3.6242,3.6214,3.605,3.7285,3.6676,3.5881,3.6378,3.5464,3.4449,3.4246,3.3694,3.3243,3.3243,3.3243,3.3508,3.4229,0.0,3.6067,3.7403,3.8413,3.9237,3.9893,4.0045,4.0096,4.0096,4.0096,4.0096,4.0096,4.0185,4.0844,4.2232,4.23,4.301,4.4564,4.4615,4.4615,4.4615,4.4615,4.4615,4.4615,4.4615,4.4615,4.4615,4.4615,4.4615,4.4615,4.4615,4.4528,4.4412,4.4296,4.3814,4.3123,4.3001,4.2093,4.0861,4.0861,4.0946,4.113,0.0,0.0,0.0,0.0,0.0,0.0,0.0,0.0,0.0,0.0,1.2651,1.3198,0.0,0.0,0.0,0.0,0.0,0.0,0.0,0.0,0.0,0.0,0.0,0.0,0.0,0.0,0.0,0.0,0.0,0.0,0.0,0.0,0.0,0.0,0.0,0.0,0.0,0.0,0.0,0.0,0.0,0.0,0.0,0.0,0.0,0.0,0.0,0.0,0.0,0.0,2.7715,2.8993,2.8993,3.0516,3.2446,3.3186,3.3914,3.4692,3.5577,3.6197,3.6496,3.6101,3.6299,3.6293,3.5159,3.4686,0.0,3.2936,3.2581,3.2496,3.2496,3.2496,3.2723,3.3474,3.4731,3.5684,3.5966,3.7736,3.9051,0.0,3.9728,4.0096,4.0096,4.0096,0.0,0.0,4.0658,4.139,4.2249,4.23,4.301,4.4564,4.4615,4.4615,4.4615,4.4615,4.4615,4.4615,4.4615,4.4615,4.4615,4.4615,4.4615,4.4615,4.4615,0.0,4.3472,4.2738,4.2363,4.2141,4.1428,4.1412,4.1756,4.1756,4.2221,4.277,0.0,0.0,0.0,0.0,0.0,0.0,0.0,1.1399,1.1603,1.1603,1.2052,1.2463,1.2743,1.3023,0.0,0.0,0.0,0.0,0.0,0.0,0.0,0.0,0.0,0.0,0.0,1.3475,1.3741,1.4003,0.0,1.4488,1.4708,1.5439,1.6092,1.6718,0.0,0.0,0.0,0.0,0.0,0.0,0.0,0.0,0.0,0.0,0.0,0.0,0.0,0.0,0.0,0.0,2.7715,2.8993,2.8993,3.0516,3.2446,3.3186,3.3914,3.4753,3.591,3.6197,3.618,3.6214,3.591,3.5413,3.4669,0.0,0.0,3.2446,3.1989,3.1725,3.1725,3.1725,3.1962,3.2706,3.3744,3.4731,3.5481,3.7234,3.8565,3.8954,3.9643,4.0096,0.0,4.0096,4.0096,4.0096,4.0781,4.1525,4.2266,4.3061,4.3839,4.4567,4.4615,4.4615,4.4615,4.4615,4.4615,4.4615,4.4615,4.4615,4.4615,4.4615,4.4615,4.4615,4.4615,4.4355,4.3902,4.3047,4.2411,4.1965,4.1543,4.1347,4.1329,4.1329,4.1885,4.2505,0.0,0.0,0.0,0.0,0.0,0.0,0.0,1.0935,1.1238,1.1238,1.1344,1.1575,1.1994,1.2583,1.2981,0.0,0.0,0.0,0.0,0.0,0.0,0.0,0.0,0.0,0.0,0.0,0.0,1.4027,1.4027,0.0,0.0,0.0,0.0,0.0,1.6564,1.7086,0.0,0.0,0.0,0.0,0.0,0.0,0.0,0.0,0.0,0.0,0.0,0.0,2.5685,2.6268,2.7478,2.8764,2.8942,3.0516,3.2412,3.2983,3.3795,3.477,3.5972,3.5842,3.5526,3.6141,3.5278,3.4218,3.406,3.3139,3.2259,3.2107,3.1606,3.12,3.12,3.12,3.1386,0.0,3.2689,3.3626,3.4951,3.6439,3.7741,0.0,3.9423,0.0,4.0079,4.0096,0.0,4.0096,4.0929,4.1762,4.2489,4.3839,4.4615,4.4615,4.4615,4.4615,4.4615,4.4615,4.4615,4.4615,4.4615,4.4615,4.4615,4.4615,4.4615,4.4615,4.4615,4.4483,4.4267,4.3577,4.2785,4.1981,4.1788,4.1296,4.069,4.0483,4.0962,4.1609,0.0,0.0,0.0,0.0,0.0,0.0,0.0,1.0018,1.0063,1.0063,1.0489,1.0801,1.0851,1.1605,1.2326,0.0,0.0,0.0,0.0,0.0,0.0,0.0,0.0,0.0,0.0,0.0,0.0,1.4438,1.4438,0.0,0.0,0.0,0.0,0.0,0.0,1.6747,1.6838,1.7503,0.0,0.0,0.0,0.0,0.0,0.0,0.0,0.0,0.0,2.4377,2.5617,2.5685,2.6683,2.8043,2.8764,3.0516,3.231,3.2378,3.34,3.4533,3.4669,3.4669,3.4618,3.4686,3.41,3.3322,3.2655,3.2395,3.2107,3.1437,3.1251,3.12,3.12,3.12,3.1217,0.0,0.0,3.2672,3.348,3.4884,3.6372,3.7826,0.0,0.0,4.0045,4.0096,0.0,4.0096,4.1403,4.2523,4.3254,4.4144,4.4615,4.4615,4.4615,4.4615,4.4615,4.4615,4.4615,4.4615,4.4615,4.4615,4.4615,4.4615,4.4615,4.4615,4.4615,4.4152,0.0,4.3336,4.2785,4.1917,4.113,4.076,4.0605,3.9811,4.0063,4.0811,0.0,0.0,0.0,0.0,0.0,0.0,0.9905,0.9905,0.9905,0.9905,1.0094,1.0292,1.0496,1.101,1.1609,0.0,0.0,0.0,0.0,0.0,0.0,0.0,0.0,0.0,0.0,0.0,1.4462,1.486,1.486,0.0,0.0,0.0,0.0,0.0,0.0,1.6159,1.6204,0.0,0.0,0.0,0.0,0.0,0.0,0.0,0.0,0.0,0.0,0.0,2.434,2.4788,2.5913,2.719,2.7512,2.8857,3.0584,3.1904,3.2716,3.3264,3.3711,3.3846,3.3846,3.3846,3.3271,3.2655,3.2361,3.1955,3.142,3.0683,3.0548,3.0548,3.0548,3.0548,3.0683,0.0,0.0,0.0,3.3305,3.4681,3.6169,3.7724,3.8548,0.0,0.0,0.0,4.0269,4.0743,4.1724,0.0,4.3355,4.4147,4.4615,4.4615,4.4615,4.4615,4.4615,4.4615,4.4615,4.4615,4.4615,4.4615,4.4615,4.4615,4.4615,4.4615,4.4615,4.4124,0.0,4.2723,4.2013,4.118,4.0827,4.0707,4.0656,4.0309,4.0397,4.0622,0.0,0.0,0.0,0.0,0.0,0.9905,0.9905,0.9905,0.9905,0.9905,0.9905,0.9989,1.0229,1.0643,1.1119,1.1635,0.0,0.0,0.0,0.0,0.0,0.0,0.0,0.0,0.0,0.0,1.4876,1.5314,1.5314,1.5477,0.0,0.0,1.5799,1.5799,0.0,0.0,0.0,0.0,0.0,0.0,0.0,0.0,0.0,0.0,0.0,0.0,0.0,0.0,0.0,0.0,0.0,2.6124,2.6564,0.0,0.0,0.0,3.1792,3.2141,3.2865,3.3068,3.3068,3.3068,3.252,3.1921,3.1691,3.1251,3.0666,2.9922,2.977,2.977,2.977,2.9946,3.0267,0.0,0.0,3.2232,3.2966,3.4157,3.5509,3.7031,0.0,3.8954,0.0,3.9977,4.032,4.0832,0.0,0.0,4.3051,4.4042,4.4615,4.4615,4.4615,4.4615,4.4615,4.4615,4.4615,4.4615,4.4615,4.4615,4.4615,4.4615,4.4615,4.4615,4.4615,4.4253,0.0,4.2738,4.1869,4.1063,4.0794,4.0537,4.0326,4.0326,4.0326,4.0222,0.0,0.0,0.0,0.0,0.0,0.0,0.9905,0.9905,0.9905,0.9905,0.9905,0.9905,0.9905,1.0496,1.0904,1.0904,0.0,0.0,0.0,0.0,0.0,0.0,0.0,0.0,0.0,0.0,1.5329,1.5791,1.5791,1.5799,1.5799,1.5799,1.5799,1.5799,0.0,0.0,0.0,0.0,0.0,0.0,0.0,0.0,0.0,0.0,0.0,0.0,0.0,0.0,0.0,0.0,0.0,0.0,0.0,0.0,0.0,0.0,3.0632,3.1369,3.2107,3.231,3.231,3.231,3.1769,3.1021,3.0284,3.0115,2.9905,2.9162,2.901,2.901,2.901,2.96,3.0098,0.0,0.0,0.0,3.2209,3.296,3.3971,0.0,0.0,3.821,3.8937,3.966,4.0096,4.0113,0.0,0.0,4.2317,4.3772,4.4615,4.4615,4.4615,4.4615,4.4615,4.4615,4.4615,4.4615,4.4615,4.4615,4.4615,4.4615,4.4615,4.4615,4.4615,4.4584,0.0,4.3651,4.277,4.1901,4.1046,4.0185,3.9409,3.9409,3.9409,3.9409,0.0,0.0,0.0,0.0,0.0,0.0,0.0,0.9905,0.9905,0.9905,0.9905,0.9989,1.0223,1.0643,1.0974,1.1156,0.0,0.0,0.0,0.0,0.0,0.0,0.0,0.0,0.0,0.0,1.5646,1.5799,1.5799,1.5799,1.5799,1.5799,1.5799,1.5799,1.5799,1.5799,0.0,0.0,0.0,0.0,0.0,0.0,0.0,0.0,0.0,0.0,0.0,0.0,0.0,0.0,0.0,0.0,0.0,0.0,0.0,2.7418,2.8696,2.9864,3.0598,3.0801,3.0801,3.0801,3.0615,3.026,2.9525,2.9356,2.9136,2.834,2.8188,2.8188,2.8188,2.8822,2.9499,3.0014,0.0,0.0,0.0,0.0,0.0,3.5414,3.7415,3.8937,0.0,0.0,4.0096,0.0,0.0,4.1762,4.2269,4.325,4.4028,4.4567,4.4615,4.4615,4.4615,4.4615,4.4615,4.4615,4.4615,4.4615,4.4615,4.4615,4.4615,4.4615,4.4615,4.4253,4.3636,4.2769,4.1901,4.103,4.015,3.9631,3.9406,3.9406,3.9406,3.9406,0.0,0.0,0.0,0.0,0.0,0.0,0.0,0.9905,0.9944,1.0072,1.0097,1.0217,1.055,1.0871,1.1123,1.1293,0.0,0.0,0.0,0.0,0.0,0.0,0.0,0.0,0.0,1.5215,1.5552,1.5799,1.5799,1.5799,1.5799,1.5799,1.5799,1.5799,1.5799,1.5799,0.0,0.0,0.0,0.0,0.0,0.0,1.9001,0.0,0.0,0.0,0.0,0.0,0.0,0.0,0.0,0.0,0.0,0.0,0.0,0.0,2.697,2.8002,2.933,2.9685,2.9685,2.9685,2.9685,2.9482,2.873,2.8561,2.8332,2.7545,2.7384,2.7384,2.7384,2.8273,2.9153,2.96,0.0,0.0,0.0,0.0,0.0,3.6219,0.0,0.0,0.0,4.0096,0.0,0.0,0.0,4.1407,4.1863,4.2848,4.3626,4.413,4.4432,4.4615,4.4615,4.4615,4.4615,4.4615,4.4615,4.4615,4.4615,4.4615,4.4615,4.4615,4.4615,4.4281,0.0,4.2505,4.169,4.1063,3.9864,3.9406,3.9406,3.9406,3.9406,3.9406,0.0,0.0,0.0,0.0,0.0,0.0,0.0,0.0,1.0084,1.0384,1.0446,1.0562,1.0897,1.1144,1.1307,1.1324,0.0,0.0,0.0,0.0,0.0,0.0,0.0,0.0,0.0,1.4781,1.5132,1.5799,1.5799,1.5799,1.5799,1.5799,1.5799,1.5799,1.5799,1.5799,0.0,0.0,0.0,0.0,0.0,0.0,0.0,0.0,0.0,0.0,0.0,0.0,0.0,0.0,0.0,0.0,0.0,0.0,0.0,0.0,0.0,0.0,0.0,2.884,2.8899,2.8899,2.8899,2.8713,2.7891,2.7722,0.0,2.6843,2.67,2.6716,2.6767,2.7994,2.9027,2.9077,0.0,0.0,0.0,3.2476,0.0,0.0,3.7893,0.0,3.996,0.0,0.0,0.0,4.0743,4.1136,4.1204,4.2493,4.3271,4.3321,4.4059,4.4482,4.4615,4.4615,4.4615,4.4615,4.4615,4.4615,4.4615,4.4615,4.4615,0.0,4.4615,4.4615,4.4471,4.2785,4.2062,4.1836,4.0148,3.9445,3.9406,3.9406,3.9406,3.9406,0.0,0.0,0.0,0.0,0.0,0.0,0.0,0.0,0.0,0.0,1.0775,1.0895,1.1179,1.1265,1.1406,0.0,0.0,0.0,0.0,0.0,0.0,0.0,0.0,0.0,0.0,1.4535,1.5132,1.5799,1.5799,1.5799,1.5799,1.5799,1.5799,1.5799,1.5799,0.0,0.0,0.0,0.0,0.0,0.0,0.0,0.0,0.0,0.0,0.0,2.0088,2.0788,0.0,0.0,0.0,0.0,0.0,0.0,0.0,0.0,2.4314,2.4991,2.6099,0.0,2.8086,2.8086,2.8086,2.7883,0.0,0.0,0.0,0.0,0.0,2.686,2.7444,2.8341,2.917,2.9753,0.0,0.0,3.12,0.0,0.0,3.7538,3.7893,3.8481,3.996,0.0,0.0,4.0096,4.0265,4.0608,4.117,4.1542,4.1982,4.254,4.274,4.3416,4.4598,4.4615,4.4615,4.4615,4.4615,4.4615,4.4615,4.4615,4.4615,4.4615,4.4615,4.4615,4.4514,4.3441,4.2599,4.1901,4.0809,3.999,3.9406,3.9406,3.9406,3.9406,0.0,0.0,0.0,0.0,0.0,0.0,0.0,0.0,0.0,0.0,0.0,0.0,0.0,0.0,0.0,0.0,0.0,0.0,0.0,0.0,0.0,0.0,0.0,0.0,1.3788,1.4154,1.4819,1.5799,1.5799,1.5885,1.6032,1.6032,1.6032,1.6025,1.5877,0.0,0.0,0.0,0.0,0.0,1.7652,0.0,0.0,0.0,0.0,0.0,1.9344,1.9987,0.0,2.1072,2.1478,2.1854,0.0,0.0,0.0,0.0,2.3671,2.4169,2.4889,2.593,2.6877,2.7207,2.7291,2.719,2.6793,0.0,0.0,0.0,0.0,2.6928,2.7655,2.8467,0.0,0.0,3.0717,0.0,0.0,0.0,3.4895,3.7584,3.7893,3.8481,0.0,0.0,4.0096,4.0096,4.0096,4.0269,4.0663,4.1018,4.139,4.1779,4.213,4.2706,4.3535,4.3535,4.3535,4.3552,4.389,4.4045,4.4062,4.4432,4.4615,4.4615,4.4615,4.4615,4.4528,4.3651,4.3032,4.2473,4.1197,4.0414,3.9937,3.9538,3.9197,3.8945,0.0,0.0,0.0,0.0,0.0,0.0,0.0,0.0,0.0,0.0,0.0,0.0,0.0,0.0,0.0,0.0,0.0,0.0,0.0,0.0,0.0,0.0,0.0,1.2532,1.3767,1.3908,1.4564,1.5799,1.5961,1.6141,1.6366,1.6604,1.6616,1.6447,1.6057,1.6191,0.0,0.0,0.0,0.0,1.7783,0.0,0.0,0.0,0.0,0.0,0.0,0.0,0.0,2.0625,2.1011,2.1322,2.1983,0.0,0.0,0.0,0.0,0.0,2.4209,2.4911,2.5609,2.6353,2.6615,2.67,2.67,0.0,0.0,0.0,0.0,0.0,0.0,2.8636,0.0,0.0,0.0,0.0,3.321,3.4134,3.547,3.764,3.8007,0.0,3.9977,4.0096,4.0096,4.0096,4.0096,4.0096,4.0096,4.0679,4.1035,4.1035,4.164,4.1961,4.1961,4.2198,4.23,4.2317,4.2929,4.3237,4.3254,4.3941,4.4245,4.4262,0.0,0.0,4.4359,4.375,4.3411,4.3154,4.1658,4.0866,4.045,3.973,3.895,3.8242,0.0,0.0,0.0,0.0,0.0,0.0,0.0,0.0,0.0,0.0,0.0,0.0,0.0,0.0,0.0,0.0,0.0,0.0,0.0,0.0,0.0,0.0,1.234,1.3008,1.3782,1.4355,1.5035,1.5799,1.6702,1.6987,1.6668,1.7966,1.809,1.7199,1.6521,1.628,1.6403,0.0,0.0,0.0,0.0,0.0,0.0,0.0,0.0,0.0,0.0,0.0,0.0,1.9204,2.0124,2.1267,2.1603,0.0,0.0,0.0,0.0,0.0,2.3771,2.4316,2.4846,2.5584,2.6234,2.67,2.67,0.0,0.0,0.0,0.0,0.0,0.0,2.9441,3.0166,0.0,0.0,3.2418,0.0,0.0,3.605,3.7691,0.0,3.9169,4.0028,4.0096,4.0096,4.0096,4.0096,4.0096,4.0096,4.0214,4.0269,4.0269,4.0371,4.0451,4.0451,4.1674,4.23,4.23,4.2418,4.2472,4.2472,4.2604,4.2655,4.2689,0.0,4.3575,4.3626,4.417,4.3977,4.3276,4.3017,4.1645,3.9839,3.9704,3.8766,3.7554,0.0,0.0,0.0,0.0,0.0,0.0,0.0,0.0,0.0,0.0,0.0,0.0,0.0,0.0,0.0,0.0,0.0,0.0,0.0,0.0,0.0,1.224,1.3257,1.3897,1.4065,1.4729,1.5487,1.6333,1.7051,1.747,1.7625,1.8337,1.8409,1.7895,1.6974,1.6663,1.6857,1.7002,0.0,0.0,0.0,0.0,0.0,0.0,0.0,0.0,0.0,0.0,0.0,0.0,1.9644,2.0677,2.1379,0.0,0.0,0.0,0.0,0.0,2.3954,2.4605,2.5222,2.6053,2.6487,2.6758,2.6962,0.0,0.0,0.0,0.0,0.0,0.0,0.0,3.048,3.1606,0.0,3.3152,3.388,3.5301,3.6654,0.0,0.0,3.9288,4.0028,4.0096,4.0096,4.0096,4.0096,4.0096,4.0096,4.0096,4.0096,4.0096,4.0096,4.0096,4.0096,4.076,4.1115,4.1115,4.1521,4.1711,4.1711,4.213,4.23,4.2317,0.0,4.2811,4.2828,4.3196,4.3126,4.2698,4.2251,4.1145,3.966,3.8427,3.7523,3.6866,0.0,0.0,0.0,0.0,0.0,0.0,0.0,0.0,0.0,0.0,0.0,0.0,0.0,0.0,0.0,0.0,0.0,0.0,0.0,0.0,1.2663,1.2606,1.4025,1.467,1.4407,1.5227,1.6034,1.6796,1.7534,1.8283,1.9054,1.8768,1.8548,1.8367,1.7357,1.7058,1.7308,1.7308,1.7497,0.0,0.0,0.0,0.0,0.0,0.0,0.0,0.0,0.0,0.0,0.0,0.0,0.0,0.0,0.0,0.0,2.3212,2.3323,2.3483,2.4302,2.4993,2.5722,2.6661,0.0,2.6989,2.7589,0.0,0.0,0.0,0.0,0.0,0.0,3.0302,0.0,3.209,3.2926,3.366,3.4398,3.5989,0.0,0.0,3.87,3.9474,4.0045,4.0096,4.0096,4.0096,4.0096,4.0096,4.0096,4.0096,4.0096,4.0096,4.0096,4.0096,4.0096,4.0096,4.0096,4.0113,4.0675,4.0933,4.0967,4.1538,4.1792,4.1792,4.1978,4.2033,4.2049,4.2232,4.23,4.2233,4.1566,4.0636,3.9383,3.7106,3.6269,3.6194,0.0,0.0,0.0,0.0,0.0,0.0,0.0,0.0,0.0,0.0,0.0,0.0,0.0,0.0,0.0,0.0,0.0,0.0,0.0,0.0,1.2869,1.261,1.4259,1.5016,1.4681,1.6004,1.6728,1.6796,1.8509,1.991,2.0964,1.9847,1.9009,1.838,1.7591,1.7284,1.7308,1.7308,1.7497,1.78,0.0,0.0,0.0,0.0,0.0,0.0,0.0,0.0,0.0,0.0,0.0,0.0,0.0,0.0,2.3224,2.3566,2.3666,2.3846,2.4644,2.5177,2.578,2.6895,2.7204,0.0,2.8709,2.8734,0.0,2.9922,0.0,0.0,0.0,3.0904,3.1386,3.2175,3.2926,3.366,3.4398,0.0,3.7838,3.7893,3.9153,4.0045,4.0096,4.0096,4.0096,4.0096,4.0096,4.0096,4.0096,4.0096,4.0096,4.0096,4.0096,4.0096,4.0096,4.0096,4.0096,4.0096,4.0146,4.018,4.018,4.0231,4.0265,4.0299,4.0984,4.1288,4.1339,4.2016,4.23,4.2286,4.2233,4.0884,3.8696,3.6405,3.5579,3.5564,0.0,0.0,0.0,0.0,0.0,0.0,0.0,0.0,0.0,0.0,0.0,0.0,0.0,0.0,0.0,0.0,0.0,0.0,0.0,0.0,1.3204,1.3104,1.4608,1.5394,1.5259,1.6474,1.7205,1.7414,1.8563,1.957,2.042,1.9521,1.8945,1.8685,1.7936,1.7607,1.7607,1.7607,1.7681,1.78,1.78,0.0,0.0,0.0,0.0,0.0,0.0,0.0,0.0,0.0,1.8774,2.0122,0.0,2.2011,2.3311,2.3842,2.4011,2.4303,2.5593,2.6076,2.654,2.7966,2.8526,0.0,0.0,3.0102,3.0855,3.127,3.159,0.0,0.0,0.0,3.2131,3.2848,3.3592,3.4336,3.507,3.6366,3.7393,3.7843,3.8802,3.9592,4.0062,4.0096,4.0096,4.0096,4.0096,4.0096,4.0096,4.0096,4.0096,4.0096,4.0096,4.0096,4.0096,4.0096,4.0096,4.0096,4.0096,4.0096,4.0096,4.0096,4.0096,4.013,4.0388,4.0523,4.054,4.0811,4.0929,4.0874,4.0378,3.9373,3.8057,3.6693,3.5894,3.5504,0.0,0.0,0.0,0.0,0.0,0.0,0.0,0.0,0.0,0.0,0.0,0.0,0.0,0.0,0.0,0.0,0.0,0.0,0.0,1.3396,1.3494,1.3743,1.494,1.5702,1.5938,1.6937,1.7566,1.78,1.8538,1.9164,1.9642,1.9147,1.8781,1.8538,1.8025,1.78,1.78,1.78,1.78,1.78,1.78,1.78,0.0,0.0,0.0,0.0,0.0,0.0,0.0,0.0,1.8851,0.0,0.0,0.0,2.3459,2.4026,2.4194,2.4557,2.6167,2.6607,2.6992,0.0,0.0,0.0,3.0164,3.1161,3.2187,3.2494,3.2537,0.0,0.0,0.0,0.0,0.0,3.4122,3.4759,3.5509,3.6282,3.6987,3.7483,3.8408,3.9203,3.9694,3.9948,4.0096,4.0096,4.0096,4.0096,4.0096,4.0096,4.0096,4.0096,4.0096,4.0096,4.0096,4.0096,4.0096,4.0096,4.0096,4.0096,4.0096,4.0096,4.0096,4.0096,4.0096,4.0096,4.0096,4.0096,4.0096,4.002,3.9206,3.8442,3.769,3.6889,3.6118,3.5504,0.0,0.0,0.0,0.0,0.0,0.0,0.0,0.0,0.0,0.0,0.0,0.0,0.0,0.0,0.0,0.0,0.0,0.0,1.3396,1.3396,1.3726,1.447,1.5206,1.5944,1.6677,1.7422,1.78,1.78,1.8538,1.8883,1.8883,1.8883,1.8504,1.78,1.78,1.78,1.78,1.78,1.78,1.78,1.78,1.78,1.78,0.0,0.0,0.0,0.0,0.0,0.0,0.0,1.9007,2.0552,0.0,0.0,0.0,2.4099,2.4213,2.4557,2.6167,2.6607,2.6992,0.0,0.0,0.0,3.139,3.1773,3.2436,3.3556,0.0,3.2501,3.2501,0.0,0.0,3.3906,3.4336,3.4776,3.5509,3.6282,3.6795,3.6795,3.8087,3.8983,3.9,3.966,4.0096,4.0096,4.0096,4.0096,4.0096,4.0096,4.0096,4.0096,4.0096,4.0096,4.0096,4.0096,4.0096,4.0096,4.0096,4.0096,4.0096,4.0096,4.0096,4.0096,4.0096,4.0096,4.0096,4.0096,4.0096,4.002,3.9219,3.8456,3.769,3.6904,3.6134,3.5504,0.0,0.0,0.0,0.0,0.0,0.0,0.0,0.0,0.0,0.0,0.0,0.0,0.0,0.0,0.0,0.0,0.0,0.0,1.3396,1.3396,1.3726,1.447,1.5206,1.5944,1.6677,1.7422,1.78,1.78,1.8025,1.8127,1.8127,1.8127,1.8008,1.78,1.78,1.78,1.78,1.78,1.78,1.78,1.78,1.78,1.78,0.0,0.0,0.0,0.0,0.0,0.0,0.0,0.0,0.0,0.0,0.0,0.0,2.4099,2.4598,2.5264,2.6319,2.7016,0.0,2.8748,0.0,0.0,0.0,3.2384,0.0,0.0,0.0,3.2501,3.2501,0.0,0.0,3.3992,3.4769,3.5357,3.5566,3.5814,3.6163,3.6733,3.7202,3.7867,3.8899,3.9203,3.9542,4.0062,4.0096,4.0096,4.0096,4.0096,4.0096,4.0096,4.0096,4.0096,4.0096,4.0096,4.0096,4.0096,4.0096,4.0096,4.0096,4.0096,4.0096,4.0096,4.0096,4.0096,4.0096,4.0096,4.0096,4.007,3.9833,3.8954,3.7778,3.7529,3.6631,3.5504,0.0,0.0,0.0,0.0,0.0,0.0,0.0,0.0,0.0,0.0,0.0,0.0,0.0,0.0,0.0,0.0,0.0,0.0,0.0,0.0,1.3726,1.447,1.5206,1.6074,1.7106,1.7569,1.78,1.78,1.78,1.78,1.78,1.78,1.78,1.78,1.78,1.78,1.78,1.78,1.78,1.78,1.78,1.78,1.78,0.0,0.0,0.0,0.0,0.0,0.0,0.0,0.0,0.0,2.1286,0.0,0.0,2.4146,2.4768,2.5576,2.6374,0.0,0.0,2.9194,3.0448,3.158,3.2216,0.0,0.0,0.0,0.0,3.2825,3.2988,3.3141,0.0,3.4213,3.4802,3.5273,3.5549,3.56,3.578,3.6265,3.6598,3.7139,3.8036,3.8391,3.887,3.9609,3.966,3.9779,4.0079,4.0096,4.0096,4.0096,4.0096,4.0096,4.0096,4.0096,4.0096,4.0096,4.0096,4.0096,4.0096,4.0096,4.0096,4.0096,4.0096,4.0096,4.0096,4.0096,4.0096,4.0096,4.0096,3.9332,3.8189,3.7906,3.701,3.5894,0.0,0.0,0.0,0.0,0.0,0.0,0.0,0.0,0.0,0.0,0.0,0.0,0.0,0.0,0.0,0.0,0.0,0.0,0.0,0.0,1.3726,1.447,1.5274,1.6356,1.7766,1.78,1.78,1.78,1.78,1.78,1.78,1.78,1.78,1.78,1.78,1.78,1.78,1.78,1.78,1.78,1.78,1.78,1.78,1.78,0.0,0.0,0.0,0.0,0.0,0.0,0.0,0.0,2.1914,2.3082,2.4194,2.4194,2.4819,2.5668,2.6405,0.0,0.0,2.9732,3.0748,0.0,3.3421,3.3807,3.3807,3.3807,0.0,3.3317,3.3728,3.3385,3.338,3.4429,3.4574,3.478,3.5408,3.5549,3.56,3.56,3.6248,3.6728,3.6795,3.7398,3.8108,3.8848,3.8903,3.9186,3.9846,3.991,3.991,3.991,3.991,3.991,3.991,3.991,3.991,3.991,3.991,3.991,3.991,4.0045,4.0096,4.0096,4.0096,4.0096,4.0096,4.0096,4.0096,4.0096,4.0096,3.961,3.8813,3.8078,3.7294,3.6492,0.0,0.0,0.0,0.0,0.0,0.0,0.0,0.0,0.0,0.0,0.0,0.0,0.0,0.0,0.0,0.0,0.0,0.0,0.0,0.0,1.3726,1.447,1.5752,1.6886,1.7783,1.78,1.78,1.78,1.78,1.78,1.78,1.78,1.78,1.78,1.78,1.78,1.78,1.78,1.78,1.78,1.78,1.78,1.78,1.78,1.78,0.0,0.0,0.0,0.0,0.0,0.0,0.0,2.2363,2.3275,2.4194,2.4194,2.5217,2.6374,2.6552,2.7647,0.0,0.0,3.0338,3.1813,3.3421,3.3807,3.3807,3.3807,3.3487,3.3317,3.3728,3.3617,3.3539,3.3811,3.4511,3.4974,3.4774,3.5239,3.56,3.56,3.5752,3.6113,3.6745,3.6936,3.7342,3.8075,3.8142,3.821,3.8362,3.8379,3.8379,3.8379,3.8379,3.8379,3.8379,3.8379,3.8379,3.8379,3.8379,3.8379,3.8413,3.9559,4.0096,4.0096,4.0096,4.0096,4.0096,4.0096,4.0096,4.0096,4.0096,3.961,3.8813,3.8078,3.7294,3.6492,0.0,0.0,0.0,0.0,0.0,0.0,0.0,0.0,0.0,0.0,0.0,0.0,0.0,0.0,0.0,0.0,0.0,0.0,0.0,0.0,0.0,1.4982,1.5752,1.6683,1.7783,1.78,1.78,1.78,1.78,0.0,0.0,0.0,1.78,1.7817,1.816,1.833,1.833,1.833,1.833,1.8302,1.7935,1.78,1.7834,1.8194,1.833,1.842,1.9158,0.0,0.0,0.0,0.0,0.0,0.0,0.0,2.4194,2.4194,2.5346,2.6607,2.6607,0.0,0.0,2.9965,0.0,3.2302,3.3513,3.3807,3.3807,3.3807,3.362,3.355,3.3755,3.3591,3.3442,3.3588,3.3899,3.4103,3.3988,3.4607,3.5081,3.5081,3.5391,3.5763,3.618,3.6231,3.6535,3.7325,3.7376,3.7533,3.7877,3.7893,3.7893,3.7893,3.7893,3.7893,3.7893,3.7893,3.7893,3.7893,3.7893,3.7893,3.7939,3.87,3.9051,3.9051,3.9051,3.9254,3.9559,3.9559,3.9779,4.0096,4.0096,3.9833,3.9345,3.8206,3.7529,3.701,0.0,0.0,0.0,0.0,0.0,0.0,0.0,0.0,0.0,0.0,0.0,0.0,0.0,0.0,0.0,0.0,0.0,0.0,0.0,0.0,0.0,1.5532,1.56,1.6289,1.7766,1.78,1.78,1.78,0.0,0.0,0.0,0.0,0.0,1.8025,1.8752,1.9096,1.9096,1.9096,1.9018,1.8866,1.8374,1.8104,1.8076,1.8809,1.9096,1.9187,1.9982,2.0447,2.0819,2.1674,0.0,0.0,0.0,0.0,2.4194,2.4194,2.5236,2.6424,2.6552,0.0,2.9354,3.084,3.1806,0.0,3.3421,3.3697,3.3807,3.3807,3.3807,3.3807,3.3807,3.3529,3.3352,3.35,3.3301,3.3162,3.3308,3.391,3.4303,3.4303,3.4951,3.5408,3.5408,3.5526,3.5881,3.6547,3.6598,3.6857,3.7471,3.7505,3.7505,3.7505,3.7505,3.7505,3.7505,3.7505,3.7505,3.7505,3.7505,3.7505,3.7505,3.7505,3.764,3.7893,3.7893,3.8261,3.8802,3.8802,3.9237,3.9897,3.9897,3.9902,3.9718,3.8318,3.7704,3.7382,0.0,0.0,0.0,0.0,0.0,0.0,0.0,0.0,0.0,0.0,0.0,0.0,0.0,0.0,0.0,0.0,0.0,0.0,1.3396,0.0,0.0,1.5532,1.56,1.6289,1.7766,1.78,1.78,1.78,0.0,0.0,0.0,0.0,0.0,1.8798,0.0,0.0,1.9856,1.9856,1.9473,1.895,1.949,1.9321,1.8826,1.9575,1.9856,1.9984,2.1018,2.1429,2.1643,2.2976,2.3482,0.0,0.0,0.0,2.4194,2.4194,2.4855,2.5705,0.0,0.0,2.9225,0.0,3.0968,3.1776,0.0,0.0,3.3807,0.0,3.3807,3.3807,3.3807,3.3755,3.3622,3.3303,3.3401,3.3406,3.3094,3.3339,3.3558,3.3558,3.4201,3.4652,3.4652,3.5222,3.5633,3.5752,3.5763,3.5802,3.5904,3.5915,3.5915,3.5915,3.5915,3.5915,3.5915,3.5915,3.5915,3.5915,3.5915,3.5915,3.5915,3.5915,3.6642,3.7893,3.7893,3.7973,3.8058,3.8058,3.8481,3.9153,3.9153,3.9096,3.8965,3.8121,3.7368,3.663,0.0,0.0,0.0,0.0,0.0,0.0,0.0,0.0,0.0,0.0,0.0,0.0,0.0,0.0,0.0,1.3396,1.3396,1.3396,1.3396,1.3794,1.4496,1.5544,1.5994,1.6717,1.7783,1.78,1.78,0.0,0.0,0.0,0.0,1.8983,1.9293,0.0,0.0,0.0,0.0,2.067,2.049,2.0185,2.0048,1.9912,1.9882,2.0625,2.1017,2.1289,2.2177,0.0,2.2866,2.3491,2.3821,2.4006,2.4156,0.0,0.0,0.0,2.4768,0.0,2.693,2.8112,2.9189,0.0,3.0467,3.1054,3.2307,0.0,3.325,3.3715,3.3807,3.3807,3.3807,3.3807,3.3673,3.3266,3.3078,3.2826,3.24,3.2586,3.2791,3.2791,3.3423,3.4049,3.4466,3.4793,3.5154,3.5566,3.56,3.56,3.56,3.56,3.56,3.56,3.56,3.56,3.56,3.56,3.56,3.56,3.56,3.56,3.56,3.56,3.5971,3.6608,3.6608,3.6874,3.7291,3.7291,3.7719,3.8343,3.7928,3.7991,3.8141,3.6998,3.6576,3.6492,0.0,0.0,0.0,0.0,0.0,0.0,0.0,0.0,0.0,0.0,0.0,0.0,0.0,0.0,0.0,0.0,1.3425,1.3555,1.3817,1.4486,1.5213,1.595,1.6442,1.7044,1.7783,1.78,1.78,0.0,0.0,0.0,1.7834,1.9315,1.971,0.0,2.0794,0.0,0.0,0.0,0.0,0.0,2.0817,2.0716,2.0877,2.1684,2.216,2.2467,2.3098,0.0,0.0,0.0,0.0,2.4194,2.4194,2.4194,0.0,0.0,0.0,0.0,0.0,0.0,2.8901,2.969,3.0057,3.0516,0.0,0.0,3.2766,0.0,3.366,3.3807,3.3807,3.3807,3.37,3.3397,3.2965,3.25,3.2039,3.2093,3.2128,3.2032,3.2672,3.3339,3.389,3.411,3.4539,3.5256,3.5323,3.5408,3.5583,3.56,3.56,3.56,3.56,3.56,3.56,3.56,3.56,3.56,3.56,3.56,3.56,3.56,3.56,3.56,3.56,3.5932,3.6496,3.6496,3.6936,3.7559,3.6804,3.6825,3.7107,3.584,3.5658,3.5999,0.0,0.0,0.0,0.0,0.0,0.0,0.0,0.0,0.0,0.0,0.0,0.0,0.0,1.3396,1.3396,1.3396,1.3522,1.3994,1.4947,1.5587,1.6243,1.698,1.6826,0.0,1.7783,1.78,0.0,0.0,0.0,0.0,1.7834,1.9315,1.9985,2.0008,2.1552,2.2236,2.2236,0.0,0.0,0.0,0.0,2.2152,0.0,0.0,0.0,0.0,0.0,0.0,0.0,0.0,0.0,0.0,0.0,0.0,0.0,0.0,0.0,0.0,0.0,2.7255,0.0,2.8858,2.9635,0.0,0.0,0.0,0.0,0.0,3.3268,3.3807,3.3807,3.3807,3.3782,3.3768,3.3419,3.2999,3.2534,3.2109,3.1691,3.13,3.1911,3.2361,3.2412,3.3051,3.3761,3.4489,3.4567,3.4861,3.5566,3.56,3.56,3.56,3.56,3.56,3.56,3.56,3.56,3.56,3.56,3.56,3.56,3.56,3.56,3.56,3.56,3.5616,3.565,3.565,3.6129,3.6776,3.6045,3.5792,3.5717,3.5008,3.4682,3.4596,0.0,0.0,0.0,0.0,0.0,0.0,0.0,0.0,0.0,0.0,0.0,0.0,0.0,1.4107,1.4293,1.4771,1.5011,1.5297,1.5652,1.6483,1.6937,1.6852,1.7377,1.7713,1.7805,1.78,0.0,0.0,0.0,1.78,1.7834,1.9315,2.0002,2.0069,2.1603,2.2296,2.2296,2.2296,0.0,0.0,0.0,0.0,0.0,0.0,0.0,0.0,0.0,0.0,0.0,0.0,0.0,0.0,0.0,0.0,0.0,0.0,0.0,0.0,0.0,0.0,0.0,2.8154,2.8827,2.9574,3.0075,3.0644,3.1213,3.1715,3.2461,3.3029,3.3029,3.3458,3.3807,3.3807,3.3211,3.2689,3.2526,3.1869,3.1361,3.122,3.1437,3.1775,3.2242,3.2547,3.3011,3.3744,3.3795,3.3914,3.4173,3.4641,3.4895,3.4895,3.5357,3.56,3.56,3.56,3.5357,3.4895,3.4895,3.4647,3.419,3.419,3.419,3.419,3.419,3.4731,3.56,3.56,3.5763,3.5925,3.4792,3.462,3.4861,3.3708,3.3532,3.3859,0.0,0.0,0.0,0.0,0.0,0.0,0.0,0.0,0.0,0.0,0.0,0.0,0.0,0.0,1.5263,1.5886,1.6343,1.6584,1.658,1.7396,1.7673,1.7224,1.7761,1.7982,1.7805,0.0,0.0,0.0,0.0,0.0,0.0,1.9051,1.9754,2.0059,2.135,2.2073,0.0,0.0,0.0,2.2362,0.0,0.0,2.358,0.0,0.0,0.0,0.0,0.0,0.0,0.0,0.0,0.0,0.0,0.0,0.0,0.0,0.0,0.0,2.5324,0.0,0.0,0.0,0.0,2.9133,2.969,0.0,3.0356,3.0895,3.1641,3.2204,3.2204,3.2632,3.3171,3.3715,3.3203,3.2681,3.2526,3.186,3.1351,3.122,3.12,3.1386,3.1887,3.1928,3.2232,3.2983,3.3034,0.0,3.3379,3.3863,3.4134,3.4134,3.4613,3.4867,3.4867,3.4867,3.4613,3.4134,3.4134,3.388,3.3396,3.3396,3.3396,3.3396,3.3396,3.4106,3.5239,3.5239,3.5391,3.5492,3.4374,3.4076,3.4128,3.2974,3.2809,3.3155,0.0,0.0,0.0,0.0,0.0,0.0,0.0,0.0,0.0,0.0,0.0,0.0,0.0,0.0,0.0,1.6618,1.7376,1.7798,1.7715,1.8266,1.8479,1.8208,1.796,1.7822,1.7811,0.0,0.0,0.0,0.0,0.0,0.0,0.0,1.9276,2.0002,2.0828,2.159,2.2269,0.0,2.2313,2.2451,0.0,2.4208,2.4104,0.0,0.0,0.0,2.596,2.6063,0.0,2.6505,0.0,0.0,0.0,0.0,0.0,0.0,0.0,0.0,0.0,0.0,0.0,0.0,0.0,0.0,2.8981,0.0,3.0167,3.0167,3.0803,3.1354,3.1354,3.1378,3.1904,3.3476,3.3411,3.3019,3.2567,3.2109,3.165,3.1259,3.12,3.12,3.12,3.12,3.1505,3.2209,3.2276,3.2571,3.3294,3.3372,3.3379,3.3396,3.3396,3.3396,3.3396,3.3396,3.3379,3.3362,3.3362,3.3372,3.3339,3.3339,3.3339,3.3339,3.3339,3.3744,3.4449,3.4483,3.4928,3.5509,3.483,3.4174,3.3521,3.2828,3.2532,3.2467,0.0,0.0,0.0,0.0,0.0,0.0,0.0,0.0,0.0,0.0,0.0,0.0,0.0,0.0,1.7705,1.8012,1.8244,1.8291,1.8087,1.8404,1.8479,1.8208,1.8315,1.829,1.8088,0.0,0.0,0.0,0.0,0.0,0.0,0.0,0.0,0.0,2.0598,2.1309,2.1539,2.2066,0.0,0.0,2.378,2.4445,0.0,0.0,0.0,0.0,0.0,2.7798,2.7328,0.0,2.709,2.6552,0.0,0.0,0.0,0.0,0.0,0.0,2.447,0.0,0.0,0.0,0.0,0.0,0.0,0.0,0.0,2.9335,2.9965,3.0522,3.0522,3.1005,3.1544,3.1996,3.2215,3.2367,3.247,3.2109,3.165,3.1259,3.12,3.12,3.12,3.12,3.1275,0.0,3.1505,3.1589,3.1799,3.2317,3.2858,3.3379,3.3396,3.3396,3.3396,3.3396,3.3136,3.2605,3.2605,3.2317,3.1799,3.1799,3.1799,3.1799,3.1799,3.2232,3.2987,3.406,3.4624,3.4745,3.4125,3.3761,3.344,3.2242,3.1788,3.178,0.0,0.0,0.0,0.0,0.0,0.0,0.0,0.0,0.0,0.0,0.0,0.0,0.0,0.0,1.8351,1.8734,1.8766,1.8706,1.8542,1.8688,1.8655,1.8381,1.841,1.8361,1.8203,0.0,0.0,0.0,0.0,0.0,0.0,0.0,0.0,0.0,0.0,0.0,0.0,0.0,0.0,0.0,2.4285,0.0,0.0,2.7202,2.7759,0.0,0.0,0.0,2.8086,2.8237,2.7769,0.0,0.0,0.0,0.0,0.0,0.0,0.0,0.0,0.0,0.0,0.0,0.0,0.0,2.8387,2.8767,2.8999,0.0,2.9372,2.9708,2.9708,3.0075,3.0503,3.084,3.1097,3.1317,3.1509,3.1393,3.1167,3.0792,3.1004,3.12,3.12,3.12,3.12,3.12,3.12,3.12,3.12,3.1606,3.2046,3.2476,3.2476,3.2476,3.2476,3.2476,3.2273,3.1843,3.1843,3.1623,3.12,3.12,3.12,3.12,3.12,3.1437,3.1928,3.3095,3.3941,3.4457,3.4112,3.3827,3.3492,3.2678,3.2006,3.1511,0.0,0.0,0.0,0.0,0.0,0.0,0.0,0.0,0.0,0.0,0.0,0.0,0.0,0.0,0.0,0.0,1.9029,1.8997,1.8953,1.8927,1.8811,1.8604,1.8341,1.8198,1.8198,0.0,0.0,0.0,0.0,0.0,0.0,0.0,0.0,0.0,0.0,0.0,0.0,0.0,0.0,2.3636,2.4956,2.584,0.0,0.0,2.821,2.8065,2.8355,2.8465,2.8527,2.8875,2.8515,0.0,0.0,0.0,0.0,0.0,2.6662,0.0,0.0,0.0,0.0,0.0,0.0,0.0,2.7664,2.8222,2.873,0.0,2.8803,2.8877,2.8877,2.8932,2.9225,2.9947,3.0075,3.0109,3.0251,3.0478,3.0482,3.0087,3.0607,3.1029,3.1065,3.1082,3.1116,3.119,3.12,3.12,3.12,3.12,3.12,3.12,3.12,3.12,3.12,3.12,3.12,3.12,3.12,3.12,3.12,3.12,3.12,3.12,3.12,3.12,3.1251,3.1911,3.2994,3.4269,3.4262,3.3952,3.3473,3.3383,3.2569,3.1511,0.0,0.0,0.0,0.0,0.0,0.0,0.0,0.0,0.0,0.0,0.0,0.0,0.0,0.0,0.0,0.0,1.9228,1.8909,1.8697,1.8474,1.843,1.8585,1.8341,1.8198,1.8198,1.8146,0.0,0.0,0.0,0.0,0.0,0.0,0.0,0.0,0.0,0.0,0.0,0.0,0.0,2.4303,2.4595,0.0,2.76,2.7883,2.8321,2.8791,2.8851,2.8875,2.8887,2.8964,2.8895,2.8767,0.0,0.0,0.0,2.7572,0.0,0.0,0.0,0.0,0.0,0.0,0.0,0.0,2.6827,2.6956,2.7066,0.0,2.758,2.8026,2.8026,2.857,2.9054,2.9207,2.9225,2.957,3.0549,3.0736,3.0485,2.9713,2.9747,2.995,3.0289,3.0301,3.0565,3.1157,3.12,3.12,3.12,3.12,3.12,3.12,3.12,3.12,3.12,3.12,3.12,3.12,3.12,3.12,3.12,3.12,3.12,3.12,3.12,3.12,3.1207,3.1352,3.1928,3.2742,3.2857,3.2812,3.2641,3.2112,3.1739,3.1511,0.0,0.0,0.0,0.0,0.0,0.0,0.0,0.0,0.0,0.0,0.0,0.0,0.0,0.0,0.0,0.0,0.0,0.0,0.0,0.0,1.9078,1.8811,1.8415,1.8198,1.8198,1.8078,1.7932,0.0,0.0,0.0,0.0,0.0,0.0,0.0,0.0,0.0,0.0,0.0,2.3485,2.4514,2.4716,0.0,2.7918,2.8088,2.8755,2.9598,2.9598,2.9598,2.9537,2.9133,2.8999,0.0,0.0,2.8712,2.8405,0.0,2.8112,2.7794,0.0,0.0,0.0,2.72,0.0,0.0,0.0,2.6607,2.6607,2.6607,2.6919,2.72,2.72,2.7855,2.8405,2.8405,2.873,2.9216,2.9822,2.9908,2.967,2.9026,2.9128,2.9329,2.9527,2.955,2.9854,3.0598,3.0649,3.0818,3.1183,3.12,3.12,3.12,3.12,3.12,3.12,3.12,3.12,3.12,3.12,3.12,3.12,3.12,3.12,3.12,3.12,3.12,3.12,3.12,3.1244,3.135,3.1787,3.1995,3.2013,3.167,3.1523,3.1511,1.483,0.0,0.0,0.0,0.0,0.0,0.0,0.0,0.0,0.0,0.0,0.0,0.0,0.0,0.0,0.0,0.0,0.0,0.0,0.0,0.0,1.9102,1.8585,1.8274,1.8137,1.7905,1.78,0.0,0.0,0.0,0.0,0.0,0.0,0.0,0.0,0.0,0.0,0.0,0.0,2.4651,0.0,2.6306,2.7815,2.8177,2.9042,3.0106,3.0357,3.0338,3.0093,2.9445,2.9133,2.8999,2.8999,2.8999,0.0,0.0,0.0,0.0,0.0,0.0,0.0,0.0,0.0,2.6754,0.0,0.0,0.0,2.6167,2.6258,0.0,0.0,0.0,0.0,0.0,0.0,0.0,0.0,2.8603,0.0,2.8423,2.8628,2.8808,2.8881,2.8953,2.9254,2.9828,2.9879,3.0209,3.0954,3.0997,3.1055,3.12,3.12,3.12,3.12,3.12,3.12,3.12,3.12,3.12,3.12,3.12,3.12,3.12,3.12,3.12,3.12,3.12,3.0787,3.0199,3.0915,3.1193,3.1223,3.1338,3.1338,3.1331,1.5725,1.6454,0.0,0.0,0.0,0.0,0.0,0.0,0.0,0.0,0.0,0.0,0.0,0.0,0.0,0.0,0.0,0.0,2.1285,0.0,0.0,1.9317,1.8984,1.8506,1.7867,1.7817,1.78,1.78,0.0,0.0,0.0,0.0,0.0,0.0,2.1465,0.0,0.0,0.0,2.4303,0.0,2.5793,2.6586,0.0,2.7801,2.8673,2.9802,3.0887,3.0803,3.0185,0.0,2.9592,2.8999,0.0,2.8999,2.8999,2.8999,0.0,0.0,0.0,0.0,0.0,0.0,2.7737,0.0,0.0,0.0,2.5338,2.4617,0.0,0.0,0.0,0.0,0.0,0.0,0.0,0.0,2.6864,2.7181,2.7646,2.8319,2.8184,2.814,2.8443,2.8791,2.9027,2.9128,2.9128,2.9457,3.0192,3.0217,3.0531,3.1183,3.12,3.12,3.12,3.12,3.12,3.12,3.12,3.12,3.12,3.12,3.12,3.12,3.12,3.12,3.12,3.12,3.0528,2.9571,3.0243,3.0204,2.9805,3.0399,3.0622,3.0702,1.6409,1.6883,0.0,0.0,0.0,0.0,0.0,0.0,0.0,0.0,0.0,0.0,0.0,0.0,0.0,0.0,0.0,2.4592,0.0,0.0,0.0,0.0,2.0018,0.0,1.9373,1.9186,1.9084,1.9084,1.9389,0.0,0.0,0.0,0.0,0.0,2.2194,0.0,2.2893,0.0,2.4725,0.0,0.0,0.0,0.0,2.7953,2.9209,3.0768,3.1744,3.1873,3.1451,0.0,2.9983,0.0,0.0,0.0,0.0,0.0,0.0,0.0,0.0,0.0,0.0,0.0,0.0,0.0,2.6953,0.0,2.5306,0.0,0.0,0.0,0.0,0.0,0.0,0.0,2.63,0.0,0.0,0.0,2.7064,0.0,0.0,0.0,2.7415,2.7564,2.785,2.8281,2.8289,2.8636,2.9424,2.9871,3.0234,3.0538,3.097,3.12,3.12,3.12,3.12,3.12,3.12,3.12,3.12,3.12,3.12,3.12,3.12,3.12,3.12,3.12,3.0699,2.9913,2.9839,2.9464,2.9011,2.9297,2.9879,3.0552,1.6923,0.0,0.0,0.0,0.0,0.0,0.0,0.0,0.0,0.0,0.0,0.0,2.594,2.6615,0.0,0.0,2.6924,2.6423,0.0,0.0,2.3537,0.0,0.0,0.0,0.0,2.0275,2.0002,2.0002,0.0,0.0,0.0,0.0,0.0,0.0,0.0,2.2784,2.3033,0.0,2.5012,2.5126,2.6364,2.7153,2.772,2.8714,3.0058,3.1519,3.2559,3.2791,3.2381,3.0999,3.0375,0.0,2.9244,0.0,0.0,0.0,0.0,0.0,2.8999,0.0,0.0,0.0,0.0,0.0,0.0,0.0,0.0,0.0,0.0,0.0,0.0,0.0,0.0,0.0,0.0,2.5946,0.0,2.6135,0.0,0.0,0.0,0.0,0.0,2.6803,2.7128,2.7774,2.7623,2.7885,2.8781,2.9242,2.9574,2.9786,3.0514,3.0903,3.0903,3.1099,3.12,3.12,3.12,3.12,3.12,3.12,3.12,3.12,3.12,3.12,3.12,3.12,3.0848,3.0251,2.9816,2.9222,2.8567,2.8597,2.919,3.0028,1.7224,1.7549,0.0,0.0,0.0,0.0,0.0,0.0,0.0,0.0,0.0,0.0,0.0,0.0,0.0,0.0,0.0,2.7273,2.6127,0.0,2.5139,0.0,0.0,2.205,0.0,0.0,2.0002,2.0002,2.0771,0.0,0.0,0.0,0.0,0.0,0.0,2.2563,2.2444,2.4242,2.5034,2.5219,2.6687,2.7718,2.8544,0.0,3.1053,3.1611,3.3183,0.0,0.0,3.1647,3.084,0.0,0.0,0.0,0.0,0.0,0.0,0.0,0.0,0.0,0.0,2.8999,0.0,0.0,0.0,0.0,2.7278,0.0,0.0,0.0,0.0,0.0,0.0,0.0,0.0,0.0,0.0,0.0,0.0,0.0,0.0,0.0,0.0,2.7051,2.7457,2.7868,2.7173,2.7232,2.8365,2.8066,2.8238,2.901,2.9753,3.0132,3.0132,3.0835,3.12,3.12,3.12,3.12,3.12,3.12,3.12,3.12,3.12,3.12,3.12,3.12,3.0848,3.0293,3.0272,2.9545,2.8515,2.857,2.8622,2.8846,0.0,0.0,0.0,0.0,0.0,0.0,0.0,2.0485,0.0,0.0,0.0,0.0,0.0,2.8906,2.9384,0.0,0.0,2.9686,2.8489,2.7618,0.0,0.0,0.0,2.3948,0.0,0.0,2.2274,2.1519,2.1796,0.0,0.0,0.0,0.0,0.0,0.0,2.2958,0.0,0.0,0.0,0.0,0.0,2.7992,2.862,0.0,3.1296,3.1611,3.3226,3.3623,0.0,3.1849,3.1225,3.076,2.9427,2.8999,2.8999,2.8999,2.8999,2.8999,0.0,0.0,2.8999,2.8999,0.0,0.0,0.0,0.0,0.0,0.0,0.0,0.0,0.0,0.0,0.0,0.0,0.0,0.0,0.0,0.0,0.0,0.0,0.0,0.0,0.0,0.0,2.6854,2.6722,2.6957,2.7147,2.7273,2.7606,2.7925,2.8205,2.8958,2.96,3.0098,3.0362,3.0717,3.12,3.12,3.12,3.12,3.12,3.12,3.12,3.12,3.12,3.12,3.12,3.1075,3.0858,3.0456,3.0059,2.9595,2.8823,2.8559,2.8786,1.7687,0.0,0.0,0.0,0.0,0.0,0.0,0.0,0.0,0.0,2.6463,0.0,2.8911,0.0,3.032,0.0,3.1097,3.1064,3.0288,2.9199,0.0,2.8282,2.6621,0.0,0.0,0.0,0.0,2.289,2.2499,2.2296,0.0,0.0,0.0,0.0,0.0,2.2986,2.377,2.4508,2.5331,0.0,0.0,2.821,0.0,0.0,3.1152,3.1611,0.0,3.3807,3.355,3.1941,3.139,3.1115,2.95,2.8999,2.8999,2.8999,2.8999,2.8999,2.8999,2.8999,0.0,2.8999,2.8999,0.0,2.8999,0.0,2.8154,0.0,0.0,0.0,0.0,0.0,0.0,0.0,0.0,0.0,0.0,2.4194,0.0,0.0,0.0,0.0,0.0,2.6055,2.6515,2.6687,2.6942,2.7093,2.7129,2.745,2.7556,2.741,2.8163,2.8805,2.9287,2.9828,3.0335,3.0818,3.1072,3.12,3.12,3.12,3.12,3.12,3.12,3.12,3.12,3.12,3.12,3.1161,3.076,3.0487,3.0155,2.8954,2.8546,2.8727,1.7726,0.0,0.0,0.0,1.8431,0.0,0.0,0.0,2.3567,0.0,2.6698,2.8155,2.9996,3.0277,3.0632,3.139,3.1501,3.1501,3.1464,3.0372,0.0,0.0,2.8113,2.7051,2.7296,0.0,0.0,2.4006,2.2894,2.2337,0.0,0.0,0.0,0.0,2.2296,0.0,2.3502,2.4203,2.5193,2.641,2.7821,2.8414,2.8562,2.9741,3.0668,3.1556,3.3164,3.377,3.355,3.1941,3.139,3.1115,2.95,2.8999,2.8999,2.8999,2.8999,2.8999,2.8999,2.8999,2.8999,2.8999,2.8999,0.0,0.0,0.0,2.8785,0.0,0.0,0.0,0.0,0.0,0.0,0.0,0.0,0.0,0.0,0.0,0.0,0.0,0.0,0.0,0.0,2.5721,2.6444,2.7565,2.7085,2.7045,0.0,2.749,2.7123,2.6741,2.741,2.7774,2.7807,2.9271,3.0033,3.0115,3.0818,3.1157,3.12,3.12,3.12,3.12,3.12,3.12,3.12,3.12,3.12,3.12,3.12,3.0838,3.0155,2.8954,2.8543,2.8601,1.7726,1.8245,1.8623,0.0,1.8781,1.9618,0.0,0.0,0.0,0.0,2.8385,2.9661,3.0149,3.1268,3.2075,3.2277,3.2834,0.0,0.0,0.0,0.0,3.0234,2.9356,2.8375,2.7314,2.6498,0.0,2.4006,2.3413,2.2835,2.2296,0.0,0.0,0.0,0.0,0.0,2.422,2.4423,2.5658,2.7522,2.8147,2.8577,2.8949,0.0,3.0338,3.0723,3.2332,3.3286,3.355,3.1941,3.139,3.1115,2.95,2.8999,2.8999,2.8999,2.8999,2.8999,2.8999,2.8999,2.8999,2.8999,2.8999,2.8999,0.0,0.0,0.0,0.0,0.0,0.0,0.0,0.0,0.0,0.0,0.0,0.0,0.0,0.0,0.0,2.4194,0.0,0.0,2.4507,2.5133,2.5553,2.5577,2.6495,2.7046,2.7002,0.0,2.7239,2.7154,2.7328,2.7561,2.7807,2.8485,2.9263,3.0098,3.0284,3.0666,3.12,3.12,3.12,3.12,3.12,3.12,3.12,3.12,3.12,3.12,3.12,3.0838,3.0155,2.8943,2.8515,2.8526,1.8182,0.0,0.0,2.0281,0.0,0.0,2.2581,2.4459,0.0,2.764,2.9205,0.0,3.1176,3.2051,3.2729,3.3084,3.3532,0.0,3.314,0.0,0.0,3.128,3.0348,2.9465,2.8597,2.7552,0.0,2.4699,0.0,0.0,2.2296,0.0,0.0,0.0,0.0,2.3122,2.4572,2.5559,2.6721,2.7947,2.8457,2.8791,0.0,2.95,2.9892,3.032,3.1231,3.2063,3.2565,3.1299,3.087,3.065,2.939,2.8999,2.8999,2.8999,2.8999,2.8999,2.8999,2.8999,2.8999,2.8999,2.8999,2.8999,2.8999,2.8999,2.8999,0.0,2.8644,2.8314,0.0,0.0,0.0,0.0,0.0,0.0,0.0,0.0,0.0,0.0,2.4194,0.0,2.4194,2.4617,2.4932,2.5054,2.6235,2.6935,2.6925,0.0,2.7711,2.7567,2.7552,2.7648,2.784,2.8383,2.8896,2.9364,3.0005,3.0466,3.0734,3.1055,3.12,3.12,3.12,3.12,3.12,3.12,3.12,3.12,3.12,3.0995,3.0586,2.9629,2.9111,2.8865,1.9052,0.0,0.0,0.0,0.0,0.0,0.0,2.5612,0.0,2.8601,0.0,3.0919,3.2436,3.2693,3.3048,3.3733,0.0,3.3807,3.3807,3.314,3.2711,3.2601,3.1158,3.032,3.021,2.8385,2.6884,0.0,0.0,0.0,0.0,0.0,0.0,0.0,0.0,0.0,0.0,2.6948,2.7933,2.8031,2.8731,2.8999,2.8999,2.8999,2.9427,3.0038,3.0038,3.0632,3.128,3.0467,3.021,3.0063,2.9244,2.8999,2.8999,2.8999,2.8999,2.8999,2.8999,2.8999,2.8999,2.8999,2.8999,2.8999,2.8999,2.8999,2.8999,2.8999,2.8999,2.8999,2.8999,0.0,0.0,0.0,0.0,0.0,0.0,0.0,0.0,0.0,0.0,0.0,2.4194,2.4194,2.4488,2.5191,2.5993,2.664,2.7097,0.0,2.8162,2.7964,2.7975,2.7929,2.7904,2.8588,2.8768,2.8487,2.9771,3.0315,3.0193,3.082,3.1147,3.12,3.12,3.12,3.12,3.12,3.12,3.12,3.12,3.12,3.1141,3.0617,3.0091,2.954,2.0649,0.0,0.0,0.0,0.0,2.6182,2.6476,2.6971,2.7931,2.9673,3.0644,3.1549,3.2491,3.3195,3.3642,3.3788,3.3807,0.0,0.0,0.0,0.0,3.2619,3.1696,3.087,3.021,2.8893,2.7678,0.0,0.0,0.0,0.0,0.0,0.0,0.0,0.0,0.0,2.5123,2.7063,0.0,2.8355,2.8815,2.8999,2.8999,2.8999,2.9097,2.9207,2.9207,3.0155,3.128,3.0467,3.021,3.0063,2.9244,2.8999,2.8999,2.8999,2.8999,2.8999,2.8999,2.8999,2.8999,2.8999,2.8999,2.8999,2.8999,2.8999,2.8999,2.8999,2.8999,2.8999,2.8999,0.0,0.0,0.0,0.0,0.0,0.0,0.0,0.0,0.0,0.0,2.4194,0.0,2.4194,2.4268,2.4396,2.5154,2.5936,2.6679,0.0,2.7697,0.0,2.8316,2.8183,0.0,0.0,2.864,2.8896,2.9152,2.9706,3.0514,3.0652,3.0897,3.12,3.12,3.12,3.12,3.12,3.12,3.12,3.12,3.12,3.1181,3.1075,3.0985,3.073,0.0,0.0,0.0,0.0,0.0,0.0,0.0,2.867,2.9296,3.0656,3.1513,3.2339,3.3121,3.3568,3.3807,3.3807,3.3807,3.3807,3.3807,3.3807,3.3623,3.3231,3.2051,3.1225,3.084,2.9448,2.8078,2.6798,0.0,0.0,0.0,0.0,0.0,0.0,0.0,2.4247,0.0,0.0,0.0,2.8439,2.8839,2.8999,2.8999,2.8999,2.8999,2.8999,2.8999,2.95,3.0093,2.9708,2.958,2.95,2.9115,2.8999,2.8999,2.8999,2.8999,2.8999,2.8999,2.8999,2.8999,2.8999,2.8999,2.8999,2.8999,2.8999,2.8999,2.8999,2.8999,2.8999,2.8999,2.8038,0.0,0.0,0.0,0.0,0.0,0.0,0.0,0.0,0.0,0.0,0.0,0.0,0.0,0.0,0.0,2.576,2.6552,0.0,2.7875,0.0,0.0,0.0,2.8469,0.0,2.8689,2.8697,2.9112,2.9684,3.0412,3.0788,3.1159,3.1517,3.1517,3.1382,3.12,3.12,3.12,3.12,3.12,3.12,3.12,3.12,3.12,3.1065,0.0,2.4713,0.0,0.0,2.7293,0.0,2.9537,3.0288,3.0944,3.1574,3.2204,3.2919,3.3715,3.3807,3.3807,3.3807,3.3807,3.3807,3.3807,3.3807,3.3807,3.3807,3.2253,3.139,3.139,2.9818,2.8397,0.0,0.0,0.0,0.0,0.0,0.0,0.0,0.0,0.0,0.0,0.0,2.8452,2.8559,2.8863,2.8999,2.8999,2.8999,2.8999,2.8999,2.8999,2.8999,2.8999,2.8999,2.8999,2.8999,2.8999,2.8999,2.8999,2.8999,2.8999,2.8999,2.8999,2.8999,2.8999,2.8999,2.8999,2.8999,2.8999,2.8999,2.8999,2.8999,2.8999,2.8999,2.8999,2.8332,0.0,0.0,0.0,0.0,0.0,0.0,0.0,0.0,0.0,0.0,2.4194,0.0,0.0,0.0,0.0,0.0,2.6552,0.0,0.0,0.0,0.0,2.8999,2.8999,0.0,2.8839,2.8534,2.9159,2.9766,3.0348,3.0929,3.1476,3.1942,3.1942,3.1706,3.1312,3.1239,3.12,3.12,3.12,3.12,3.12,3.12,3.12,3.1131,0.0,0.0,0.0,0.0,0.0,0.0,3.007,3.1414,3.2406,3.2479,3.2546,3.2919,3.3715,3.3807,3.3807,3.3807,3.3807,3.3807,3.3807,3.3807,3.3807,3.3807,3.2253,3.139,3.139,2.9818,2.8743,0.0,0.0,2.6085,0.0,0.0,0.0,0.0,0.0,0.0,0.0,2.7905,2.8602,2.894,2.8969,2.8999,2.8999,2.8999,2.8999,2.8999,2.8999,2.8999,2.8999,2.8999,2.8999,2.8999,2.8999,2.8999,2.8999,2.8999,2.8999,2.8999,2.8999,2.8999,2.8999,2.8999,2.8999,2.8999,2.8999,2.8999,2.8999,2.8999,2.8999,2.8999,2.8999,2.8332,2.7774,0.0,0.0,0.0,0.0,0.0,2.4194,2.4194,0.0,0.0,2.4194,2.4194,2.4194,2.4194,2.4268,0.0,0.0,0.0,0.0,2.895,2.8999,2.8999,2.8999,2.8999,2.8988,2.894,2.9014,2.964,3.0758,3.083,3.1441,3.2434,3.2434,3.2161,3.1724,3.1351,3.12,3.12,3.12,3.12,3.12,3.12,3.12,3.119,0.0,0.0,0.0,0.0,0.0,0.0,0.0,3.2185,3.2766,3.325,3.3323,3.344,3.3752,3.3807,3.3807,3.3807,3.3807,3.3807,3.3807,3.3807,3.3807,3.3807,3.2253,3.1302,3.1101,2.9716,2.87,0.0,0.0,0.0,0.0,0.0,0.0,0.0,0.0,2.6153,2.6879,2.7936,2.8639,2.8999,2.8999,2.8999,2.8999,2.8999,2.8999,2.8999,2.8999,2.8999,2.8999,2.8999,2.8999,2.8999,2.8999,2.8999,2.8999,2.8999,2.8999,2.8999,2.8999,2.8999,2.8999,2.8999,2.8999,2.8999,2.8999,2.8999,2.8999,2.8999,2.8999,2.8999,2.8999,2.873,2.8356,2.7884,0.0,0.0,0.0,0.0,0.0,2.4268,0.0,2.4194,0.0,2.4194,2.4194,2.4194,0.0,0.0,0.0,0.0,0.0,2.895,0.0,2.8999,2.8999,2.8999,2.8999,2.8999,2.8999,2.9759,3.1167,3.1167,3.1799,3.288,3.2324,3.1969,3.1771,3.137,3.12,3.12,3.12,3.12,3.12,3.12,3.12,3.12,2.732,0.0,2.8846,0.0,3.0392,3.1286,3.2424,3.2803,3.3158,3.3733,3.3807,3.3807,3.3807,3.3807,3.3807,3.3807,3.3807,3.3807,3.3807,3.3807,3.3807,3.3807,3.2253,0.0,3.1048,2.9593,2.8639,2.8221,2.7472,0.0,0.0,0.0,0.0,0.0,2.5796,2.6475,2.7007,2.7997,2.8565,2.8839,2.8946,2.8999,2.8999,2.8999,2.8999,2.8999,2.8999,2.8999,2.8999,2.8999,2.8999,2.8999,2.8999,2.8999,2.8999,2.8999,2.8999,2.8999,2.8999,2.8999,2.8999,2.8999,2.8999,2.8999,2.8999,2.8999,2.8999,2.8999,2.8999,2.8999,2.8999,2.8999,2.8803,2.8246,0.0,0.0,0.0,2.571,0.0,2.4617,2.4341,2.4194,2.4194,2.4415,2.4543,2.4543,0.0,0.0,0.0,0.0,0.0,0.0,0.0,0.0,2.8999,2.8999,2.8999,2.8999,2.8999,2.9837,3.1409,3.1886,3.2574,3.3332,3.2557,3.2135,3.196,3.1554,3.131,3.12,3.12,3.12,3.12,3.12,3.12,3.12,2.7722,2.8535,2.9326,3.0057,3.15,3.2583,3.2601,3.3268,3.3788,3.3807,3.3807,3.3807,3.3807,3.3807,3.3807,3.3807,3.3807,3.3807,3.3807,3.3807,3.3807,0.0,0.0,3.139,3.1384,2.9432,2.8608,2.8994,0.0,0.0,2.676,0.0,2.4889,2.56,2.6021,2.6608,2.7338,2.8091,2.8396,2.8439,2.8839,2.8999,2.8999,2.8999,2.8999,2.8999,2.8999,2.8999,2.8999,2.8999,2.8999,2.8999,2.8999,2.8999,2.8999,2.8999,2.8999,2.8999,2.8999,2.8999,2.8999,2.8999,2.8999,2.8999,2.8999,2.8999,2.8999,2.8999,2.8999,2.8999,2.8999,2.8999,2.8999,2.8987,0.0,0.0,0.0,2.6403,0.0,2.5398,2.4672,2.4194,2.4194,2.4915,0.0,0.0,0.0,0.0,0.0,0.0,0.0,2.8963,2.8999,0.0,2.8999,2.8999,2.8999,2.8999,2.8999,2.9837,3.1445,3.3054,3.3788,3.3762,3.3354,3.2929,3.2459,3.1995,3.1556,3.12,3.12,3.12,3.12,3.12,3.12,3.12,2.8511,2.9105,2.9943,3.1565,3.2259,3.2791,3.333,3.3642,3.3807,3.3807,3.3323,3.2974,3.2974,3.3476,3.3807,0.0,3.3807,3.3807,0.0,3.3286,3.2974,3.2974,3.1439,3.0442,3.0189,2.9002,2.8349,2.8242,0.0,0.0,0.0,2.6238,2.6124,2.6378,2.6779,2.7238,2.7714,2.7957,2.8354,2.8809,2.8651,2.8755,2.8999,2.8999,2.8999,2.8999,2.8999,2.8999,2.8999,2.8999,2.8999,2.8999,2.8999,2.8999,2.8999,2.8999,2.8999,2.8999,2.8999,2.8999,2.8999,2.8999,2.8999,2.8999,2.8999,2.8999,2.8999,2.8999,2.8999,2.8999,2.8999,2.8999,2.8999,2.8999,2.8785,0.0,2.7884,0.0,2.6838,2.6282,2.5988,2.5836,2.5836,2.6062,0.0,0.0,0.0,0.0,0.0,0.0,0.0,0.0,2.8999,0.0,2.8999,2.8999,2.8999,2.9005,2.9555,3.0662,3.224,3.333,3.3807,3.3787,3.3368,3.2937,3.2467,3.1986,3.1556,3.12,3.12,3.12,3.12,3.12,3.12,3.12,2.8463,2.916,3.0051,3.145,3.1947,3.232,3.2816,3.2896,3.2896,3.2896,3.2467,3.2155,3.2155,3.2596,0.0,3.2896,3.2896,3.2896,3.2896,3.243,3.2155,3.2155,3.0907,3.0076,2.9827,2.8882,0.0,2.8088,2.7707,2.7403,2.7154,2.7154,2.7154,2.7162,2.7409,2.7656,2.7911,2.8027,2.836,2.8767,2.8664,2.8773,2.8999,2.8999,2.8999,2.8999,2.8999,2.8999,2.8999,2.8999,2.8999,2.8999,2.8999,2.8999,2.8999,2.8999,2.8999,2.8999,2.8999,2.8999,2.8999,2.8999,2.8999,2.8999,2.8999,2.8999,2.8999,2.8999,2.8999,2.8999,2.8999,2.8999,2.8999,2.8999,2.8999,2.8822,2.8314,0.0,2.7609,0.0,0.0,2.6607,0.0,2.6864,2.7053,0.0,0.0,0.0,0.0,0.0,2.8479,2.8987,2.8999,2.8999,2.8999,2.8999,2.9152,2.9464,3.0571,3.1635,3.2619,3.3433,3.3807,3.3793,3.3536,3.3166,3.2729,3.2247,3.1815,3.1411,3.1252,3.12,3.12,3.12,3.12,3.12,2.7922,2.888,2.9737,0.0,3.0895,0.0,3.139,3.139,3.139,3.139,3.136,3.1323,3.1323,3.1262,3.1225,3.1225,0.0,0.0,3.139,3.136,3.1323,3.1323,3.0558,3.0118,3.0118,2.899,2.8394,2.8375,2.802,2.7862,2.7862,2.7862,2.7862,2.7862,2.7911,2.794,2.7961,2.827,2.842,2.8465,2.8827,2.8982,2.8999,2.8999,2.8999,2.8999,2.8999,2.8999,2.8999,2.8999,2.8999,2.8999,2.8999,2.8999,2.8999,2.8999,2.8999,2.8999,2.8999,2.8999,2.8999,2.8999,2.8999,2.8999,2.8999,2.8999,2.8999,2.8999,2.8999,2.8999,2.8999,2.8999,2.8999,2.8999,2.8999,2.8999,2.8999,2.8356,2.7884,2.7884,0.0,0.0,2.6772,2.7438,2.7884,0.0,0.0,0.0,0.0,0.0,2.8999,2.8999,2.8999,2.8999,2.8999,2.906,2.9525,3.0387,3.1873,3.2619,3.2711,3.3451,3.3807,3.3807,3.3807,3.3571,3.3176,3.2729,3.2264,3.1816,3.1439,3.1278,3.1232,3.1232,3.123,3.12,0.0,0.0,2.9924,3.0931,3.1262,3.139,3.139,3.139,3.139,3.139,3.0876,3.0485,3.0485,2.9947,2.9574,2.9574,3.0693,3.139,3.139,3.084,3.0485,3.0485,2.9708,2.928,2.928,2.8693,2.8265,2.8031,2.7634,2.7432,2.7432,2.7432,2.7432,2.7462,2.8029,2.829,2.8297,2.8375,2.8571,2.8839,2.8633,2.8731,2.8999,2.8999,2.8999,2.8999,2.8999,2.8999,2.8999,2.8999,2.8999,2.8999,2.8999,2.8999,2.8999,2.8999,2.8999,2.8999,2.8999,2.8999,2.8999,2.8999,2.8999,2.8999,2.8999,2.8999,2.8999,2.8999,2.8999,2.8999,2.8999,2.8999,2.8999,2.8999,2.8999,2.8999,2.8999,2.884,2.8712,0.0,2.8546,2.8436,2.8436,2.8601,2.8712,0.0,0.0,2.8999,2.8999,2.8999,2.8999,2.8999,2.8999,2.8999,2.8999,2.9616,3.0626,3.2039,3.2417,3.2919,3.3532,3.3715,3.3807,3.3807,3.3807,3.3571,3.3191,3.3075,3.2753,3.2315,3.2222,3.1968,3.166,3.166,3.146,3.12,2.8929,2.9199,2.9527,3.0198,3.0301,3.0301,3.0301,3.0301,3.0301,3.0301,2.9928,2.9647,2.9647,2.9262,2.8999,2.8999,2.98,3.0301,3.0301,2.9892,2.9647,2.9647,2.9225,2.8999,2.8999,2.8797,2.8496,2.8129,2.7911,2.7794,2.7812,2.7981,2.8082,2.8095,2.8496,2.867,2.867,2.867,2.8791,2.8988,2.8761,2.8815,2.8999,2.8999,2.8999,2.8999,2.8999,2.8999,2.8999,2.8999,2.8999,2.8999,2.8999,2.8999,2.8999,2.8999,2.8999,2.8999,2.8999,2.8999,2.8999,2.8999,2.8999,2.8999,2.8999,2.8999,2.8999,2.8999,2.8999,2.8999,2.8999,2.8999,2.8999,2.8999,2.8999,2.8999,2.8999,2.8999,2.8999,2.8999,2.8999,2.8999,2.8999,2.8999,2.8999,2.8999,2.8999,0.0,2.8999,2.8999,2.8999,2.8999,2.8999,2.9189,2.9537,3.0717,3.1745,3.2601,3.2974,3.3378,3.3807,3.3807,3.3807,3.3807,3.3807,3.368,3.3465,3.3273,3.3045,3.2793,3.2583,3.2332,3.2109,3.2109,3.1977,3.1787,2.8484,2.8767,2.8999,2.8999,2.8999,2.8999,2.8999,2.8999,2.8999,2.8999,2.8999,2.8999,2.8999,2.8999,2.8999,2.8999,2.8999,2.8999,2.8999,2.8999,2.8999,2.8999,2.8999,2.8999,2.8999,2.8999,2.8839,2.8484,2.8433,2.8407,2.8414,2.8749,2.8917,2.8917,2.8964,2.8999,2.8999,2.8999,2.8999,2.8999,2.8999,2.8999,2.8999,2.8999,2.8999,2.8999,2.8999,2.8999,2.8999,2.8999,2.8999,2.8999,2.8999,2.8999,2.8999,2.8999,2.8999,2.8999,2.8999,2.8999,2.8999,2.8999,2.8999,2.8999,2.8999,2.8999,2.8999,2.8999,2.8999,2.8999,2.8999,2.8999,2.8999,2.8999,2.8999,2.8999,2.8999,0.0,2.8999,2.8999,2.8999,2.8999,2.8999,2.8999,2.8999,2.8999,2.8999,2.8999,2.8999,2.8999,2.906,2.9189,2.9189,2.9635,3.0552,3.1928,3.2656,3.2791,3.3476,3.3807,3.3807,3.3807,3.3807,3.3807,3.3807,3.3807,3.3768,3.3419,3.3288,3.3258,3.2848,3.2665,3.2608,3.2608,3.2558,3.2501,2.8911,2.897,2.8999,2.8999,2.8999,2.8999,2.8999,2.8999,2.8999,2.8999,2.8999,2.8999,2.8999,2.8999,2.8999,2.8999,2.8999,2.8999,2.8999,2.8999,2.8999,2.8999,2.8999,2.8999,2.8999,2.8999,2.8964,2.8911,2.8565,2.8407,2.8407,2.8465,2.849,2.8521,2.8851,2.8999,2.8999,2.8999,2.8999,2.8999,2.8999,2.8999,2.8999,2.8999,2.8999,2.8999,2.8999,2.8999,2.8999,2.8999,2.8999,2.8999,2.8999,2.8999,2.8999,2.8999,2.8999,2.8999,2.8999,2.8999,2.8999,2.8999,2.8999,2.8999,2.8999,2.8999,2.8999,2.8999,2.8999,2.8999,2.8999,2.8999,2.8999,2.8999,2.8999,2.8999,2.8999,0.0,2.8999,2.8999,2.8999,2.8999,2.8999,2.8999,2.8999,2.8999,2.8999,2.8999,2.8999,2.8999,2.9317,2.9983,3.0002,3.0736,3.2204,3.2479,3.2938,3.3623,3.3733,3.3807,3.3807,3.3807,3.3807,3.3807,3.3807,3.3807,3.3807,3.3728,3.3707,3.37,3.362,3.339,3.3083,3.3083,3.2832,3.2501,2.8999,2.8999,2.8999,2.8999,2.8999,2.8999,2.8999,2.8999,2.8999,2.8999,2.8999,2.8999,2.8999,2.8999,2.8999,2.8999,2.8999,2.8999,2.8999,2.8999,2.8999,2.8999,2.8999,2.8999,2.8999,2.8999,2.8999,2.8999,2.8803,2.8713,2.8713,2.8713,2.8713,2.8737,2.8917,2.8999,2.8999,2.8999,2.8999,2.8999,2.8999,2.8999,2.8999,2.8999,2.8999,2.8999,2.8999,2.8999,2.8999,2.8999,2.8999,2.8999,2.8999,2.8999,2.8999,2.8999,2.8999,2.8999,2.8999,2.8999,2.8999,2.8999,2.8999,2.8999,2.8999,2.8999,2.8999,2.8999,2.8999,2.8999,2.8999,2.8999,2.8999,2.8999,2.8999,2.8999,2.8999,2.8999,2.8999,2.8999,2.8999,2.8999,2.8999,2.8999,2.8999,2.8999,2.8999,2.9055,2.9216,2.9483,2.9944,3.0604,3.1192,3.1855,3.2583,3.3029,3.3433,3.3807,3.3807,3.3807,3.3807,3.3807,3.3807,3.3807,3.3807,3.3807,3.3807,3.3807,3.3807,3.3807,3.3807,3.3694,3.3522,3.3522,3.339,3.3203,2.8857,2.8934,2.8999,2.8999,2.8999,2.8999,2.8999,2.8999,2.8999,2.8999,2.8999,2.8999,2.8999,2.8999,2.8999,2.8999,2.8999,2.8999,2.8999,2.8999,2.8999,2.8999,2.8999,2.8999,2.8999,2.8999,2.8999,2.8999,2.8999,2.8999,2.8999,2.8999,2.8999,2.8999,2.8999,2.8999,2.8999,2.8999,2.8999,2.8999,2.8999,2.8999,2.8999,2.8999,2.8999,2.8999,2.8999,2.8999,2.8999,2.8999,2.8999,2.8999,2.8999,2.8999,2.8999,2.8999,2.8999,2.8999,2.8999,2.8999,2.8999,2.8999,2.8999,2.8999,2.8999,2.8999,2.8999,2.8999,2.8999,2.8999,2.8999,2.8999,2.8999,2.8999,0.0,2.8999,2.8999,2.8999,2.8999,2.8999,2.8999,2.8999,2.8999,2.8999,2.9034,2.9089,2.9266,2.9497,2.9754,3.0341,3.094,3.1543,3.2301,3.2778,3.2968,3.3516,3.3807,3.3807,3.3807,3.3807,3.3807,3.3807,3.3807,3.3807,3.3807,3.3807,3.3807,3.3807,3.3807,3.3807,3.3807,3.3807,3.3807,3.3807,3.3807,3.3807,2.8446,2.8749,2.8999,2.8999,2.8999,2.8999,2.8999,2.8999,2.8999,2.8999,2.8999,2.8999,2.8999,2.8999,2.8999,2.8999,2.8999,2.8999,2.8999,2.8999,2.8999,2.8999,2.8999,2.8999,2.8999,2.8999,2.8999,2.8999,2.8999,2.8999,2.8999,2.8999,2.8999,2.8999,2.8999,2.8999,2.8999,2.8999,2.8999,2.8999,2.8999,2.8999,2.8999,2.8999,2.8999,2.8999,2.8999,2.8999,2.8999,2.8999,2.8999,2.8999,2.8999,2.8999,2.8999,2.8999,2.8999,2.8999,2.8999,2.8999,2.8999,2.8999,2.8999,2.8999,2.8999,2.8999,2.8999,2.8999,2.8999,2.8999,2.8999,2.8999,2.8999,2.8999,0.0,0.0,2.8999,2.8999,2.8999,2.8999,2.8999,2.8999,2.8999,2.8999,2.91,2.9351,3.0054,3.0597,3.087,3.1638,3.2402,3.32,3.3064,3.3327,3.4065,3.3898,3.3807,3.3807,3.3807,3.3807,3.3807,3.3807,3.3807,3.3807,3.3807,3.3807,3.3807,3.3807,3.3807,3.3807,3.3807,3.3807,3.3807,3.3807,3.3807,3.3807,2.8407,2.8713,2.8999,2.8999,2.8999,2.8999,2.8999,2.8999,2.8999,2.8999,2.8999,2.8999,2.8999,2.8999,2.8999,2.8999,2.8999,2.8999,2.8999,2.8999,2.8999,2.8999,2.8999,2.8999,2.8999,2.8999,2.8999,2.8999,2.8999,2.8999,2.8999,2.8999,2.8999,2.8999,2.8999,2.8999,2.8999,2.8999,2.8999,2.8999,2.8999,2.8999,2.8999,2.8999,2.8999,2.9028,2.92,2.9246,2.9273,2.9382,2.9441,2.9441,2.9441,2.9441,2.9441,2.9441,2.9441,2.9441,2.9441,2.9228,2.8999,2.8999,2.8999,2.8999,2.8999,2.8999,2.8999,2.8999,2.8999,2.8999,2.8999,2.8999,2.8999,2.8999,0.0,2.8999,2.8999,2.8999,2.8999,2.8999,2.8999,2.8999,2.8999,2.9156,2.9503,3.0098,3.0587,3.1185,3.195,3.2909,3.3749,3.444,3.4358,3.4269,3.42,3.4092,3.3967,3.3807,3.3807,3.3807,3.3807,3.3807,3.3807,3.3807,3.3807,3.3807,3.3807,3.3807,3.3807,3.3807,3.3807,3.3807,3.3807,3.3807,3.3807,3.3807,2.8407,2.8713,2.8999,2.8999,2.8999,2.8999,2.8999,2.8999,2.8999,2.8999,2.8999,2.8999,2.8999,2.8999,2.8999,2.8999,2.8999,2.8999,2.8999,2.8999,2.8999,2.8999,2.8999,2.9051,2.9123,2.9033,2.9078,2.9228,2.9078,2.9033,2.9123,2.9051,2.8999,2.8999,2.8999,2.8999,2.8999,2.8999,2.8999,2.8999,2.8999,2.8999,2.8999,2.8999,2.8999,2.901,2.9203,2.9273,2.9315,2.9528,2.9612,2.9626,2.9678,2.9705,2.9705,2.9705,2.9705,2.9705,2.9705,2.9456,2.9206,2.9132,2.9128,2.9128,2.9128,2.9128,2.9138,2.9206,2.9171,2.9138,2.9212,2.9228,2.9228,2.9228,2.9228,2.9195,2.9121,2.9128,2.9095,2.9011,2.8999,2.8999,2.8999,2.9394,2.9914,3.0546,3.1317,3.2262,3.3456,3.4218,3.4794,3.5207,3.5223,3.4984,3.4481,3.4292,3.4105,3.3916,3.3842,3.3807,3.3807,3.3807,3.3807,3.3807,3.3807,3.3807,3.3807,3.3807,3.3807,3.3807,3.3807,3.3807,3.3807,3.3807,3.3807,3.3807,2.8407,2.8713,2.8999,2.8999,2.8999,2.8999,2.8999,2.8999,2.8999,2.8999,2.8999,2.8999,2.8999,2.8999,2.8999,2.8999,2.9005,2.9005,2.9011,2.9005,2.9005,2.9011,2.9005,2.9123,2.9392,2.9139,2.9238,2.97,2.9238,2.9145,2.9402,2.9134,2.9011,2.9005,2.9005,2.9005,2.8999,2.8999,2.8999,2.8999,2.8999,2.8999,2.8999,2.8999,2.8999,2.9005,2.9011,2.9011,2.9038,2.932,2.9412,2.9439,2.9634,2.9709,2.9709,2.9709,2.9709,2.9709,2.9709,2.9705,2.9647,2.9454,2.9407,2.9407,2.9407,2.9407,2.9464,2.9656,2.9551,2.9469,2.9661,2.9705,2.9705,2.9705,2.9705,2.962,2.9424,2.9407,2.9304,2.9045,2.9011,2.9011,2.9005,2.9732,3.0327,3.0591,3.2351,3.4021,3.5425,3.55,3.55,3.55,3.55,3.5372,3.5105,3.4502,3.42,3.4194,3.3923,3.3795,3.3795,3.3807,3.3807,3.3807,3.3807,3.3807,3.3807,3.3807,3.3807,3.3807,3.3807,3.3807,3.3807,3.3807,3.3807,3.3807,2.8407,2.8713,2.8999,2.8999,2.8999,2.8999,2.8999,2.8999,2.8999,2.8999,2.8999,2.8999,2.8999,2.8999,2.8999,2.8999,2.916,2.9343,2.9471,2.9368,2.9348,2.9494,2.9174,2.9045,2.9117,2.9051,2.9154,2.9484,2.9343,2.938,2.9616,2.9537,2.9425,2.9278,2.9278,2.9184,2.8999,2.8999,2.8999,2.8999,2.8999,2.8999,2.8999,2.8999,2.9117,2.9304,2.9436,2.9579,2.9736,3.0007,3.0092,3.0103,3.0178,3.0195,3.0195,3.0195,3.0195,3.0195,3.0195,3.004,2.9865,2.9656,2.9616,2.9616,2.9616,2.9616,2.9635,2.9687,2.9647,2.9639,2.9692,2.9705,2.9705,2.9705,2.9705,2.9678,2.9626,2.9616,2.9589,2.9495,2.9485,2.9431,2.9299,3.0307,3.118,3.1685,3.3682,3.5063,3.5474,3.55,3.55,3.55,3.55,3.5453,3.538,3.5025,3.474,3.4545,3.4224,3.4086,3.4062,3.3883,3.3807,3.3807,3.3807,3.3807,3.3807,3.3807,3.3807,3.3807,3.3807,3.3807,3.3807,3.3807,3.3807,3.3807,2.8639,2.8839,2.8999,2.8999,2.8999,2.8999,2.8999,2.8999,2.8999,2.8999,2.8999,2.8999,2.8999,2.8999,2.9033,2.9151,2.9389,2.9566,2.9692,2.9589,2.957,2.9696,2.9431,2.9278,2.9278,2.9203,2.9289,2.9523,2.9439,2.9499,2.9705,2.9705,2.9644,2.9523,2.9523,2.943,2.9278,2.9278,2.9278,2.9278,2.9278,2.9278,2.9278,2.9278,2.938,2.9523,2.9652,2.9771,2.9916,3.0169,3.0311,3.0404,3.0404,3.0404,3.0404,3.0404,3.0404,3.0404,3.0404,3.0273,3.0126,3.0011,2.99,2.9817,2.9817,2.9817,2.9841,2.9966,2.9896,2.9845,2.9966,2.9981,2.9981,2.9981,2.9981,2.9935,2.9829,2.9817,2.9784,2.9713,2.9705,2.9784,3.0006,3.1017,3.213,3.3257,3.4594,3.5383,3.5497,3.55,3.55,3.55,3.55,3.55,3.55,3.5346,3.5122,3.4846,3.4556,3.4396,3.4385,3.4093,3.3955,3.3948,3.3848,3.3807,3.3807,3.3807,3.3807,3.3807,3.3807,3.3807,3.3807,3.3807,3.3807,3.3807,2.8999,2.8999,2.8999,2.8999,2.8999,2.8999,2.8999,2.8999,2.8999,2.8999,2.8999,2.9011,2.9021,2.9045,2.9151,2.9399,2.9616,2.9744,2.9765,2.9744,2.9744,2.9765,2.9744,2.9735,2.9735,2.9537,2.9528,2.9735,2.9533,2.957,2.9765,2.9765,2.9752,2.9735,2.9735,2.9722,2.9705,2.9705,2.9705,2.9705,2.9705,2.9705,2.9705,2.9705,2.9718,2.9735,2.9735,2.9748,2.9794,2.9969,3.0199,3.0404,3.0404,3.0404,3.0404,3.0404,3.0404,3.0404,3.0404,3.0404,3.0404,3.0404,3.0212,3.0047,3.0047,3.0047,3.0115,3.0355,3.0206,3.01,3.0358,3.0404,3.0404,3.0404,3.0404,3.0314,3.0072,3.0047,2.9962,2.979,2.9765,3.0105,3.0941,3.1839,3.3126,3.4984,3.513,3.5235,3.549,3.55,3.55,3.55,3.55,3.55,3.55,3.55,3.5376,3.5126,3.4851,3.4748,3.4719,3.4396,3.4223,3.4201,3.3935,3.3815,3.3807,3.3807,3.3807,3.3807,3.3807,3.3807,3.3807,3.3807,3.3807,3.3807,2.8999,2.8999,2.8999,2.8999,2.8999,2.8999,2.8999,2.8999,2.8999,2.8999,2.8999,2.9078,2.9289,2.9315,2.9404,2.9626,2.9817,3.0025,3.0228,3.0043,3.0029,3.0231,3.0043,2.9939,2.9939,2.9748,2.972,2.9939,2.9893,2.9996,3.0257,3.0257,3.0145,2.9939,2.9939,2.9849,2.9705,2.9705,2.9705,2.9705,2.9705,2.9705,2.9705,2.9705,2.9796,2.9939,2.9939,3.0077,3.0244,3.0299,3.0355,3.0404,3.0404,3.0404,3.0404,3.0404,3.0404,3.0404,3.0404,3.0404,3.0404,3.0404,3.0358,3.0311,3.0311,3.0311,3.0323,3.0395,3.0355,3.0323,3.0398,3.0404,3.0404,3.0404,3.0404,3.0373,3.0317,3.0311,3.0299,3.0241,3.0257,3.0513,3.1173,3.2582,3.4005,3.5314,3.5402,3.5439,3.5497,3.55,3.55,3.55,3.55,3.55,3.55,3.55,3.546,3.5417,3.5134,3.5008,3.4999,3.4729,3.4445,3.4194,3.4141,3.3981,3.3807,3.3807,3.3807,3.3807,3.3807,3.3807,3.3807,3.3807,3.3807,3.3807,2.8999,2.8999,2.8999,2.8999,2.8999,2.8999,2.8999,2.8999,2.9057,2.9165,2.9181,2.927,2.9523,2.9533,2.9611,2.9825,3.007,3.0254,3.0398,3.0264,3.0254,3.0398,3.0264,3.0196,3.0196,3.008,2.9988,2.9857,2.9958,3.0075,3.0209,3.0349,3.0339,3.0196,3.0196,3.0122,3.003,3.003,3.003,3.003,3.003,3.003,3.003,3.003,3.0091,3.0196,3.0196,3.0273,3.0404,3.0404,3.0404,3.0404,3.0404,3.0404,3.0404,3.0404,3.0404,3.0404,3.0404,3.0404,3.0404,3.0404,3.0404,3.0404,3.0404,3.0404,3.0404,3.0404,3.0404,3.0404,3.0404,3.0404,3.0404,3.0404,3.0404,3.0404,3.0404,3.0404,3.0404,3.0404,3.0404,3.0832,3.1959,3.3607,3.4855,3.5455,3.55,3.55,3.55,3.55,3.55,3.55,3.55,3.55,3.55,3.55,3.55,3.55,3.5361,3.5293,3.5285,3.5008,3.4803,3.4621,3.4327,3.4117,3.3986,3.3862,3.3807,3.3807,3.3807,3.3807,3.3807,3.3807,3.3807,3.3807,2.8999,2.8999,2.8999,2.8999,2.8999,2.8999,2.8999,2.9051,2.9134,2.931,2.9394,2.9513,2.9683,2.9773,2.9892,3.0058,3.0267,3.0404,3.0404,3.0404,3.0404,3.0404,3.0404,3.0404,3.0404,3.0404,3.0208,2.9819,2.9992,3.0072,3.0075,3.0302,3.0404,3.0404,3.0404,3.0404,3.0404,3.0404,3.0404,3.0404,3.0404,3.0404,3.0404,3.0404,3.0404,3.0404,3.0404,3.0404,3.0404,3.0404,3.0404,3.0404,3.0404,3.0404,3.0404,3.0404,3.0404,3.0404,3.0404,3.0404,3.0404,3.0404,3.0404,3.0404,3.0404,3.0404,3.0404,3.0404,3.0404,3.0404,3.0404,3.0404,3.0404,3.0404,3.0404,3.0404,3.0404,3.0404,3.0404,3.0404,3.0654,3.1368,3.2776,3.4484,3.55,3.55,3.55,3.55,3.55,3.55,3.55,3.55,3.55,3.55,3.55,3.55,3.55,3.55,3.55,3.55,3.5493,3.5277,3.5138,3.506,3.456,3.4327,3.4277,3.4049,3.3915,3.3863,3.3863,3.3842,3.3807,3.3807,3.3807,3.3807,2.8999,2.8999,2.8999,2.8999,2.8999,2.8999,2.8999,2.9205,2.9273,2.9078,2.9402,2.967,2.97,3.0055,3.0327,3.0349,3.037,3.0404,3.0404,3.0404,3.0404,3.0404,3.0404,3.0404,3.0404,3.0404,3.0364,3.0318,3.032,3.0352,3.0352,3.0373,3.0404,3.0404,3.0404,3.0404,3.0404,3.0404,3.0404,3.0404,3.0404,3.0404,3.0404,3.0404,3.0404,3.0404,3.0404,3.0404,3.0404,3.0404,3.0404,3.0404,3.0404,3.0404,3.0404,3.0404,3.0404,3.0404,3.0404,3.0404,3.0404,3.0404,3.0404,3.0404,3.0404,3.0404,3.0404,3.0404,3.0404,3.0404,3.0404,3.0404,3.0404,3.0404,3.0404,3.0404,3.0404,3.0404,3.0404,3.0404,3.1676,3.2641,3.2872,3.4484,3.55,3.55,3.55,3.55,3.55,3.55,3.55,3.55,3.55,3.55,3.55,3.55,3.55,3.55,3.55,3.55,3.55,3.5456,3.5312,3.5096,3.5016,3.4851,3.4632,3.4596,3.4414,3.4153,3.4153,3.4,3.3807,3.3807,3.3807,3.3807,2.8999,2.8999,2.8999,2.8999,2.8999,2.8999,2.8999,2.91,2.9194,2.9214,2.9395,2.9626,2.9841,3.0198,3.0404,3.0404,3.0404,3.0404,3.0404,3.0404,3.0404,3.0404,3.0404,3.0404,3.0404,3.0404,3.0404,3.0404,3.0404,3.0404,3.0404,3.0404,3.0404,3.0404,3.0404,3.0404,3.0404,3.0404,3.0404,3.0404,3.0404,3.0404,3.0404,3.0404,3.0404,3.0404,3.0404,3.0404,3.0404,3.0404,3.0404,3.0404,3.0404,3.0404,3.0404,3.0404,3.0404,3.0404,3.0404,3.0404,3.0404,3.0404,3.0404,3.0404,3.0404,3.0404,3.0404,3.0404,3.0404,3.0404,3.0404,3.0404,3.0404,3.0404,3.0404,3.0404,3.0404,3.0404,3.0577,3.108,3.2179,3.3083,3.3587,3.4753,3.55,3.55,3.55,3.55,3.55,3.55,3.55,3.55,3.55,3.55,3.55,3.55,3.55,3.55,3.55,3.55,3.55,3.55,3.5435,3.5312,3.5174,3.5025,3.4917,3.4754,3.4603,3.4486,3.4486,3.4409,3.4267,3.3915,3.3896,3.3993]},{"header":{"parameterUnit":"m.s-1","parameterCategory":1,"la1":30.6,"la2":28.766,"lo1":-90.7593,"lo2":-88.6598,"dy":0.0162,"dx":0.0183,"nx":116,"ny":114,"refTime":"2023-09-11T06:00:00:Z","depth":0,"parameterNumber":3,"parameterNumberName":"V-component_of_WINDS"},"data":[0.0,0.0,0.0,0.0,0.0,0.0,0.0,0.0,0.0,0.0,0.0,0.0,0.0,0.0,0.0,0.0,0.0,0.0,0.0,0.0,0.0,0.0,0.0,0.0,0.0,0.0,0.0,0.0,0.0,0.0,0.0,0.0,0.0,0.0,0.0,0.0,0.0,0.0,0.0,0.0,0.0,0.0,0.0,0.0,0.0,0.0,0.0,0.0,0.0,0.0,0.0,0.0,0.0,0.0,0.0,0.0,0.0,0.0,0.0,0.0,0.0,0.0,0.0,0.0,0.0,0.0,0.0,0.0,0.0,0.0,0.0,0.0,0.0,0.0,0.0,0.0,0.0,0.0,0.0,0.0,0.0,0.0,0.0,0.0,0.0,0.0,0.0,0.0,0.0,0.0,0.0,0.0,0.0,0.0,0.0,0.0,0.0,0.0,0.0,0.0,0.0,0.0,0.0,0.0,0.0,0.0,0.0,0.0,0.0,0.0,0.0,0.0,0.0,0.0,0.0,0.0,0.0,0.0,0.0,0.0,0.0,0.0,0.0,0.0,0.0,0.0,0.0,0.0,0.0,0.0,0.0,0.0,0.0,0.0,0.0,0.0,0.0,0.0,0.0,0.0,0.0,0.0,0.0,0.0,0.0,0.0,0.0,0.0,0.0,0.0,0.0,0.0,0.0,0.0,0.0,0.0,0.0,0.0,0.0,0.0,0.0,0.0,0.0,0.0,0.0,0.0,0.0,0.0,0.0,0.0,0.0,0.0,0.0,0.0,0.0,0.0,0.0,0.0,0.0,0.0,0.0,0.0,0.0,0.0,0.0,0.0,0.0,0.0,0.0,0.0,0.0,0.0,0.0,0.0,0.0,0.0,0.0,0.0,0.0,0.0,0.0,0.0,0.0,0.0,0.0,0.0,0.0,0.0,0.0,0.0,0.0,0.0,0.0,0.0,0.0,0.0,0.0,0.0,0.0,0.0,0.0,0.0,0.0,0.0,0.0,0.0,0.0,0.0,0.0,0.0,0.0,0.0,0.0,0.0,0.0,0.0,0.0,0.0,0.0,0.0,0.0,0.0,0.0,0.0,0.0,0.0,0.0,0.0,0.0,0.0,0.0,0.0,0.0,0.0,0.0,0.0,0.0,0.0,0.0,0.0,0.0,0.0,0.0,0.0,0.0,0.0,0.0,0.0,0.0,0.0,0.0,0.0,0.0,0.0,0.0,0.0,0.0,0.0,0.0,0.0,0.0,0.0,0.0,0.0,0.0,0.0,0.0,0.0,0.0,0.0,0.0,0.0,0.0,0.0,0.0,0.0,0.0,0.0,0.0,0.0,0.0,0.0,0.0,0.0,0.0,0.0,0.0,0.0,0.0,0.0,0.0,0.0,0.0,0.0,0.0,0.0,0.0,0.0,0.0,0.0,0.0,0.0,0.0,0.0,0.0,0.0,0.0,0.0,0.0,0.0,0.0,0.0,0.0,0.0,0.0,0.0,0.0,0.0,0.0,0.0,0.0,0.0,0.0,0.0,0.0,0.0,0.0,0.0,0.0,0.0,0.0,0.0,0.0,0.0,0.0,0.0,0.0,0.0,0.0,0.0,0.0,0.0,0.0,0.0,0.0,0.0,0.0,0.0,0.0,0.0,0.0,0.0,0.0,0.0,0.0,0.0,0.0,0.0,0.0,0.0,0.0,0.0,0.0,0.0,0.0,0.0,0.0,0.0,0.0,0.0,0.0,0.0,0.0,0.0,0.0,0.0,0.0,0.0,0.0,0.0,0.0,0.0,0.0,0.0,0.0,0.0,0.0,0.0,0.0,0.0,0.0,0.0,0.0,0.0,0.0,0.0,0.0,0.0,0.0,0.0,0.0,0.0,0.0,0.0,0.0,0.0,0.0,0.0,0.0,0.0,0.0,0.0,0.0,0.0,0.0,0.0,0.0,0.0,0.0,0.0,0.0,0.0,0.0,0.0,0.0,0.0,0.0,0.0,0.0,0.0,0.0,0.0,0.0,0.0,0.0,0.0,0.0,0.0,0.0,0.0,0.0,0.0,0.0,0.0,0.0,0.0,0.0,0.0,0.0,0.0,0.0,0.0,0.0,0.0,0.0,0.0,0.0,0.0,0.0,0.0,0.0,0.0,0.0,0.0,0.0,0.0,0.0,0.0,0.0,0.0,0.0,0.0,0.0,0.0,0.0,0.0,0.0,0.0,0.0,0.0,0.0,0.0,0.0,0.0,0.0,0.0,0.0,0.0,0.0,0.0,0.0,0.0,0.0,0.0,0.0,0.0,0.0,0.0,0.0,0.0,0.0,0.0,0.0,0.0,0.0,0.0,0.0,0.0,0.0,0.0,0.0,0.0,0.0,0.0,0.0,0.0,0.0,0.0,0.0,0.0,0.0,0.0,0.0,0.0,0.0,0.0,0.0,0.0,0.0,0.0,0.0,0.0,0.0,0.0,0.0,0.0,0.0,0.0,0.0,0.0,0.0,0.0,0.0,0.0,0.0,0.0,0.0,0.0,0.0,0.0,0.0,0.0,0.0,0.0,0.0,0.0,0.0,0.0,0.0,0.0,0.0,0.0,0.0,0.0,0.0,0.0,0.0,0.0,0.0,0.0,0.0,0.0,0.0,0.0,0.0,0.0,0.0,0.0,0.0,0.0,0.0,0.0,0.0,0.0,0.0,0.0,0.0,0.0,0.0,0.0,0.0,0.0,0.0,0.0,0.0,0.0,0.0,0.0,0.0,0.0,0.0,0.0,0.0,0.0,0.0,0.0,0.0,0.0,0.0,0.0,0.0,0.0,0.0,0.0,0.0,0.0,0.0,0.0,0.0,0.0,0.0,0.0,0.0,0.0,0.0,0.0,0.0,0.0,0.0,0.0,0.0,0.0,0.0,0.0,0.0,0.0,0.0,0.0,0.0,0.0,0.0,0.0,0.0,0.0,0.0,0.0,0.0,0.0,0.0,0.0,0.0,0.0,0.0,0.0,0.0,0.0,0.0,0.0,0.0,0.0,0.0,0.0,0.0,0.0,0.0,0.0,0.0,0.0,0.0,0.0,0.0,0.0,0.0,0.0,0.0,0.0,0.0,0.0,0.0,0.0,0.0,0.0,0.0,0.0,0.0,0.0,0.0,0.0,0.0,0.0,0.0,0.0,0.0,0.0,0.0,0.0,0.0,0.0,0.0,0.0,0.0,0.0,0.0,0.0,0.0,0.0,0.0,0.0,0.0,0.0,0.0,0.0,0.0,0.0,0.0,0.0,0.0,0.0,0.0,0.0,0.0,0.0,0.0,0.0,0.0,0.0,0.0,0.0,0.0,0.0,0.0,0.0,0.0,0.0,0.0,0.0,0.0,0.0,0.0,0.0,0.0,0.0,0.0,0.0,0.0,0.0,0.0,0.0,0.0,0.0,0.0,0.0,0.0,0.0,0.0,0.0,0.0,0.0,0.0,0.0,0.0,0.0,0.0,0.0,0.0,0.0,0.0,0.0,0.0,0.0,0.0,0.0,0.0,0.0,0.0,0.0,0.0,0.0,0.0,0.0,0.0,0.0,0.0,0.0,0.0,0.0,0.0,0.0,0.0,0.0,0.0,0.0,0.0,0.0,0.0,0.0,0.0,0.0,0.0,0.0,0.0,0.0,0.0,0.0,0.0,0.0,0.0,0.0,0.0,0.0,0.0,0.0,0.0,0.0,0.0,0.0,0.0,0.0,0.0,0.0,0.0,0.0,0.0,0.0,0.0,0.0,0.0,0.0,0.0,0.0,0.0,0.0,0.0,0.0,0.0,0.0,0.0,0.0,0.0,0.0,0.0,0.0,0.0,0.0,0.0,0.0,0.0,0.0,0.0,0.0,0.0,0.0,0.0,0.0,0.0,0.0,0.0,0.0,0.0,0.0,0.0,0.0,0.0,0.0,0.0,0.0,0.0,0.0,0.0,0.0,0.0,0.0,0.0,0.0,0.0,0.0,0.0,0.0,0.0,0.0,0.0,0.0,0.0,0.0,0.0,0.0,0.0,0.0,0.0,0.0,0.0,0.0,0.0,0.0,0.0,0.0,0.0,0.0,0.0,0.0,0.0,0.0,0.0,0.0,0.0,0.0,0.0,0.0,0.0,0.0,0.0,0.0,0.0,0.0,0.0,0.0,0.0,0.0,0.0,0.0,0.0,0.0,0.0,0.0,0.0,0.0,0.0,0.0,0.0,0.0,0.0,0.0,0.0,0.0,0.0,0.0,0.0,0.0,0.0,0.0,0.0,0.0,0.0,0.0,0.0,0.0,0.0,0.0,0.0,0.0,0.0,0.0,0.0,0.0,0.0,0.0,0.0,0.0,0.0,0.0,0.0,0.0,0.0,0.0,0.0,0.0,0.0,0.0,0.0,0.0,0.0,0.0,0.0,0.0,0.0,0.0,0.0,0.0,0.0,0.0,0.0,0.0,0.0,0.0,0.0,0.0,0.0,0.0,0.0,0.0,0.0,0.0,0.0,0.0,0.0,0.0,0.0,0.0,0.0,0.0,0.0,0.0,0.0,0.0,0.0,0.0,0.0,0.0,0.0,0.0,0.0,0.0,0.0,0.0,0.0,0.0,0.0,0.0,0.0,0.0,0.0,0.0,0.0,0.0,0.0,0.0,0.0,0.0,0.0,0.0,0.0,0.0,0.0,0.0,0.0,0.0,0.0,0.0,0.0,0.0,0.0,0.0,0.0,0.0,0.0,0.0,0.0,0.0,0.0,0.0,0.0,0.0,0.0,0.0,0.0,0.0,0.0,0.0,0.0,0.0,0.0,0.0,0.0,0.0,0.0,0.0,0.0,0.0,0.0,0.0,0.0,0.0,0.0,0.0,0.0,0.0,0.0,0.0,0.0,0.0,0.0,0.0,0.0,0.0,0.0,0.0,0.0,0.0,0.0,0.0,0.0,0.0,0.0,0.0,0.0,0.0,0.0,0.0,0.0,0.0,0.0,0.0,0.0,0.0,0.0,0.0,0.0,0.0,0.0,0.0,0.0,0.0,0.0,0.0,0.0,0.0,0.0,0.0,0.0,0.0,0.0,0.0,0.0,0.0,0.0,0.0,0.0,0.0,0.0,0.0,0.0,0.0,0.0,0.0,0.0,0.0,0.0,0.0,0.0,0.0,0.0,0.0,0.0,0.0,0.0,0.0,0.0,0.0,0.0,0.0,0.0,0.0,0.0,0.0,0.0,0.0,0.0,0.0,0.0,0.0,0.0,0.0,0.0,0.0,0.0,0.0,0.0,0.0,0.0,0.0,0.0,0.0,0.0,0.0,0.0,0.0,0.0,0.0,0.0,0.0,0.0,0.0,0.0,0.0,0.0,0.0,0.0,0.0,0.0,0.0,0.0,0.0,0.0,0.0,0.0,0.0,0.0,0.0,0.0,0.0,0.0,0.0,0.0,0.0,0.0,0.0,0.0,0.0,0.0,0.0,0.0,0.0,0.0,0.0,0.0,0.0,0.0,0.0,0.0,0.0,0.0,0.0,0.0,0.0,0.0,0.0,0.0,0.0,0.0,0.0,0.0,0.0,0.0,0.0,0.0,0.0,0.0,0.0,0.0,0.0,0.0,0.0,0.0,0.0,0.0,0.0,0.0,0.0,0.0,0.0,0.0,0.0,0.0,0.0,0.0,0.0,0.0,0.0,0.0,0.0,0.0,0.0,0.0,0.0,0.0,0.0,0.0,0.0,0.0,0.0,0.0,0.0,0.0,0.0,0.0,0.0,0.0,0.0,0.0,0.0,0.0,0.0,0.0,0.0,0.0,0.0,0.0,0.0,0.0,0.0,0.0,0.0,0.0,0.0,0.0,0.0,0.0,0.0,0.0,0.0,0.0,0.0,0.0,0.0,0.0,0.0,0.0,0.0,0.0,0.0,0.0,0.0,0.0,0.0,0.0,0.0,0.0,0.0,0.0,0.0,0.0,0.0,0.0,0.0,0.0,0.0,0.0,0.0,0.0,0.0,0.0,0.0,0.0,0.0,0.0,0.0,0.0,0.0,0.0,0.0,0.0,0.0,0.0,0.0,0.0,0.0,0.0,0.0,0.0,0.0,0.0,0.0,0.0,0.0,0.0,0.0,0.0,0.0,0.0,0.0,1.5519,0.0,0.0,0.0,0.0,0.0,0.0,0.0,0.0,0.0,0.0,0.0,0.0,0.0,0.0,0.0,0.0,0.0,0.0,0.0,0.0,0.0,0.0,0.0,0.0,0.0,0.0,0.0,0.0,0.0,0.0,0.0,0.0,0.0,0.0,0.0,0.0,0.0,0.0,0.0,0.0,0.0,0.0,0.0,0.0,0.0,0.0,0.0,0.0,0.0,0.0,0.0,0.0,0.0,0.0,0.0,0.0,0.0,0.0,0.0,0.0,0.0,0.0,0.0,0.0,0.0,0.0,0.0,0.0,0.0,0.0,0.0,0.0,0.0,0.0,0.0,0.0,0.0,0.0,0.0,0.0,0.0,0.0,0.0,0.0,0.0,0.0,0.0,0.0,0.0,0.0,0.0,0.0,0.0,0.0,0.0,0.0,0.0,0.0,0.0,0.0,0.0,0.0,0.0,0.0,0.0,0.0,0.0,0.0,0.0,0.0,0.0,0.0,0.0,0.0,0.0,0.0,1.6015,0.0,0.0,0.0,0.0,0.0,0.0,0.0,0.0,0.0,0.0,0.0,0.0,0.0,0.0,0.0,0.0,0.0,0.0,0.0,0.0,0.0,0.0,0.0,0.0,0.0,0.0,0.0,0.0,0.0,0.0,0.0,0.0,0.0,0.0,0.0,0.0,0.0,0.0,0.0,0.0,0.0,0.0,0.0,0.0,0.0,0.0,0.0,0.0,0.0,0.0,0.0,0.0,0.0,0.0,0.0,0.0,0.0,0.0,0.0,0.0,0.0,0.0,0.0,0.0,0.0,0.0,0.0,0.0,0.0,0.0,0.0,0.0,0.0,0.0,0.0,0.0,0.0,0.0,0.0,0.0,0.0,0.0,0.0,0.0,0.0,0.0,0.0,0.0,0.0,0.0,0.0,0.0,0.0,0.0,0.0,0.0,0.0,0.0,0.0,0.0,0.0,0.0,0.0,0.0,0.0,0.0,0.0,0.0,1.6775,1.6853,1.6931,1.6999,1.7077,1.7145,1.7145,1.698,1.6697,1.6697,0.0,0.0,0.0,0.0,0.0,0.0,0.0,0.0,0.0,0.0,0.0,0.0,0.0,0.0,0.0,0.0,0.0,0.0,0.0,0.0,0.0,0.0,0.0,0.0,0.0,0.0,0.0,0.0,0.0,0.0,0.0,0.0,0.0,0.0,0.0,0.0,0.0,0.0,1.7286,1.7683,1.8183,1.8708,1.6727,0.0,0.0,0.0,0.0,0.0,0.0,0.0,0.0,0.0,0.0,0.0,0.0,0.0,0.0,0.0,0.0,0.0,0.0,0.0,0.0,0.0,0.0,0.0,0.0,0.0,0.0,0.0,0.0,0.0,0.0,0.0,0.0,0.0,0.0,0.0,0.0,0.0,0.0,0.0,0.0,0.0,0.0,0.0,1.5279,1.5381,0.0,0.0,0.0,0.0,0.0,0.0,0.0,0.0,0.0,0.0,0.0,0.0,0.0,1.6625,1.6625,1.6668,1.6697,1.6707,1.7119,1.749,1.7835,1.8178,1.8576,1.8955,1.8955,0.0,1.6697,1.6697,0.0,0.0,0.0,0.0,0.0,0.0,0.0,0.0,0.0,0.0,0.0,0.0,0.0,0.0,0.0,0.0,0.0,0.0,0.0,0.0,0.0,0.0,0.0,0.0,0.0,0.0,0.0,0.0,0.0,0.0,0.0,0.0,0.0,0.0,0.0,0.0,1.701,1.73,1.7852,1.8091,1.8493,1.8958,1.7934,1.7785,1.8278,1.7869,0.0,0.0,0.0,0.0,0.0,0.0,0.0,0.0,0.0,0.0,0.0,0.0,0.0,0.0,0.0,0.0,0.0,0.0,0.0,0.0,0.0,0.0,0.0,0.0,0.0,0.0,0.0,0.0,0.0,0.0,0.0,0.0,0.0,0.0,0.0,0.0,0.0,0.0,0.0,1.5396,1.5396,1.5396,1.5396,1.5508,0.0,0.0,0.0,0.0,0.0,0.0,0.0,0.0,0.0,1.6697,1.6957,1.72,1.7435,1.7652,1.7903,1.8157,1.8359,1.8562,1.874,1.8916,1.9102,1.9305,1.9305,1.8867,1.8127,1.7876,1.7633,1.7415,0.0,0.0,0.0,0.0,1.6697,1.6697,0.0,0.0,0.0,0.0,0.0,0.0,0.0,0.0,0.0,0.0,0.0,0.0,0.0,0.0,0.0,1.7717,0.0,0.0,0.0,0.0,0.0,0.0,0.0,0.0,0.0,0.0,0.0,1.741,1.7537,1.7877,1.8405,1.8555,1.8895,1.9434,1.9585,1.9698,1.976,1.9202,1.8978,0.0,0.0,0.0,0.0,0.0,0.0,0.0,0.0,0.0,0.0,0.0,0.0,0.0,0.0,0.0,0.0,0.0,0.0,0.0,0.0,0.0,0.0,0.0,0.0,0.0,0.0,0.0,0.0,0.0,0.0,0.0,0.0,0.0,0.0,0.0,0.0,0.0,0.0,1.5396,1.5435,1.5566,1.5576,1.5752,0.0,0.0,0.0,0.0,0.0,0.0,1.6879,1.6986,1.7077,1.7184,1.7646,1.8018,1.834,1.8635,1.9005,1.9443,1.9443,1.957,1.9785,1.9785,1.9844,1.997,1.997,1.9911,1.9736,1.9054,1.8605,1.8311,1.7988,1.7888,1.7849,1.7493,1.7376,1.7376,0.0,0.0,0.0,0.0,0.0,0.0,0.0,0.0,0.0,0.0,0.0,0.0,0.0,0.0,1.8826,1.8826,1.7867,1.726,0.0,0.0,0.0,0.0,0.0,0.0,0.0,0.0,0.0,1.741,1.7903,1.843,1.897,1.9484,2.0037,2.0629,2.1143,2.0791,1.9798,1.976,1.9747,1.9747,0.0,0.0,0.0,0.0,0.0,0.0,0.0,0.0,0.0,0.0,0.0,0.0,0.0,0.0,0.0,0.0,0.0,0.0,0.0,0.0,0.0,0.0,0.0,0.0,0.0,0.0,0.0,0.0,0.0,0.0,0.0,0.0,0.0,0.0,0.0,0.0,0.0,0.0,0.0,1.6007,1.6056,0.0,0.0,0.0,0.0,1.6697,1.6697,1.6882,1.735,1.7734,1.8108,1.849,1.8965,1.9217,1.9219,1.9248,1.9463,1.9864,1.9864,2.0303,2.1093,2.1093,2.1347,2.1778,2.1778,2.1523,2.1005,1.9775,1.9256,1.9219,1.9217,1.9208,1.9208,1.9188,1.9178,1.9178,0.0,0.0,0.0,0.0,0.0,0.0,0.0,0.0,0.0,0.0,0.0,0.0,0.0,1.9006,1.8902,1.8902,1.7927,1.7302,1.7302,0.0,0.0,0.0,0.0,0.0,0.0,0.0,1.7738,1.843,1.8982,1.9522,2.0113,2.064,2.1005,2.1218,2.1407,2.1268,2.0865,2.0527,2.0377,2.0352,1.9962,1.9798,0.0,0.0,0.0,0.0,0.0,0.0,0.0,0.0,0.0,0.0,0.0,0.0,0.0,0.0,0.0,0.0,0.0,0.0,0.0,0.0,0.0,0.0,0.0,0.0,0.0,0.0,0.0,0.0,0.0,0.0,0.0,0.0,0.0,0.0,0.0,0.0,0.0,1.6445,1.6494,0.0,1.7109,1.7148,1.7373,1.7886,1.7925,1.8137,1.8601,1.8768,1.9023,1.9425,1.9591,1.9961,2.0518,2.0518,2.0762,2.1182,2.1182,2.1348,2.165,2.165,2.1738,2.1905,2.1905,2.1817,2.1621,2.1152,2.0644,2.0136,2.0136,1.996,1.9697,1.9697,1.9521,1.9305,0.0,0.0,0.0,0.0,0.0,0.0,0.0,0.0,0.0,0.0,0.0,1.9566,1.9207,1.9169,1.9169,1.9169,1.8351,1.7767,1.7575,0.0,0.0,0.0,0.0,0.0,0.0,1.7751,1.838,1.9271,1.9823,2.0402,2.0981,2.152,2.1769,2.1782,2.1958,2.2046,2.2008,2.1469,2.1144,2.0918,2.0339,2.01,2.0049,0.0,0.0,0.0,0.0,0.0,0.0,0.0,0.0,0.0,0.0,0.0,0.0,0.0,0.0,0.0,0.0,0.0,0.0,0.0,0.0,0.0,0.0,0.0,0.0,0.0,0.0,0.0,0.0,0.0,0.0,0.0,0.0,0.0,0.0,0.0,1.6471,1.6888,1.7064,1.7318,1.7764,1.7956,1.8262,1.8801,1.8966,1.9181,1.9482,1.9775,2.0049,2.0332,2.0488,2.084,2.1425,2.1435,2.1649,2.21,2.21,2.2168,2.2305,2.2305,2.2305,2.2305,2.2305,2.2305,2.2305,2.2305,2.1963,2.1426,2.1143,2.0859,2.0576,2.0576,2.04,2.0185,0.0,0.0,0.0,0.0,0.0,0.0,0.0,0.0,0.0,0.0,1.9708,1.9708,1.9708,1.9708,1.9708,1.9708,1.9207,1.8669,1.8145,1.7622,0.0,0.0,0.0,0.0,1.7461,1.8481,1.9296,1.9823,2.0453,2.1018,2.1545,2.2069,2.232,2.2345,2.2869,2.3108,2.307,2.2558,2.2033,2.1507,2.0943,2.0717,2.0587,0.0,0.0,0.0,0.0,0.0,0.0,0.0,0.0,0.0,0.0,0.0,0.0,0.0,0.0,0.0,0.0,0.0,0.0,0.0,0.0,0.0,0.0,0.0,0.0,0.0,0.0,0.0,0.0,0.0,0.0,0.0,0.0,0.0,1.6726,1.6726,1.6918,1.7389,1.7793,1.8196,1.8598,1.9053,1.9335,1.9364,1.9727,1.9942,1.9952,2.0771,2.124,2.1239,2.168,2.1914,2.1944,2.1944,2.2129,2.2529,2.2529,2.2723,2.3091,2.3091,2.3101,2.311,2.311,2.312,2.314,2.312,2.311,2.3033,2.2246,2.1935,2.1925,2.1925,2.1915,2.1905,0.0,0.0,0.0,0.0,0.0,0.0,0.0,0.0,0.0,0.0,1.9708,1.9708,1.9708,1.9708,1.9708,1.9708,1.9207,1.8669,1.8145,0.0,0.0,0.0,0.0,0.0,1.8556,1.9233,1.9861,2.0453,2.1407,2.1933,2.2096,2.2633,2.2882,2.2882,2.3032,2.3108,2.3095,2.2945,2.2794,2.2583,2.1644,2.1281,2.1242,0.0,0.0,0.0,0.0,0.0,0.0,0.0,0.0,0.0,0.0,0.0,0.0,0.0,0.0,0.0,0.0,0.0,0.0,0.0,0.0,0.0,0.0,0.0,0.0,0.0,0.0,0.0,0.0,0.0,0.0,0.0,0.0,1.7532,1.7246,1.7471,1.7796,1.8225,1.8672,1.9102,1.9503,1.9649,2.001,2.0635,2.0781,2.0986,2.1328,2.1572,2.1846,2.2127,2.2275,2.249,2.2771,2.2771,2.283,2.2947,2.2947,2.2984,2.3091,2.3091,2.3288,2.3613,2.3613,2.3757,2.402,2.374,2.3613,2.3555,2.2986,2.2586,2.2344,2.2344,2.2148,2.1905,0.0,0.0,0.0,0.0,0.0,0.0,0.0,0.0,1.9384,1.9654,1.9708,1.9708,1.9708,1.9708,1.9708,1.9708,1.9207,1.8765,1.8458,0.0,0.0,0.0,0.0,1.9073,1.9334,1.9886,2.0565,2.1369,2.1995,2.2408,2.2631,2.2957,2.3108,2.3108,2.3108,2.3108,2.3108,2.3108,2.3108,2.3045,2.242,2.2046,2.1807,2.1595,2.085,1.9941,1.9941,1.8615,1.688,1.688,0.0,0.0,0.0,0.0,0.0,0.0,0.0,0.0,0.0,0.0,0.0,0.0,0.0,0.0,0.0,0.0,0.0,0.0,0.0,0.0,0.0,0.0,0.0,0.0,1.7981,1.8235,1.8211,1.8389,1.8683,1.9103,1.9561,1.999,2.041,2.0615,2.0957,2.1465,2.1649,2.1864,2.2139,2.2314,2.2498,2.2742,2.2752,2.2847,2.3091,2.3091,2.3091,2.3091,2.3298,2.3386,2.3396,2.3571,2.3796,2.4053,2.4053,2.4189,2.4371,2.415,2.4053,0.0,0.0,0.0,0.0,0.0,2.2596,2.2412,0.0,0.0,0.0,0.0,0.0,0.0,0.0,0.0,1.8807,1.9399,1.9474,1.9504,1.9588,1.9588,1.9618,1.9693,1.9253,1.9016,0.0,0.0,0.0,1.929,1.9935,2.0178,1.9912,2.062,2.1427,2.2295,2.2357,2.2631,2.3108,2.3185,2.3198,2.3108,2.3185,2.3223,2.3195,2.3195,2.3246,2.3296,2.3296,2.2932,2.2332,2.1857,2.1237,2.062,2.062,1.9315,1.7589,1.7589,0.0,0.0,0.0,0.0,0.0,0.0,0.0,0.0,0.0,0.0,0.0,0.0,0.0,0.0,0.0,0.0,0.0,0.0,0.0,0.0,0.0,0.0,0.0,0.0,1.8527,1.8966,1.9393,1.954,1.9687,1.9961,2.0439,2.0908,2.1318,2.1728,2.2003,2.2021,2.2373,2.2557,2.2557,0.0,0.0,0.0,0.0,2.3091,2.3091,2.314,2.3191,2.3169,2.3652,2.3857,2.3877,2.4248,2.442,2.4492,2.4492,2.4498,2.4537,2.4512,2.444,2.4313,2.3503,2.3191,2.3159,2.311,2.3091,2.3091,0.0,0.0,0.0,0.0,0.0,0.0,0.0,0.0,1.7938,1.8072,1.8087,1.829,1.8828,1.8897,1.9106,1.9648,1.9612,1.9768,0.0,0.0,1.9966,2.0449,2.1575,2.1654,2.0555,2.2077,2.2697,2.2295,2.2732,2.2995,2.3108,2.3752,2.3723,2.3138,2.3782,2.3978,2.3841,2.3841,2.4076,2.4478,2.4478,2.386,2.2932,2.2832,2.2432,2.1929,2.1929,2.0579,1.8774,1.8774,1.7518,1.5968,1.5968,0.0,0.0,0.0,0.0,0.0,0.0,0.0,0.0,0.0,0.0,0.0,0.0,0.0,0.0,0.0,0.0,0.0,0.0,0.0,0.0,1.8916,1.9706,2.0244,2.0341,2.0957,2.1172,2.0537,2.1162,2.1817,2.2206,2.2344,2.2529,2.2849,2.2925,2.2974,2.2974,2.3052,2.3091,2.3091,2.3091,2.3091,2.3091,2.3486,2.3662,2.3672,0.0,0.0,2.4297,2.4352,2.4609,2.4965,2.4965,2.5146,2.5425,2.5088,2.4736,2.4342,2.3857,2.3662,2.3623,2.3249,2.3091,2.3091,0.0,0.0,0.0,0.0,0.0,0.0,0.0,0.0,1.7324,1.7661,1.7705,1.7953,1.8627,1.8694,1.8972,1.9648,1.9708,0.0,0.0,2.0793,2.1086,2.172,2.2682,2.2876,2.2167,2.2974,2.3541,2.3845,2.3756,2.3886,2.4251,2.4653,2.4437,2.3721,2.4405,2.4449,2.4017,2.4293,2.4553,2.4804,2.4804,2.4302,2.3549,2.3549,2.3198,2.265,2.2238,2.0978,1.9436,1.9008,1.7615,1.6095,1.6095,1.5777,1.5396,0.0,0.0,0.0,0.0,0.0,0.0,0.0,0.0,0.0,0.0,0.0,0.0,0.0,0.0,1.762,0.0,0.0,1.8944,1.9804,2.0321,2.0762,2.1182,2.1808,2.2031,2.1592,2.1934,2.2363,2.2762,2.2801,2.2888,2.3081,2.3091,2.3091,2.3091,2.3091,2.3091,2.3091,2.3327,2.3445,2.3445,2.3887,2.4102,2.4111,2.4541,2.4746,2.4746,2.4957,2.5171,2.54,2.54,2.5503,2.5674,2.5474,2.5249,2.5006,2.46,2.4297,2.4053,2.3601,2.3445,2.3415,0.0,0.0,0.0,0.0,0.0,0.0,0.0,0.0,0.0,1.725,1.7325,1.7579,1.8245,1.8311,1.8634,0.0,0.0,0.0,0.0,2.147,2.2006,2.2659,2.358,2.3917,2.3614,2.3865,2.4462,2.5398,2.4667,2.4681,2.5398,2.5398,2.5007,2.4333,2.5004,2.4882,2.4192,2.4729,2.5017,2.5118,2.5005,2.4628,2.4142,2.4042,2.3625,2.299,2.2187,2.1098,1.9892,1.9036,1.7603,1.6222,1.6222,1.583,1.5396,1.5396,1.5396,0.0,0.0,0.0,0.0,0.0,0.0,0.0,0.0,0.0,1.7291,1.8096,1.8244,1.8525,1.9393,1.9559,1.9833,2.0723,2.0908,2.1211,2.1925,2.2373,2.2615,2.2615,2.2615,2.2742,2.3062,2.3091,2.3091,2.3091,2.3091,2.3091,2.3091,2.3091,2.314,2.324,2.3603,2.3828,2.3906,2.4336,2.4541,2.4551,2.5014,2.5219,2.5239,2.5542,2.5693,2.5693,2.5693,2.5693,2.5693,2.5693,2.5693,2.5679,2.5342,2.498,2.4586,2.4102,2.3906,2.3848,0.0,0.0,0.0,0.0,0.0,0.0,0.0,0.0,0.0,1.6001,1.6016,1.6256,1.6861,0.0,0.0,0.0,0.0,0.0,2.1535,2.1675,2.2006,2.2659,2.4428,2.483,2.3628,2.5281,2.5916,2.5398,2.4667,2.4681,2.5398,2.5398,2.5007,2.4362,2.5546,2.5563,2.4754,2.5285,2.5816,2.6273,2.5741,2.5197,2.4653,2.4192,2.3625,2.299,2.2187,2.1314,2.04,1.951,1.8066,1.6629,1.6629,1.6069,1.5396,1.5396,0.0,1.5498,1.5919,1.6279,1.656,1.6619,1.6976,1.7429,0.0,0.0,1.852,1.9043,1.9141,1.9423,2.0283,2.0458,2.0732,2.1612,2.2051,2.2324,2.2432,2.2781,2.3023,2.3023,2.3023,2.3042,2.3091,2.3091,2.3091,2.3091,2.3091,2.3091,2.3091,2.3091,2.3298,2.3711,2.3769,2.3965,2.4323,2.4799,2.5024,2.5024,2.5449,2.564,2.564,2.5689,2.5693,2.5693,2.5693,2.5693,2.5693,2.5693,2.5693,2.5708,2.5659,2.561,2.5464,2.4625,2.4323,2.4264,0.0,0.0,0.0,0.0,0.0,0.0,0.0,0.0,0.0,0.0,0.0,1.6031,1.6629,0.0,0.0,0.0,0.0,0.0,2.0477,2.127,2.1997,2.2671,2.4194,2.4943,2.4781,2.5512,2.6174,2.6679,2.5946,2.5959,2.6679,2.6679,2.6282,2.5605,2.6019,2.5731,2.4973,2.5102,2.5285,2.5485,2.5247,2.4804,2.4302,2.4092,2.3625,2.299,2.2187,2.1333,0.0,0.0,1.7917,1.6658,1.6426,1.6099,1.5806,1.5806,1.5977,0.0,1.6406,1.6777,1.7168,0.0,1.7776,1.8205,1.8652,1.8887,1.9209,1.9911,2.0048,2.0312,2.1192,2.1358,2.1553,0.0,2.2402,2.2576,2.282,2.2984,2.3091,2.3091,2.3091,2.3091,2.3091,2.3091,2.3091,2.3091,2.3091,2.3091,2.3091,2.3357,2.3603,2.3779,2.429,2.4642,2.4818,2.5234,2.5459,2.5459,2.562,2.5693,2.5693,2.5693,2.5693,2.5693,2.5693,2.5693,2.5757,2.65,2.6802,2.6873,2.7579,2.7851,2.7602,2.5565,2.4818,2.4727,0.0,0.0,0.0,0.0,0.0,0.0,0.0,0.0,0.0,0.0,0.0,0.0,0.0,0.0,0.0,0.0,0.0,0.0,0.0,2.0612,2.1615,2.2643,2.3744,2.4634,2.5319,2.5463,2.6121,2.733,2.659,2.6703,2.76,2.7382,2.6904,2.6191,2.6203,2.5685,2.4795,2.4792,2.4804,2.4791,2.4641,2.4356,2.3966,2.3653,2.3127,2.2468,2.1636,2.0941,0.0,0.0,1.7382,1.6498,1.6324,1.6193,1.6114,1.6226,1.6562,1.6927,1.7035,1.7386,0.0,1.8252,1.8576,1.8947,1.953,1.9657,1.9902,2.0772,2.0967,2.1182,2.1924,2.2081,2.2197,2.2596,2.2664,2.2771,2.3052,2.3091,2.3091,2.3091,2.3091,2.3091,2.3091,2.3091,2.3091,2.3091,2.3091,2.3091,2.3091,2.3555,2.3838,2.3965,2.4701,2.5151,2.5254,2.5552,2.5693,2.5693,2.5693,2.5693,2.5693,2.5693,2.5693,2.5693,2.5693,2.5693,2.5805,2.7078,2.7376,2.7244,2.8785,2.92,2.8683,2.6934,2.6067,2.5711,0.0,0.0,0.0,0.0,0.0,0.0,0.0,0.0,0.0,0.0,0.0,0.0,0.0,0.0,1.6734,0.0,0.0,0.0,0.0,1.9738,2.0636,2.2613,2.3306,2.3943,2.4619,2.5266,2.5935,2.6629,2.5877,2.6236,2.7587,2.6865,2.6135,2.5453,2.5976,2.539,2.406,2.4578,2.4804,2.4754,2.4243,2.4017,2.3879,2.2771,2.1896,2.1146,2.0274,0.0,0.0,1.7467,1.6461,1.6183,1.6566,1.6416,0.0,1.6566,1.7005,1.7468,1.7844,1.8264,1.8683,1.9141,1.9276,1.9511,2.0351,2.0566,2.082,2.1681,2.1866,2.2003,2.2412,2.2469,2.2606,2.3013,2.3081,2.3081,2.3091,2.3091,2.3091,2.3091,2.3091,2.3091,0.0,2.3091,2.3091,2.3091,2.3091,2.3091,2.3091,2.3555,2.3975,2.4362,2.4857,2.5297,2.5689,2.5684,2.5693,2.5693,2.5693,2.5693,2.5693,2.5693,2.5693,2.5693,2.5693,2.5693,2.5805,2.7078,2.6873,2.5989,2.8448,2.868,2.7791,2.8867,2.8519,2.7458,0.0,0.0,0.0,0.0,0.0,0.0,0.0,0.0,0.0,0.0,0.0,0.0,0.0,0.0,0.0,0.0,1.6682,1.7234,0.0,1.8957,2.0007,2.0681,2.2179,2.3306,2.3913,2.459,2.5259,2.5944,2.5687,2.5818,2.6273,2.6473,2.644,2.6174,2.5824,2.5391,2.4874,2.4029,2.3672,2.3622,2.3085,2.2874,2.2784,2.2046,2.1615,2.1182,0.0,0.0,0.0,1.7499,1.6693,1.6124,1.6256,1.6387,1.6635,1.7347,1.7864,1.8225,1.8371,1.8722,1.917,1.96,1.9922,2.0312,2.0879,2.0996,2.1172,2.1788,2.165,2.1571,2.2012,2.2324,2.2537,2.2684,2.2937,2.3091,2.3091,2.3091,2.3091,2.3091,2.3091,0.0,0.0,0.0,0.0,2.3091,2.3091,2.324,2.3555,2.3975,2.4404,2.4857,2.5283,2.5562,2.5693,2.5693,2.5693,2.5693,2.5693,2.5693,2.5693,2.5693,2.5693,2.5693,2.5693,2.5693,2.5805,2.7078,2.7363,2.7125,2.8762,2.9154,2.8947,3.0158,2.9841,2.8659,0.0,0.0,0.0,0.0,0.0,0.0,0.0,0.0,0.0,0.0,0.0,0.0,0.0,0.0,0.0,0.0,0.0,1.6465,0.0,0.0,1.8837,1.9324,2.0816,2.1914,2.2547,2.3225,2.4003,2.4896,2.4896,2.5124,2.5603,2.6033,2.5999,2.5504,2.4995,2.4477,2.394,2.2944,2.2646,2.2771,2.2219,2.2119,2.2219,2.1495,2.1041,0.0,0.0,0.0,0.0,1.6864,1.6316,1.5894,1.6216,1.6709,1.7308,1.801,1.841,1.8666,1.8968,1.9279,1.9648,2.0225,2.0478,2.0742,2.1328,2.1327,2.1337,2.1797,2.166,2.1532,2.1836,2.2109,2.2295,2.2295,2.2625,2.2898,2.2898,2.3003,2.3091,2.3091,2.3091,2.3091,0.0,0.0,0.0,2.3091,2.3091,2.3308,2.3769,2.4189,2.4619,2.5082,2.5484,2.5693,2.5693,2.5693,2.5693,2.5693,2.5693,2.5693,2.5693,2.5693,2.5693,2.5693,2.5693,2.5693,2.5805,2.7078,2.7329,2.7078,2.8739,2.9407,2.9544,3.0743,3.1,3.0553,0.0,0.0,0.0,0.0,0.0,0.0,0.0,0.0,0.0,0.0,0.0,0.0,0.0,0.0,0.0,0.0,0.0,0.0,0.0,0.0,0.0,1.8544,1.928,1.9953,2.0583,2.1291,2.2233,2.3445,2.349,2.4148,2.5393,2.5415,2.4747,2.3557,2.3521,2.2777,2.155,2.1521,2.1794,2.2207,2.1631,2.1719,2.2044,2.0981,0.0,0.0,0.0,0.0,1.6393,1.5657,1.5425,1.561,1.6434,1.7308,1.8069,1.8481,1.8617,1.8812,1.9669,1.9932,2.0157,2.0976,2.0918,2.0889,2.169,2.1513,2.1327,2.1738,2.1817,2.1808,2.1808,0.0,2.1847,2.1846,2.2217,2.2488,2.2488,2.2849,2.3091,0.0,0.0,0.0,0.0,0.0,0.0,2.3091,0.0,2.3318,2.3799,2.4199,2.4629,2.5112,2.5493,2.5693,2.5693,2.5693,2.5693,2.5693,2.5693,2.5693,2.5693,2.5693,2.5693,2.5693,2.5693,2.5693,2.5805,2.7078,2.6897,2.6038,2.8402,2.9315,2.9453,3.0586,3.1777,3.2655,0.0,0.0,0.0,0.0,0.0,0.0,0.0,0.0,0.0,0.0,0.0,0.0,0.0,0.0,0.0,0.0,0.0,0.0,0.0,0.0,0.0,0.0,0.0,0.0,0.0,0.0,0.0,2.1445,2.1934,2.2353,2.2702,2.2796,2.2873,2.2906,2.2455,2.2272,2.2281,2.1732,2.1583,2.162,0.0,2.0313,2.0326,0.0,0.0,0.0,0.0,0.0,1.6393,1.5657,1.5835,1.6404,1.6629,1.7308,1.8069,1.8481,1.8849,1.9238,1.9757,2.0371,2.0849,2.0762,2.1162,2.1544,2.1405,2.1298,2.1152,2.0967,2.0644,2.042,2.042,2.0703,0.0,2.1327,2.2001,0.0,2.2488,2.2849,0.0,2.3091,0.0,2.3091,2.3091,2.3091,0.0,0.0,2.3091,2.3445,2.4219,2.4332,2.4742,2.5513,2.565,2.5693,2.5693,2.5693,2.5693,2.5693,2.5693,2.5693,2.5693,2.5693,2.5693,2.5693,2.5693,2.5693,2.5805,2.7078,2.74,2.7173,2.7814,2.8073,2.8085,2.8402,2.8727,2.9212,0.0,0.0,0.0,0.0,0.0,0.0,0.0,0.0,0.0,0.0,0.0,0.0,0.0,0.0,0.0,0.0,0.0,0.0,0.0,0.0,0.0,0.0,0.0,0.0,0.0,0.0,0.0,0.0,0.0,0.0,2.0827,2.1193,2.1251,2.1033,2.0986,2.0862,2.0642,2.0232,0.0,0.0,0.0,0.0,0.0,0.0,0.0,0.0,0.0,0.0,0.0,1.5541,1.5981,1.6697,1.6697,1.7408,1.8352,1.8781,1.9228,1.9697,2.0303,2.0693,2.0977,2.1133,2.125,2.1309,2.122,2.0898,2.0566,2.0332,1.9941,1.9639,1.9639,1.9844,2.0165,0.0,0.0,0.0,2.2178,2.2576,2.2886,0.0,2.3091,0.0,2.3091,2.3091,2.3091,0.0,2.3091,2.3493,2.4342,2.4391,2.4801,2.5664,2.5693,2.5693,2.5693,2.5693,2.5693,2.5693,2.5693,2.5693,2.5693,2.5693,2.5693,2.5693,0.0,2.5693,2.5757,2.6476,2.7112,2.7589,2.7589,2.8249,2.9177,2.9177,2.9177,2.9292,0.0,0.0,0.0,0.0,0.0,0.0,0.0,0.0,0.0,0.0,0.0,0.0,0.0,0.0,0.0,0.0,0.0,0.0,0.0,0.0,0.0,0.0,0.0,0.0,0.0,0.0,0.0,0.0,0.0,0.0,0.0,0.0,0.0,0.0,0.0,0.0,0.0,0.0,0.0,0.0,0.0,0.0,0.0,0.0,0.0,0.0,0.0,0.0,0.0,1.5396,1.5981,1.6697,1.6697,1.7574,1.8685,1.916,1.958,2.0079,2.0898,2.0908,2.084,2.1553,2.1202,2.0742,2.0976,2.0449,1.9864,1.9747,1.9453,1.9217,1.9217,1.9217,1.9346,1.9737,0.0,2.085,2.1622,2.2178,2.2625,2.2974,2.3062,2.3091,2.3091,2.3091,2.3091,2.3091,2.3171,2.3552,2.4352,2.4391,2.4801,2.5664,2.5693,2.5693,2.5693,2.5693,2.5693,2.5693,2.5693,2.5693,2.5693,2.5693,2.5693,2.5693,2.5693,2.5805,2.5965,2.6125,2.6849,2.7838,2.8026,2.9269,3.0966,3.0966,3.0855,3.0608,0.0,0.0,0.0,0.0,0.0,0.0,0.0,0.0,0.0,0.0,1.511,1.5799,0.0,0.0,0.0,0.0,0.0,0.0,0.0,0.0,0.0,0.0,0.0,0.0,0.0,0.0,0.0,0.0,0.0,0.0,0.0,0.0,0.0,0.0,0.0,0.0,0.0,0.0,0.0,0.0,0.0,0.0,0.0,0.0,0.0,0.0,0.0,0.0,0.0,0.0,1.5981,1.6697,1.6697,1.7574,1.8685,1.916,1.958,2.0029,2.0566,2.0898,2.1045,2.0869,2.0957,2.0927,2.0274,2.0001,0.0,1.8968,1.8763,1.8715,1.8715,1.8715,1.8869,1.9326,2.0077,2.0654,2.0791,2.1787,2.2518,0.0,2.2908,2.3091,2.3091,2.3091,0.0,0.0,2.3445,2.3896,2.4362,2.4391,2.4801,2.5664,2.5693,2.5693,2.5693,2.5693,2.5693,2.5693,2.5693,2.5693,2.5693,2.5693,2.5693,2.5693,2.5693,0.0,2.7363,2.8355,2.8878,2.92,3.0203,3.0226,2.9715,2.9715,2.9085,2.8342,0.0,0.0,0.0,0.0,0.0,0.0,0.0,1.3585,1.3797,1.3797,1.4363,1.4886,1.5237,1.5589,0.0,0.0,0.0,0.0,0.0,0.0,0.0,0.0,0.0,0.0,0.0,1.6076,1.6107,1.588,0.0,1.6233,1.6033,1.5935,1.5865,1.5864,0.0,0.0,0.0,0.0,0.0,0.0,0.0,0.0,0.0,0.0,0.0,0.0,0.0,0.0,0.0,0.0,1.5981,1.6697,1.6697,1.7574,1.8685,1.916,1.958,2.004,2.0732,2.0898,2.0889,2.0908,2.0732,2.042,1.9991,0.0,0.0,1.8685,1.8422,1.8293,1.8293,1.8293,1.843,1.8859,1.9482,2.0077,2.0537,2.1524,2.2266,2.249,2.2859,2.3091,0.0,2.3091,2.3091,2.3091,2.3545,2.3975,2.4371,2.483,2.5279,2.5698,2.5693,2.5693,2.5693,2.5693,2.5693,2.5693,2.5693,2.5693,2.5693,2.5693,2.5693,2.5693,2.5693,2.6062,2.6706,2.7955,2.8843,2.9453,3.0045,3.0282,3.0339,3.0339,2.9567,2.8704,0.0,0.0,0.0,0.0,0.0,0.0,0.0,1.3032,1.3364,1.3364,1.3504,1.3795,1.431,1.4913,1.5317,0.0,0.0,0.0,0.0,0.0,0.0,0.0,0.0,0.0,0.0,0.0,0.0,1.496,1.496,0.0,0.0,0.0,0.0,0.0,1.5112,1.5116,0.0,0.0,0.0,0.0,0.0,0.0,0.0,0.0,0.0,0.0,0.0,0.0,1.4848,1.5166,1.5844,1.6586,1.6668,1.7574,1.8666,1.9043,1.9512,2.0049,2.0742,2.0693,2.0537,2.084,2.0342,1.9756,1.964,1.9085,1.8578,1.849,1.8225,1.7991,1.7991,1.7991,1.8098,0.0,1.8849,1.9414,2.0205,2.1065,2.1817,0.0,2.2732,0.0,2.3081,2.3091,0.0,2.3091,2.3601,2.4111,2.4531,2.5279,2.5693,2.5693,2.5693,2.5693,2.5693,2.5693,2.5693,2.5693,2.5693,2.5693,2.5693,2.5693,2.5693,2.5693,2.5693,2.5844,2.6173,2.7197,2.8319,2.943,2.967,3.0384,3.1223,3.1522,3.0832,2.992,0.0,0.0,0.0,0.0,0.0,0.0,0.0,1.1939,1.1979,1.1979,1.2514,1.2915,1.2975,1.3306,1.3764,0.0,0.0,0.0,0.0,0.0,0.0,0.0,0.0,0.0,0.0,0.0,0.0,1.4564,1.4564,0.0,0.0,0.0,0.0,0.0,0.0,1.4224,1.4207,1.4752,0.0,0.0,0.0,0.0,0.0,0.0,0.0,0.0,0.0,1.4145,1.4809,1.4848,1.5425,1.6232,1.6586,1.7574,1.8607,1.8646,1.9259,1.9913,1.9991,1.9991,1.9962,2.0001,1.9687,1.9238,1.883,1.8656,1.849,1.8127,1.802,1.7991,1.7991,1.7991,1.8001,0.0,0.0,1.884,1.9354,2.0165,2.1026,2.1866,0.0,0.0,2.3062,2.3091,0.0,2.3091,2.3874,2.4551,2.5004,2.5454,2.5693,2.5693,2.5693,2.5693,2.5693,2.5693,2.5693,2.5693,2.5693,2.5693,2.5693,2.5693,2.5693,2.5693,2.5693,2.6366,0.0,2.7542,2.8319,2.9521,3.0608,3.11,3.1334,3.2491,3.2118,3.1033,0.0,0.0,0.0,0.0,0.0,0.0,1.1805,1.1805,1.1805,1.1805,1.2029,1.2117,1.1915,1.1872,1.2354,0.0,0.0,0.0,0.0,0.0,0.0,0.0,0.0,0.0,0.0,0.0,1.4541,1.4133,1.4133,0.0,0.0,0.0,0.0,0.0,0.0,1.3559,1.3596,0.0,0.0,0.0,0.0,0.0,0.0,0.0,0.0,0.0,0.0,0.0,1.4053,1.4293,1.4961,1.5718,1.5864,1.6619,1.7613,1.8373,1.8841,1.9181,1.9463,1.9541,1.9541,1.9541,1.9209,1.883,1.8637,1.8403,1.8118,1.7715,1.7637,1.7637,1.7637,1.7637,1.7715,0.0,0.0,0.0,1.9228,2.0048,2.0908,2.1808,2.2256,0.0,0.0,0.0,2.322,2.3493,2.4059,0.0,2.5063,2.5488,2.5693,2.5693,2.5693,2.5693,2.5693,2.5693,2.5693,2.5693,2.5693,2.5693,2.5693,2.5693,2.5693,2.5693,2.5693,2.6414,0.0,2.8378,2.9384,3.0541,3.1011,3.1201,3.1267,3.1777,3.1633,3.1311,0.0,0.0,0.0,0.0,0.0,1.1805,1.1805,1.1805,1.1805,1.1805,1.1805,1.1709,1.1473,1.1118,1.1364,1.2491,0.0,0.0,0.0,0.0,0.0,0.0,0.0,0.0,0.0,0.0,1.4117,1.3698,1.3698,1.3514,0.0,0.0,1.3198,1.3198,0.0,0.0,0.0,0.0,0.0,0.0,0.0,0.0,0.0,0.0,0.0,0.0,0.0,0.0,0.0,0.0,0.0,1.5064,1.5318,0.0,0.0,0.0,1.8332,1.851,1.8975,1.9092,1.9092,1.9092,1.8752,1.8383,1.8274,1.802,1.7705,1.7275,1.7187,1.7187,1.7187,1.7311,1.7497,0.0,0.0,1.8586,1.9033,1.9745,2.0527,2.1407,0.0,2.249,0.0,2.3023,2.3249,2.3574,0.0,0.0,2.4887,2.5396,2.5693,2.5693,2.5693,2.5693,2.5693,2.5693,2.5693,2.5693,2.5693,2.5693,2.5693,2.5693,2.5693,2.5693,2.5693,2.6197,0.0,2.8355,2.959,3.0698,3.1055,3.1422,3.1755,3.1755,3.1755,3.1887,0.0,0.0,0.0,0.0,0.0,0.0,1.1805,1.1805,1.1805,1.1805,1.1805,1.1805,1.1805,1.1256,1.0916,1.0916,0.0,0.0,0.0,0.0,0.0,0.0,0.0,0.0,0.0,0.0,1.3682,1.3207,1.3207,1.3198,1.3198,1.3198,1.3198,1.3198,0.0,0.0,0.0,0.0,0.0,0.0,0.0,0.0,0.0,0.0,0.0,0.0,0.0,0.0,0.0,0.0,0.0,0.0,0.0,0.0,0.0,0.0,1.7686,1.8088,1.849,1.8607,1.8607,1.8607,1.8295,1.791,1.7507,1.7409,1.7266,1.6794,1.6707,1.6707,1.6707,1.709,1.7399,0.0,0.0,0.0,1.8549,1.9005,1.9638,0.0,0.0,2.206,2.248,2.2869,2.3091,2.3101,0.0,0.0,2.4401,2.524,2.5693,2.5693,2.5693,2.5693,2.5693,2.5693,2.5693,2.5693,2.5693,2.5693,2.5693,2.5693,2.5693,2.5693,2.5693,2.5708,0.0,2.7078,2.8342,2.9544,3.0721,3.1965,3.3068,3.3068,3.3068,3.3068,0.0,0.0,0.0,0.0,0.0,0.0,0.0,1.1805,1.1805,1.1805,1.1805,1.1709,1.1479,1.1118,1.0819,1.0575,0.0,0.0,0.0,0.0,0.0,0.0,0.0,0.0,0.0,0.0,1.3348,1.3198,1.3198,1.3198,1.3198,1.3198,1.3198,1.3198,1.3198,1.3198,0.0,0.0,0.0,0.0,0.0,0.0,0.0,0.0,0.0,0.0,0.0,0.0,0.0,0.0,0.0,0.0,0.0,0.0,0.0,1.583,1.6547,1.722,1.7666,1.7783,1.7783,1.7783,1.7676,1.7471,1.7025,1.6927,1.68,1.6383,1.6295,1.6295,1.6295,1.6641,1.7031,1.735,0.0,0.0,0.0,0.0,0.0,2.0498,2.1602,2.248,0.0,0.0,2.3091,0.0,0.0,2.4111,2.4404,2.4971,2.542,2.5698,2.5693,2.5693,2.5693,2.5693,2.5693,2.5693,2.5693,2.5693,2.5693,2.5693,2.5693,2.5693,2.5693,2.6197,2.7102,2.8308,2.9544,3.0743,3.2008,3.2742,3.3102,3.3102,3.3102,3.3102,0.0,0.0,0.0,0.0,0.0,0.0,0.0,1.1805,1.1747,1.1637,1.1615,1.1484,1.1179,1.0895,1.0637,1.0428,0.0,0.0,0.0,0.0,0.0,0.0,0.0,0.0,0.0,1.2739,1.3006,1.3198,1.3198,1.3198,1.3198,1.3198,1.3198,1.3198,1.3198,1.3198,0.0,0.0,0.0,0.0,0.0,0.0,1.0956,0.0,0.0,0.0,0.0,0.0,0.0,0.0,0.0,0.0,0.0,0.0,0.0,0.0,1.5552,1.6147,1.6934,1.7139,1.7139,1.7139,1.7139,1.7021,1.6566,1.6469,1.6357,1.5923,1.585,1.585,1.585,1.6303,1.681,1.709,0.0,0.0,0.0,0.0,0.0,2.0938,0.0,0.0,0.0,2.3091,0.0,0.0,0.0,2.3906,2.417,2.4769,2.5219,2.5478,2.562,2.5693,2.5693,2.5693,2.5693,2.5693,2.5693,2.5693,2.5693,2.5693,2.5693,2.5693,2.5693,2.6149,0.0,2.8704,2.9841,3.0698,3.2426,3.3102,3.3102,3.3102,3.3102,3.3102,0.0,0.0,0.0,0.0,0.0,0.0,0.0,0.0,1.1626,1.1307,1.1276,1.1167,1.0897,1.0587,1.0384,1.0365,0.0,0.0,0.0,0.0,0.0,0.0,0.0,0.0,0.0,1.2375,1.2655,1.3198,1.3198,1.3198,1.3198,1.3198,1.3198,1.3198,1.3198,1.3198,0.0,0.0,0.0,0.0,0.0,0.0,0.0,0.0,0.0,0.0,0.0,0.0,0.0,0.0,0.0,0.0,0.0,0.0,0.0,0.0,0.0,0.0,0.0,1.6609,1.6664,1.6664,1.6664,1.6557,1.6144,1.6046,0.0,1.5498,1.5396,1.5405,1.5435,1.6122,1.6716,1.6746,0.0,0.0,0.0,1.875,0.0,0.0,2.1905,0.0,2.3013,0.0,0.0,0.0,2.3493,2.375,2.3789,2.4564,2.5014,2.5043,2.5406,2.565,2.5693,2.5693,2.5693,2.5693,2.5693,2.5693,2.5693,2.5693,2.5693,0.0,2.5693,2.5693,2.5902,2.8285,2.9315,2.9636,3.2042,3.3025,3.3102,3.3102,3.3102,3.3102,0.0,0.0,0.0,0.0,0.0,0.0,0.0,0.0,0.0,0.0,1.0989,1.0871,1.055,1.0458,1.0304,0.0,0.0,0.0,0.0,0.0,0.0,0.0,0.0,0.0,0.0,1.2182,1.2655,1.3198,1.3198,1.3198,1.3198,1.3198,1.3198,1.3198,1.3198,0.0,0.0,0.0,0.0,0.0,0.0,0.0,0.0,0.0,0.0,0.0,1.1612,1.2002,0.0,0.0,0.0,0.0,0.0,0.0,0.0,0.0,1.402,1.441,1.5068,0.0,1.6236,1.6236,1.6236,1.6119,0.0,0.0,0.0,0.0,0.0,1.5508,1.5865,1.6342,1.682,1.7178,0.0,0.0,1.7991,0.0,0.0,2.17,2.1905,2.2217,2.3013,0.0,0.0,2.3091,2.3188,2.3415,2.3769,2.3984,2.4238,2.456,2.4645,2.5035,2.5684,2.5693,2.5693,2.5693,2.5693,2.5693,2.5693,2.5693,2.5693,2.5693,2.5693,2.5693,2.583,2.7376,2.8564,2.9544,3.1067,3.2239,3.3102,3.3102,3.3102,3.3102,0.0,0.0,0.0,0.0,0.0,0.0,0.0,0.0,0.0,0.0,0.0,0.0,0.0,0.0,0.0,0.0,0.0,0.0,0.0,0.0,0.0,0.0,0.0,0.0,1.1583,1.1876,1.2421,1.3198,1.3198,1.3094,1.2882,1.2882,1.2882,1.289,1.3103,0.0,0.0,0.0,0.0,0.0,1.0515,0.0,0.0,0.0,0.0,0.0,1.1182,1.1554,0.0,1.2135,1.2369,1.2617,0.0,0.0,0.0,0.0,1.3649,1.3919,1.4352,1.4971,1.5557,1.5728,1.5777,1.5718,1.5469,0.0,0.0,0.0,0.0,1.5547,1.6007,1.6436,0.0,0.0,1.7734,0.0,0.0,0.0,2.0146,2.1699,2.1905,2.2217,0.0,0.0,2.3091,2.3091,2.3091,2.322,2.3477,2.3682,2.3896,2.4121,2.4293,2.4625,2.5103,2.5103,2.5103,2.5113,2.5308,2.543,2.5439,2.562,2.5693,2.5693,2.5693,2.5693,2.5805,2.7078,2.7979,2.875,3.0519,3.1611,3.2305,3.2884,3.2927,3.2679,0.0,0.0,0.0,0.0,0.0,0.0,0.0,0.0,0.0,0.0,0.0,0.0,0.0,0.0,0.0,0.0,0.0,0.0,0.0,0.0,0.0,0.0,0.0,1.0527,1.1578,1.1683,1.2208,1.3198,1.3186,1.3027,1.2743,1.2626,1.2578,1.2606,1.2945,1.265,0.0,0.0,0.0,0.0,1.0332,0.0,0.0,0.0,0.0,0.0,0.0,0.0,0.0,1.1893,1.2085,1.2248,1.2548,0.0,0.0,0.0,0.0,0.0,1.3732,1.4274,1.4785,1.5215,1.5347,1.5396,1.5396,0.0,0.0,0.0,0.0,0.0,0.0,1.6533,0.0,0.0,0.0,0.0,1.9198,1.9707,2.0478,2.1759,2.1943,0.0,2.3023,2.3091,2.3091,2.3091,2.3091,2.3091,2.3091,2.3486,2.3691,2.3691,2.401,2.4196,2.4196,2.4332,2.4391,2.4401,2.4785,2.4994,2.5004,2.5337,2.5513,2.5523,0.0,0.0,2.5707,2.6843,2.7423,2.7791,2.9852,3.083,3.1214,3.2281,3.243,3.2089,0.0,0.0,0.0,0.0,0.0,0.0,0.0,0.0,0.0,0.0,0.0,0.0,0.0,0.0,0.0,0.0,0.0,0.0,0.0,0.0,0.0,0.0,1.0331,1.0903,1.159,1.2032,1.2588,1.3198,1.3138,1.3376,1.3832,1.3218,1.2948,1.3005,1.2734,1.2535,1.2374,0.0,0.0,0.0,0.0,0.0,0.0,0.0,0.0,0.0,0.0,0.0,0.0,1.1073,1.1589,1.2109,1.1623,0.0,0.0,0.0,0.0,0.0,1.2622,1.3461,1.4309,1.4789,1.5146,1.5396,1.5396,0.0,0.0,0.0,0.0,0.0,0.0,1.6976,1.7438,0.0,0.0,1.8693,0.0,0.0,2.084,2.1788,0.0,2.2586,2.3052,2.3091,2.3091,2.3091,2.3091,2.3091,2.3091,2.3159,2.322,2.322,2.3279,2.3296,2.3296,2.403,2.4391,2.4391,2.4459,2.4521,2.4521,2.4567,2.4596,2.4615,0.0,2.519,2.5219,2.5759,2.662,2.7636,2.8002,2.9127,3.0535,3.0742,3.1113,3.1512,0.0,0.0,0.0,0.0,0.0,0.0,0.0,0.0,0.0,0.0,0.0,0.0,0.0,0.0,0.0,0.0,0.0,0.0,0.0,0.0,0.0,0.9297,1.0058,1.07,1.1151,1.1729,1.2155,1.2434,1.2878,1.3001,1.2791,1.2456,1.2315,1.2342,1.2191,1.1954,1.168,1.1468,0.0,0.0,0.0,0.0,0.0,0.0,0.0,0.0,0.0,0.0,0.0,0.0,1.1327,1.1803,1.1338,0.0,0.0,0.0,0.0,0.0,1.1748,1.2368,1.3008,1.34,1.4456,1.5294,1.485,0.0,0.0,0.0,0.0,0.0,0.0,0.0,1.7598,1.8225,0.0,1.9141,1.9561,2.0381,2.1162,0.0,0.0,2.2654,2.3052,2.3091,2.3091,2.3091,2.3091,2.3091,2.3091,2.3091,2.3091,2.3091,2.3091,2.3091,2.3091,2.3503,2.3708,2.3708,2.3942,2.4082,2.4082,2.4293,2.4391,2.4401,0.0,2.4717,2.4727,2.4908,2.534,2.5942,2.6626,2.7785,2.918,3.0157,3.0692,3.0934,0.0,0.0,0.0,0.0,0.0,0.0,0.0,0.0,0.0,0.0,0.0,0.0,0.0,0.0,0.0,0.0,0.0,0.0,0.0,0.0,0.8713,0.8796,0.9662,1.0308,1.0673,1.137,1.1757,1.1801,1.255,1.2536,1.1819,1.187,1.1816,1.1701,1.1639,1.1384,1.1,1.1,1.0735,0.0,0.0,0.0,0.0,0.0,0.0,0.0,0.0,0.0,0.0,0.0,0.0,0.0,0.0,0.0,0.0,1.0762,1.0568,1.064,1.0963,1.1472,1.1943,1.2097,0.0,1.4922,1.4171,0.0,0.0,0.0,0.0,0.0,0.0,1.7319,0.0,1.8481,1.8986,1.9434,1.9835,2.0752,0.0,0.0,2.2344,2.2762,2.3062,2.3091,2.3091,2.3091,2.3091,2.3091,2.3091,2.3091,2.3091,2.3091,2.3091,2.3091,2.3091,2.3091,2.3091,2.3101,2.3454,2.3633,2.3652,2.3952,2.4098,2.4098,2.4206,2.4268,2.4277,2.4352,2.4391,2.4506,2.5472,2.6611,2.793,2.9748,3.04,3.0337,0.0,0.0,0.0,0.0,0.0,0.0,0.0,0.0,0.0,0.0,0.0,0.0,0.0,0.0,0.0,0.0,0.0,0.0,0.0,0.0,0.8477,0.8789,0.9349,0.9869,1.0327,1.1297,1.1795,1.1801,1.2164,1.2291,1.2165,1.2356,1.2183,1.1681,1.1247,1.1038,1.1,1.1,1.0735,1.0303,0.0,0.0,0.0,0.0,0.0,0.0,0.0,0.0,0.0,0.0,0.0,0.0,0.0,0.0,1.0737,1.0064,0.9878,0.9954,1.0271,1.1111,1.1817,1.1468,1.283,0.0,1.3578,1.4111,0.0,1.4072,0.0,0.0,0.0,1.7086,1.8098,1.8529,1.8986,1.9434,1.9835,0.0,2.1846,2.1905,2.2576,2.3062,2.3091,2.3091,2.3091,2.3091,2.3091,2.3091,2.3091,2.3091,2.3091,2.3091,2.3091,2.3091,2.3091,2.3091,2.3091,2.3091,2.312,2.314,2.314,2.3169,2.3188,2.3208,2.3662,2.3838,2.3867,2.4258,2.4391,2.4414,2.4506,2.5609,2.7379,2.9186,2.9854,2.9842,0.0,0.0,0.0,0.0,0.0,0.0,0.0,0.0,0.0,0.0,0.0,0.0,0.0,0.0,0.0,0.0,0.0,0.0,0.0,0.0,0.7983,0.8109,0.8832,0.9307,0.9489,1.0673,1.116,1.0868,1.1237,1.1571,1.1819,1.1614,1.1397,1.1186,1.0764,1.0553,1.0553,1.0553,1.0467,1.0303,1.0303,0.0,0.0,0.0,0.0,0.0,0.0,0.0,0.0,0.0,1.088,1.1356,0.0,1.0103,1.0593,0.9497,0.9172,0.9283,0.9792,1.0222,1.0588,1.0805,1.1925,0.0,0.0,1.3206,1.3677,1.3556,1.4563,0.0,0.0,0.0,1.8527,1.8965,1.9394,1.9824,2.0273,2.0996,2.1562,2.1876,2.2402,2.283,2.3071,2.3091,2.3091,2.3091,2.3091,2.3091,2.3091,2.3091,2.3091,2.3091,2.3091,2.3091,2.3091,2.3091,2.3091,2.3091,2.3091,2.3091,2.3091,2.3091,2.3091,2.311,2.3288,2.3367,2.3376,2.3532,2.3601,2.3658,2.4381,2.5508,2.6896,2.8251,2.9197,2.9792,0.0,0.0,0.0,0.0,0.0,0.0,0.0,0.0,0.0,0.0,0.0,0.0,0.0,0.0,0.0,0.0,0.0,0.0,0.0,0.7695,0.7761,0.7915,0.8615,0.9054,0.9191,1.0227,1.062,1.0303,1.0703,1.1064,1.1369,1.1055,1.083,1.0703,1.042,1.0303,1.0303,1.0303,1.0303,1.0303,1.0303,1.0303,0.0,0.0,0.0,0.0,0.0,0.0,0.0,0.0,1.0747,0.0,0.0,0.0,1.0261,0.9133,0.8791,0.8938,0.954,0.9701,0.9841,0.0,0.0,0.0,1.1939,1.255,1.3086,1.3005,1.4169,0.0,0.0,0.0,0.0,0.0,1.9453,2.0068,2.0527,2.0947,2.1327,2.1641,2.2147,2.2606,2.2888,2.3035,2.3091,2.3091,2.3091,2.3091,2.3091,2.3091,2.3091,2.3091,2.3091,2.3091,2.3091,2.3091,2.3091,2.3091,2.3091,2.3091,2.3091,2.3091,2.3091,2.3091,2.3091,2.3091,2.3091,2.3091,2.3091,2.3222,2.435,2.5504,2.6637,2.7703,2.8826,2.9792,0.0,0.0,0.0,0.0,0.0,0.0,0.0,0.0,0.0,0.0,0.0,0.0,0.0,0.0,0.0,0.0,0.0,0.0,0.7695,0.7695,0.7905,0.8375,0.8779,0.9182,0.9592,1.0059,1.0303,1.0303,1.0703,1.0888,1.0888,1.0888,1.0684,1.0303,1.0303,1.0303,1.0303,1.0303,1.0303,1.0303,1.0303,1.0303,1.0303,0.0,0.0,0.0,0.0,0.0,0.0,0.0,1.0428,1.0472,0.0,0.0,0.0,0.8995,0.8798,0.8938,0.954,0.9701,0.9841,0.0,0.0,0.0,1.1406,1.2276,1.2941,1.2421,0.0,1.5199,1.5199,0.0,0.0,1.7981,1.9033,2.0078,2.0527,2.0947,2.119,2.119,2.1962,2.2479,2.2488,2.2869,2.3091,2.3091,2.3091,2.3091,2.3091,2.3091,2.3091,2.3091,2.3091,2.3091,2.3091,2.3091,2.3091,2.3091,2.3091,2.3091,2.3091,2.3091,2.3091,2.3091,2.3091,2.3091,2.3091,2.3091,2.3091,2.3222,2.4329,2.5483,2.6637,2.7683,2.8806,2.9792,0.0,0.0,0.0,0.0,0.0,0.0,0.0,0.0,0.0,0.0,0.0,0.0,0.0,0.0,0.0,0.0,0.0,0.0,0.7695,0.7695,0.7905,0.8375,0.8779,0.9182,0.9592,1.0059,1.0303,1.0303,1.042,1.0479,1.0479,1.0479,1.041,1.0303,1.0303,1.0303,1.0303,1.0303,1.0303,1.0303,1.0303,1.0303,1.0303,0.0,0.0,0.0,0.0,0.0,0.0,0.0,0.0,0.0,0.0,0.0,0.0,0.8995,0.8938,0.9164,0.9579,0.9833,0.0,1.0499,0.0,0.0,0.0,1.1987,0.0,0.0,0.0,1.5199,1.5199,0.0,0.0,1.8027,1.9298,2.0439,2.0586,2.0703,2.0879,2.1181,2.1424,2.1835,2.243,2.2606,2.2801,2.3071,2.3091,2.3091,2.3091,2.3091,2.3091,2.3091,2.3091,2.3091,2.3091,2.3091,2.3091,2.3091,2.3091,2.3091,2.3091,2.3091,2.3091,2.3091,2.3091,2.3091,2.3091,2.3091,2.3091,2.3135,2.3464,2.4787,2.6545,2.6862,2.8171,2.9792,0.0,0.0,0.0,0.0,0.0,0.0,0.0,0.0,0.0,0.0,0.0,0.0,0.0,0.0,0.0,0.0,0.0,0.0,0.0,0.0,0.7905,0.8375,0.8779,0.9269,0.9864,1.0156,1.0303,1.0303,1.0303,1.0303,1.0303,1.0303,1.0303,1.0303,1.0303,1.0303,1.0303,1.0303,1.0303,1.0303,1.0303,1.0303,1.0303,0.0,0.0,0.0,0.0,0.0,0.0,0.0,0.0,0.0,0.9855,0.0,0.0,0.8923,0.8984,0.9277,0.9599,0.0,0.0,1.0644,1.1082,1.1455,1.1706,0.0,0.0,0.0,0.0,1.4486,1.4109,1.6478,0.0,1.7432,1.8995,2.039,2.0576,2.0605,2.0684,2.0937,2.1103,2.1415,2.1932,2.2137,2.2441,2.284,2.2869,2.2937,2.3081,2.3091,2.3091,2.3091,2.3091,2.3091,2.3091,2.3091,2.3091,2.3091,2.3091,2.3091,2.3091,2.3091,2.3091,2.3091,2.3091,2.3091,2.3091,2.3091,2.3091,2.3091,2.3091,2.4221,2.588,2.6327,2.7606,2.9197,0.0,0.0,0.0,0.0,0.0,0.0,0.0,0.0,0.0,0.0,0.0,0.0,0.0,0.0,0.0,0.0,0.0,0.0,0.0,0.0,0.7905,0.8375,0.8818,0.9443,1.0283,1.0303,1.0303,1.0303,1.0303,1.0303,1.0303,1.0303,1.0303,1.0303,1.0303,1.0303,1.0303,1.0303,1.0303,1.0303,1.0303,1.0303,1.0303,1.0303,0.0,0.0,0.0,0.0,0.0,0.0,0.0,0.0,0.9987,0.9502,0.8791,0.8791,0.9018,0.9311,0.9627,0.0,0.0,1.0822,1.1172,0.0,1.2164,1.2305,1.2305,1.2305,0.0,1.3419,1.2464,1.4908,1.6916,1.6422,1.8263,1.9954,2.0468,2.0576,2.0605,2.0605,2.0928,2.1151,2.119,2.1592,2.2002,2.2401,2.2461,2.2596,2.2976,2.2984,2.2984,2.2984,2.2984,2.2984,2.2984,2.2984,2.2984,2.2984,2.2984,2.2984,2.2984,2.3062,2.3091,2.3091,2.3091,2.3091,2.3091,2.3091,2.3091,2.3091,2.3091,2.38,2.4935,2.6079,2.7189,2.8255,0.0,0.0,0.0,0.0,0.0,0.0,0.0,0.0,0.0,0.0,0.0,0.0,0.0,0.0,0.0,0.0,0.0,0.0,0.0,0.0,0.7905,0.8375,0.9083,0.9737,1.0293,1.0303,1.0303,1.0303,1.0303,1.0303,1.0303,1.0303,1.0303,1.0303,1.0303,1.0303,1.0303,1.0303,1.0303,1.0303,1.0303,1.0303,1.0303,1.0303,1.0303,0.0,0.0,0.0,0.0,0.0,0.0,0.0,0.955,0.9124,0.8791,0.8791,0.9178,0.9599,0.9681,1.0097,0.0,0.0,1.1042,1.1559,1.2164,1.2305,1.2305,1.2305,1.3043,1.3419,1.2464,1.4378,1.6064,1.5946,1.7537,1.9088,1.9925,2.0371,2.0605,2.0605,2.0693,2.085,2.1161,2.1298,2.1532,2.1982,2.2021,2.206,2.2148,2.2158,2.2158,2.2158,2.2158,2.2158,2.2158,2.2158,2.2158,2.2158,2.2158,2.2158,2.2178,2.281,2.3091,2.3091,2.3091,2.3091,2.3091,2.3091,2.3091,2.3091,2.3091,2.38,2.4935,2.6079,2.7189,2.8255,0.0,0.0,0.0,0.0,0.0,0.0,0.0,0.0,0.0,0.0,0.0,0.0,0.0,0.0,0.0,0.0,0.0,0.0,0.0,0.0,0.0,0.866,0.9083,0.962,1.0293,1.0303,1.0303,1.0303,1.0303,0.0,0.0,0.0,1.0303,1.0312,1.0498,1.0596,1.0596,1.0596,1.0596,1.0566,1.0381,1.0303,1.0322,1.0518,1.0596,1.0635,1.1075,0.0,0.0,0.0,0.0,0.0,0.0,0.0,0.8791,0.8791,0.9225,0.9701,0.9701,0.0,0.0,1.0925,0.0,1.1757,1.2198,1.2305,1.2305,1.2305,1.2696,1.2879,1.239,1.3678,1.5021,1.5685,1.6971,1.8276,1.945,1.998,2.0254,2.0254,2.0459,2.0674,2.0889,2.0918,2.1094,2.1523,2.1552,2.167,2.1896,2.1905,2.1905,2.1905,2.1905,2.1905,2.1905,2.1905,2.1905,2.1905,2.1905,2.1905,2.1904,2.2344,2.2518,2.2518,2.2518,2.2635,2.281,2.281,2.2937,2.3091,2.3091,2.3464,2.4199,2.5891,2.6862,2.7574,0.0,0.0,0.0,0.0,0.0,0.0,0.0,0.0,0.0,0.0,0.0,0.0,0.0,0.0,0.0,0.0,0.0,0.0,0.0,0.0,0.0,0.8956,0.8995,0.9404,1.0283,1.0303,1.0303,1.0303,0.0,0.0,0.0,0.0,0.0,1.042,1.084,1.1025,1.1025,1.1025,1.0966,1.0878,1.0635,1.0479,1.0449,1.0859,1.1025,1.1064,1.1406,1.1174,1.0722,1.0895,0.0,0.0,0.0,0.0,0.8791,0.8791,0.9185,0.9634,0.9681,0.0,1.072,1.1206,1.1577,0.0,1.2164,1.2265,1.2305,1.2305,1.2305,1.2305,1.2305,1.2934,1.39,1.5223,1.6287,1.7424,1.8749,1.943,1.9805,1.9805,2.0205,2.0468,2.0468,2.0537,2.0742,2.1074,2.1103,2.1279,2.1661,2.1681,2.1681,2.1681,2.1681,2.1681,2.1681,2.1681,2.1681,2.1681,2.1681,2.1681,2.1681,2.1681,2.1759,2.1905,2.1905,2.209,2.2402,2.2402,2.2625,2.3006,2.3006,2.3153,2.3659,2.5724,2.6616,2.7066,0.0,0.0,0.0,0.0,0.0,0.0,0.0,0.0,0.0,0.0,0.0,0.0,0.0,0.0,0.0,0.0,0.0,0.0,0.7695,0.0,0.0,0.8956,0.8995,0.9404,1.0283,1.0303,1.0303,1.0303,0.0,0.0,0.0,0.0,0.0,1.0839,0.0,0.0,1.1507,1.1507,1.1271,1.0927,1.1281,1.1183,1.0869,1.133,1.1507,1.148,1.1308,1.12,1.0998,1.0244,0.9862,0.0,0.0,0.0,0.8791,0.8791,0.9031,0.9324,0.0,0.0,1.0673,0.0,1.1252,1.1546,0.0,0.0,1.2305,0.0,1.2305,1.2305,1.2305,1.239,1.2801,1.3816,1.5112,1.6338,1.7343,1.8575,1.9375,1.9375,1.9746,1.9981,1.9981,2.0361,2.0625,2.0693,2.0674,2.0723,2.0781,2.0762,2.0762,2.0762,2.0762,2.0762,2.0762,2.0762,2.0762,2.0762,2.0762,2.0762,2.0762,2.0762,2.1182,2.1905,2.1905,2.1924,2.1973,2.1973,2.2217,2.2576,2.2576,2.3404,2.4734,2.6016,2.7087,2.8076,0.0,0.0,0.0,0.0,0.0,0.0,0.0,0.0,0.0,0.0,0.0,0.0,0.0,0.0,0.0,0.7695,0.7695,0.7695,0.7695,0.7944,0.8369,0.8975,0.9211,0.9639,1.0293,1.0303,1.0303,0.0,0.0,0.0,0.0,1.0987,1.1153,0.0,0.0,0.0,0.0,1.1934,1.1815,1.1639,1.1604,1.1251,1.0781,1.1213,1.1145,1.0833,1.0936,0.0,1.0345,0.9941,0.9549,0.9185,0.8897,0.0,0.0,0.0,0.8984,0.0,0.9785,1.0249,1.066,0.0,1.1089,1.1303,1.1799,0.0,1.2122,1.2271,1.2305,1.2305,1.2305,1.2305,1.2611,1.3546,1.4684,1.5789,1.6732,1.8039,1.8908,1.8908,1.9297,1.9658,1.9874,2.0088,2.0322,2.0586,2.0605,2.0605,2.0605,2.0605,2.0605,2.0605,2.0605,2.0605,2.0605,2.0605,2.0605,2.0605,2.0605,2.0605,2.0605,2.0605,2.082,2.1162,2.1162,2.1289,2.1503,2.1503,2.1777,2.2221,2.2733,2.3567,2.468,2.6329,2.7437,2.8255,0.0,0.0,0.0,0.0,0.0,0.0,0.0,0.0,0.0,0.0,0.0,0.0,0.0,0.0,0.0,0.0,0.7605,0.7533,0.7502,0.803,0.8531,0.8933,0.9373,0.9815,1.0293,1.0303,1.0303,0.0,0.0,0.0,1.0322,1.1194,1.1408,0.0,1.1991,0.0,0.0,0.0,0.0,0.0,1.1793,1.1292,1.0781,1.1004,1.0793,1.0372,1.0496,0.0,0.0,0.0,0.0,0.8791,0.8791,0.8791,0.0,0.0,0.0,0.0,0.0,0.0,1.0537,1.0825,1.0958,1.1126,0.0,0.0,1.1966,0.0,1.2251,1.2305,1.2305,1.2305,1.2537,1.3219,1.4163,1.5155,1.6105,1.7312,1.8177,1.8424,1.884,1.9248,1.9542,1.9669,1.9941,2.0381,2.042,2.0468,2.0595,2.0605,2.0605,2.0605,2.0605,2.0605,2.0605,2.0605,2.0605,2.0605,2.0605,2.0605,2.0605,2.0605,2.0605,2.0605,2.0605,2.0772,2.1045,2.1045,2.1298,2.1821,2.2775,2.3658,2.4619,2.643,2.761,2.8411,0.0,0.0,0.0,0.0,0.0,0.0,0.0,0.0,0.0,0.0,0.0,0.0,0.0,0.7695,0.7695,0.7695,0.7351,0.7082,0.695,0.7739,0.8388,0.8792,0.9327,0.0,1.0293,1.0303,0.0,0.0,0.0,0.0,1.0322,1.1194,1.1596,1.1595,1.2475,1.2854,1.2854,0.0,0.0,0.0,0.0,1.1547,0.0,0.0,0.0,0.0,0.0,0.0,0.0,0.0,0.0,0.0,0.0,0.0,0.0,0.0,0.0,0.0,0.0,0.992,0.0,1.0539,1.0804,0.0,0.0,0.0,0.0,0.0,1.2129,1.2305,1.2305,1.2305,1.2316,1.2353,1.3164,1.4135,1.5128,1.6097,1.7028,1.7935,1.8401,1.8637,1.8666,1.9082,1.9492,1.9912,1.9932,2.0127,2.0586,2.0605,2.0605,2.0605,2.0605,2.0605,2.0605,2.0605,2.0605,2.0605,2.0605,2.0605,2.0605,2.0605,2.0605,2.0605,2.0605,2.0615,2.0635,2.0635,2.0859,2.134,2.2332,2.3634,2.5096,2.6142,2.7525,2.8869,0.0,0.0,0.0,0.0,0.0,0.0,0.0,0.0,0.0,0.0,0.0,0.0,0.0,0.8145,0.8252,0.8517,0.8087,0.7794,0.774,0.7951,0.8445,0.9281,0.946,0.9781,1.0293,1.0303,0.0,0.0,0.0,1.0303,1.0322,1.1194,1.1606,1.1645,1.2504,1.2905,1.2905,1.2905,0.0,0.0,0.0,0.0,0.0,0.0,0.0,0.0,0.0,0.0,0.0,0.0,0.0,0.0,0.0,0.0,0.0,0.0,0.0,0.0,0.0,0.0,0.0,1.0247,1.051,1.0801,1.0965,1.1172,1.138,1.1543,1.1835,1.2042,1.2042,1.2178,1.2305,1.2305,1.3629,1.479,1.5145,1.6524,1.763,1.7957,1.8127,1.8322,1.8568,1.8744,1.9035,1.9482,1.9512,1.958,1.9755,2.0,2.0146,2.0146,2.0439,2.0605,2.0605,2.0605,2.0439,2.0146,2.0146,2.0029,1.9765,1.9765,1.9765,1.9765,1.9765,2.0077,2.0605,2.0605,2.0674,2.0977,2.2594,2.3766,2.4751,2.6395,2.7611,2.838,0.0,0.0,0.0,0.0,0.0,0.0,0.0,0.0,0.0,0.0,0.0,0.0,0.0,0.0,0.8319,0.827,0.8015,0.7877,0.793,0.8123,0.8631,0.9535,0.9694,0.9942,1.0293,0.0,0.0,0.0,0.0,0.0,0.0,1.1027,1.1448,1.1625,1.2357,1.2744,0.0,0.0,0.0,1.283,0.0,0.0,1.131,0.0,0.0,0.0,0.0,0.0,0.0,0.0,0.0,0.0,0.0,0.0,0.0,0.0,0.0,0.0,0.917,0.0,0.0,0.0,0.0,1.064,1.0825,0.0,1.1049,1.1226,1.1516,1.1741,1.1741,1.1877,1.2053,1.2271,1.3647,1.4807,1.5145,1.6541,1.7647,1.7957,1.7991,1.8098,1.8364,1.841,1.8586,1.9043,1.9072,0.0,1.9296,1.9551,1.9707,1.9707,2.0009,2.0156,2.0156,2.0156,2.0009,1.9707,1.9707,1.9561,1.9305,1.9305,1.9305,1.9305,1.9305,1.9716,2.0371,2.0371,2.0459,2.075,2.2376,2.342,2.4231,2.5907,2.7076,2.7821,0.0,0.0,0.0,0.0,0.0,0.0,0.0,0.0,0.0,0.0,0.0,0.0,0.0,0.0,0.0,0.6937,0.7098,0.7304,0.7451,0.824,0.8938,0.9478,0.9981,1.0264,1.0283,0.0,0.0,0.0,0.0,0.0,0.0,0.0,1.1143,1.1606,1.201,1.2449,1.2873,0.0,1.2915,1.2832,0.0,1.1807,1.2364,0.0,0.0,0.0,1.117,1.0879,0.0,0.9976,0.0,0.0,0.0,0.0,0.0,0.0,0.0,0.0,0.0,0.0,0.0,0.0,0.0,0.0,1.0602,0.0,1.0998,1.0998,1.1192,1.1392,1.1392,1.1382,1.1593,1.2184,1.3077,1.4037,1.5057,1.6009,1.694,1.7889,1.7991,1.7991,1.7991,1.7991,1.8166,1.8549,1.8588,1.8781,1.9247,1.9268,1.9296,1.9305,1.9305,1.9305,1.9305,1.9305,1.9296,1.9286,1.9286,1.9268,1.9248,1.9248,1.9248,1.9248,1.9248,1.9482,1.9864,1.9883,2.0166,2.0683,2.1659,2.2646,2.3635,2.4654,2.5993,2.7273,0.0,0.0,0.0,0.0,0.0,0.0,0.0,0.0,0.0,0.0,0.0,0.0,0.0,0.0,0.8875,0.8233,0.8242,0.8469,0.8895,0.8778,0.8938,0.9478,0.9269,0.9319,0.9706,0.0,0.0,0.0,0.0,0.0,0.0,0.0,0.0,0.0,1.1862,1.2272,1.242,1.2756,0.0,0.0,1.2478,1.2121,0.0,0.0,0.0,0.0,0.0,1.0532,1.0285,0.0,0.986,0.9681,0.0,0.0,0.0,0.0,0.0,0.0,0.8891,0.0,0.0,0.0,0.0,0.0,0.0,0.0,0.0,1.0713,1.0925,1.1109,1.1109,1.1266,1.1442,1.1626,1.2649,1.3823,1.5033,1.6009,1.694,1.7889,1.7991,1.7991,1.7991,1.7991,1.8057,0.0,1.8166,1.8215,1.8359,1.8635,1.8947,1.9296,1.9305,1.9305,1.9305,1.9305,1.9131,1.8801,1.8801,1.8635,1.8359,1.8359,1.8359,1.8359,1.8359,1.8586,1.8997,1.964,1.999,2.0288,2.2294,2.3257,2.3715,2.5446,2.635,2.6725,0.0,0.0,0.0,0.0,0.0,0.0,0.0,0.0,0.0,0.0,0.0,0.0,0.0,0.0,0.9199,0.8439,0.8367,0.85,0.8807,0.8541,0.8612,0.9139,0.9079,0.9179,0.9488,0.0,0.0,0.0,0.0,0.0,0.0,0.0,0.0,0.0,0.0,0.0,0.0,0.0,0.0,0.0,1.2524,0.0,0.0,1.1793,1.1427,0.0,0.0,0.0,1.0764,1.0417,1.0107,0.0,0.0,0.0,0.0,0.0,0.0,0.0,0.0,0.0,0.0,0.0,0.0,0.0,1.035,1.0506,1.0609,0.0,1.0727,1.0831,1.0831,1.0965,1.1102,1.1206,1.1859,1.2892,1.4505,1.5695,1.6725,1.7643,1.79,1.7991,1.7991,1.7991,1.7991,1.7991,1.7991,1.7991,1.7991,1.8225,1.8479,1.875,1.875,1.875,1.875,1.875,1.8633,1.8361,1.8361,1.8235,1.7991,1.7991,1.7991,1.7991,1.7991,1.8127,1.841,1.9083,1.9571,2.0044,2.1445,2.2603,2.3642,2.482,2.5774,2.6499,0.0,0.0,0.0,0.0,0.0,0.0,0.0,0.0,0.0,0.0,0.0,0.0,0.0,0.0,0.0,0.0,0.7955,0.793,0.7984,0.8046,0.8265,0.8675,0.9219,0.9498,0.9498,0.0,0.0,0.0,0.0,0.0,0.0,0.0,0.0,0.0,0.0,0.0,0.0,0.0,0.0,1.3475,1.2409,1.2603,0.0,0.0,1.2266,1.2642,1.1927,1.1663,1.1562,1.0832,1.0396,0.0,0.0,0.0,0.0,0.0,0.9721,0.0,0.0,0.0,0.0,0.0,0.0,0.0,1.0052,1.0289,1.0492,0.0,1.0519,1.0546,1.0546,1.0566,1.0673,1.0918,1.0965,1.1652,1.3687,1.4989,1.6101,1.7066,1.7494,1.7779,1.7913,1.7922,1.7942,1.8008,1.7991,1.7991,1.7991,1.7991,1.7991,1.7991,1.7991,1.7991,1.7991,1.7991,1.7991,1.7991,1.7991,1.7991,1.7991,1.7991,1.7991,1.7991,1.7991,1.7991,1.802,1.8401,1.9025,1.9785,2.0107,2.1552,2.3465,2.3729,2.4963,2.6499,0.0,0.0,0.0,0.0,0.0,0.0,0.0,0.0,0.0,0.0,0.0,0.0,0.0,0.0,0.0,0.0,0.8336,0.8088,0.8521,0.8948,0.9039,0.8716,0.9219,0.9498,0.9498,0.9597,0.0,0.0,0.0,0.0,0.0,0.0,0.0,0.0,0.0,0.0,0.0,0.0,0.0,1.3961,1.3721,0.0,1.3091,1.2854,1.2058,1.1052,1.0895,1.0832,1.08,1.0649,1.0553,1.0506,0.0,0.0,0.0,1.0018,0.0,0.0,0.0,0.0,0.0,0.0,0.0,0.0,0.9781,0.9828,0.9868,0.0,1.0055,1.02,1.02,1.0416,1.0629,1.0667,1.0673,1.1258,1.2908,1.3364,1.4114,1.5674,1.5942,1.6389,1.7421,1.7516,1.7646,1.7988,1.7991,1.7991,1.7991,1.7991,1.7991,1.7991,1.7991,1.7991,1.7991,1.7991,1.7991,1.7991,1.7991,1.7991,1.7991,1.7991,1.7991,1.7991,1.7991,1.7991,1.8018,1.8079,1.841,1.907,2.1414,2.2604,2.3256,2.5202,2.6164,2.6499,0.0,0.0,0.0,0.0,0.0,0.0,0.0,0.0,0.0,0.0,0.0,0.0,0.0,0.0,0.0,0.0,0.0,0.0,0.0,0.0,0.872,0.8314,0.9069,0.9498,0.9498,0.9765,1.003,0.0,0.0,0.0,0.0,0.0,0.0,0.0,0.0,0.0,0.0,0.0,1.3542,1.4064,1.3665,0.0,1.2963,1.2543,1.1727,1.0791,1.0791,1.0791,1.0787,1.064,1.0609,0.0,0.0,1.0486,1.0356,0.0,1.0249,1.0151,0.0,0.0,0.0,0.99,0.0,0.0,0.0,0.9701,0.9701,0.9701,0.9814,0.99,0.99,1.0156,1.0356,1.0356,1.0492,1.0869,1.1635,1.2618,1.3737,1.505,1.5733,1.6341,1.6983,1.7061,1.7236,1.7666,1.7695,1.7793,1.7981,1.7991,1.7991,1.7991,1.7991,1.7991,1.7991,1.7991,1.7991,1.7991,1.7991,1.7991,1.7991,1.7991,1.7991,1.7991,1.7991,1.7991,1.7991,1.7991,1.8381,1.9117,2.0766,2.2273,2.3688,2.4911,2.5842,2.6499,1.059,0.0,0.0,0.0,0.0,0.0,0.0,0.0,0.0,0.0,0.0,0.0,0.0,0.0,0.0,0.0,0.0,0.0,0.0,0.0,0.0,0.8331,0.9254,0.9729,0.9656,1.0079,1.0303,0.0,0.0,0.0,0.0,0.0,0.0,0.0,0.0,0.0,0.0,0.0,0.0,1.3823,0.0,1.3116,1.3137,1.2343,1.1697,1.1219,1.1105,1.1042,1.0972,1.0754,1.064,1.0609,1.0609,1.0609,0.0,0.0,0.0,0.0,0.0,0.0,0.0,0.0,0.0,0.9754,0.0,0.0,0.0,0.954,0.9573,0.0,0.0,0.0,0.0,0.0,0.0,0.0,0.0,1.1994,0.0,1.421,1.5302,1.6072,1.634,1.6569,1.6869,1.7243,1.7272,1.7441,1.7871,1.7874,1.793,1.7991,1.7991,1.7991,1.7991,1.7991,1.7991,1.7991,1.7991,1.7991,1.7991,1.7991,1.7991,1.7991,1.7991,1.7991,1.7991,1.7991,1.8613,1.9588,2.0029,2.1715,2.3958,2.432,2.5264,2.6348,1.1049,1.0917,0.0,0.0,0.0,0.0,0.0,0.0,0.0,0.0,0.0,0.0,0.0,0.0,0.0,0.0,0.0,0.0,0.8735,0.0,0.0,0.9842,1.0429,1.0564,1.0225,1.0273,1.0303,1.0303,0.0,0.0,0.0,0.0,0.0,0.0,1.1549,0.0,0.0,0.0,1.2786,0.0,1.3391,1.3729,0.0,1.3167,1.2523,1.2003,1.1529,1.1192,1.1005,0.0,1.0807,1.0609,0.0,1.0609,1.0609,1.0609,0.0,0.0,0.0,0.0,0.0,0.0,1.0078,0.0,0.0,0.0,0.9191,0.8945,0.0,0.0,0.0,0.0,0.0,0.0,0.0,0.0,0.9794,1.0827,1.1699,1.2112,1.29,1.3858,1.4984,1.6062,1.6716,1.6775,1.6775,1.6986,1.7432,1.7468,1.7627,1.7981,1.7991,1.7991,1.7991,1.7991,1.7991,1.7991,1.7991,1.7991,1.7991,1.7991,1.7991,1.7991,1.7991,1.7991,1.7991,1.7991,1.8961,2.049,2.1029,2.1894,2.3078,2.481,2.5553,2.5791,1.1503,1.1188,0.0,0.0,0.0,0.0,0.0,0.0,0.0,0.0,0.0,0.0,0.0,0.0,0.0,0.0,0.0,0.9348,0.0,0.0,0.0,0.0,1.094,0.0,1.0491,1.0869,1.1046,1.1046,1.1222,0.0,0.0,0.0,0.0,0.0,1.1677,0.0,1.1728,0.0,1.2905,0.0,0.0,0.0,0.0,1.2794,1.2062,1.1734,1.1691,1.1621,1.1467,0.0,1.0932,0.0,0.0,0.0,0.0,0.0,0.0,0.0,0.0,0.0,0.0,0.0,0.0,0.0,0.9777,0.0,0.9164,0.0,0.0,0.0,0.0,0.0,0.0,0.0,0.9573,0.0,0.0,0.0,1.0644,0.0,0.0,0.0,1.508,1.5655,1.6059,1.6328,1.6353,1.6533,1.6966,1.7246,1.7477,1.7653,1.7881,1.7991,1.7991,1.7991,1.7991,1.7991,1.7991,1.7991,1.7991,1.7991,1.7991,1.7991,1.7991,1.7991,1.7991,1.7991,1.8721,1.9917,2.0652,2.1977,2.3545,2.4366,2.5071,2.5636,1.1618,0.0,0.0,0.0,0.0,0.0,0.0,0.0,0.0,0.0,0.0,0.0,1.1363,1.0451,0.0,0.0,0.98,1.0027,0.0,0.0,1.0851,0.0,0.0,0.0,0.0,1.1282,1.1606,1.1606,0.0,0.0,0.0,0.0,0.0,0.0,0.0,1.1641,1.1452,0.0,1.3073,1.315,1.452,1.4457,1.3427,1.2429,1.1783,1.1452,1.185,1.1955,1.1826,1.1283,1.1056,0.0,1.068,0.0,0.0,0.0,0.0,0.0,1.0609,0.0,0.0,0.0,0.0,0.0,0.0,0.0,0.0,0.0,0.0,0.0,0.0,0.0,0.0,0.0,0.0,0.946,0.0,0.9512,0.0,0.0,0.0,0.0,0.0,1.4895,1.5115,1.5238,1.5668,1.5998,1.6201,1.6734,1.7096,1.7197,1.7617,1.7842,1.7842,1.7932,1.7991,1.7991,1.7991,1.7991,1.7991,1.7991,1.7991,1.7991,1.7991,1.7991,1.7991,1.7991,1.8512,1.9365,1.9993,2.1549,2.3471,2.3863,2.4494,2.5197,1.1132,1.0649,0.0,0.0,0.0,0.0,0.0,0.0,0.0,0.0,0.0,0.0,0.0,0.0,0.0,0.0,0.0,1.0265,1.0672,0.0,1.1622,0.0,0.0,1.227,0.0,0.0,1.1606,1.1606,1.1992,0.0,0.0,0.0,0.0,0.0,0.0,1.2187,1.2844,1.3026,1.3032,1.2971,1.3874,1.3295,1.1933,0.0,1.2134,1.1486,1.2078,0.0,0.0,1.1499,1.1206,0.0,0.0,0.0,0.0,0.0,0.0,0.0,0.0,0.0,0.0,1.0609,0.0,0.0,0.0,0.0,0.9912,0.0,0.0,0.0,0.0,0.0,0.0,0.0,0.0,0.0,0.0,0.0,0.0,0.0,0.0,0.0,0.0,1.3635,1.3914,1.3162,1.4543,1.529,1.4963,1.5718,1.6324,1.6707,1.7178,1.7419,1.7419,1.7803,1.7991,1.7991,1.7991,1.7991,1.7991,1.7991,1.7991,1.7991,1.7991,1.7991,1.7991,1.7991,1.8512,1.9299,1.9332,2.0425,2.2128,2.3499,2.4017,2.4205,0.0,0.0,0.0,0.0,0.0,0.0,0.0,1.1267,0.0,0.0,0.0,0.0,0.0,1.0915,1.0695,0.0,0.0,1.1173,1.1655,1.2206,0.0,0.0,0.0,1.2367,0.0,0.0,1.2188,1.2455,1.26,0.0,0.0,0.0,0.0,0.0,0.0,1.2111,0.0,0.0,0.0,0.0,0.0,1.2757,1.18,0.0,1.1662,1.1486,1.2073,1.2238,0.0,1.1573,1.1346,1.1196,1.0747,1.0609,1.0609,1.0609,1.0609,1.0609,0.0,0.0,1.0609,1.0609,0.0,0.0,0.0,0.0,0.0,0.0,0.0,0.0,0.0,0.0,0.0,0.0,0.0,0.0,0.0,0.0,0.0,0.0,0.0,0.0,0.0,0.0,1.3243,1.3506,1.4201,1.4797,1.5215,1.5778,1.6163,1.6304,1.6719,1.709,1.7399,1.7529,1.7734,1.7991,1.7991,1.7991,1.7991,1.7991,1.7991,1.7991,1.7991,1.7991,1.7991,1.7991,1.8168,1.8496,1.9077,1.9661,2.0387,2.2017,2.3204,2.4155,1.0457,0.0,0.0,0.0,0.0,0.0,0.0,0.0,0.0,0.0,1.1679,0.0,1.1498,0.0,1.1035,0.0,1.1299,1.1557,1.1893,1.2338,0.0,1.123,1.2185,0.0,0.0,0.0,0.0,1.2688,1.2827,1.2905,0.0,0.0,0.0,0.0,0.0,1.2432,1.2872,1.3272,1.3557,0.0,0.0,1.2266,0.0,0.0,1.1319,1.1486,0.0,1.2305,1.2211,1.1606,1.1406,1.1306,1.0774,1.0609,1.0609,1.0609,1.0609,1.0609,1.0609,1.0609,0.0,1.0609,1.0609,0.0,1.0609,0.0,1.0247,0.0,0.0,0.0,0.0,0.0,0.0,0.0,0.0,0.0,0.0,0.8791,0.0,0.0,0.0,0.0,0.0,1.1635,1.2136,1.2462,1.3195,1.3898,1.4501,1.5098,1.5551,1.5845,1.626,1.6631,1.693,1.7243,1.7536,1.7793,1.7939,1.7991,1.7991,1.7991,1.7991,1.7991,1.7991,1.7991,1.7991,1.7991,1.7991,1.8059,1.862,1.9027,1.9513,2.1254,2.2783,2.4104,1.039,0.0,0.0,0.0,1.0655,0.0,0.0,0.0,1.1606,0.0,1.1333,1.1073,1.101,1.1039,1.1149,1.1406,1.1446,1.1446,1.1432,1.1945,0.0,0.0,1.1897,1.1991,1.1115,0.0,0.0,1.2298,1.2723,1.2913,0.0,0.0,0.0,0.0,1.2905,0.0,1.3552,1.3938,1.3893,1.3474,1.2278,1.1787,1.1685,1.1194,1.1162,1.1466,1.2071,1.2291,1.2211,1.1606,1.1406,1.1306,1.0774,1.0609,1.0609,1.0609,1.0609,1.0609,1.0609,1.0609,1.0609,1.0609,1.0609,0.0,0.0,0.0,1.0512,0.0,0.0,0.0,0.0,0.0,0.0,0.0,0.0,0.0,0.0,0.0,0.0,0.0,0.0,0.0,0.0,1.0164,1.0617,1.0152,1.1619,1.2665,0.0,1.3762,1.4555,1.5323,1.5766,1.6035,1.6095,1.6879,1.7318,1.7409,1.7793,1.7988,1.7991,1.7991,1.7991,1.7991,1.7991,1.7991,1.7991,1.7991,1.7991,1.7991,1.7991,1.8529,1.9513,2.1254,2.2755,2.392,1.039,1.0547,1.0752,0.0,1.083,1.1057,0.0,0.0,0.0,0.0,1.1128,1.1016,1.0992,1.14,1.1694,1.1768,1.1951,0.0,0.0,0.0,0.0,1.1042,1.1805,1.188,1.1122,1.1936,0.0,1.2298,1.2995,1.3184,1.2905,0.0,0.0,0.0,0.0,0.0,1.3948,1.4065,1.3732,1.3072,1.2166,1.1437,1.0914,0.0,1.1042,1.1182,1.1788,1.2136,1.2211,1.1606,1.1406,1.1306,1.0774,1.0609,1.0609,1.0609,1.0609,1.0609,1.0609,1.0609,1.0609,1.0609,1.0609,1.0609,0.0,0.0,0.0,0.0,0.0,0.0,0.0,0.0,0.0,0.0,0.0,0.0,0.0,0.0,0.0,0.8791,0.0,0.0,0.8905,0.935,0.9841,1.0366,1.1161,1.1954,1.2663,0.0,1.4293,1.4495,1.4626,1.514,1.6095,1.5729,1.6179,1.7399,1.7507,1.7705,1.7991,1.7991,1.7991,1.7991,1.7991,1.7991,1.7991,1.7991,1.7991,1.7991,1.7991,1.8529,1.9513,2.127,2.2128,2.2589,1.0577,0.0,0.0,1.1709,0.0,0.0,1.1567,1.1324,0.0,1.1308,1.1119,0.0,1.1366,1.1705,1.1953,1.2062,1.2204,0.0,1.2082,0.0,0.0,1.1424,1.1574,1.1477,1.1067,1.1571,0.0,1.2047,0.0,0.0,1.2905,0.0,0.0,0.0,0.0,1.335,1.408,1.3751,1.3377,1.2902,1.1733,1.0998,0.0,1.0774,1.0898,1.1035,1.1387,1.167,1.1833,1.1372,1.1236,1.1156,1.0734,1.0609,1.0609,1.0609,1.0609,1.0609,1.0609,1.0609,1.0609,1.0609,1.0609,1.0609,1.0609,1.0609,1.0609,0.0,1.0443,1.0323,0.0,0.0,0.0,0.0,0.0,0.0,0.0,0.0,0.0,0.0,0.8791,0.0,0.8791,0.8945,0.9275,0.9885,1.0351,1.1019,1.1988,0.0,1.331,1.3651,1.3681,1.4012,1.4745,1.4462,1.5002,1.6319,1.6653,1.7149,1.7744,1.793,1.7991,1.7991,1.7991,1.7991,1.7991,1.7991,1.7991,1.7991,1.7991,1.8303,1.8904,2.0268,2.1005,2.1506,1.0986,0.0,0.0,0.0,0.0,0.0,0.0,1.1286,0.0,1.1483,0.0,1.1273,1.1846,1.194,1.2049,1.2278,0.0,1.2305,1.2305,1.2082,1.1946,1.1906,1.136,1.1035,1.0995,1.1128,1.1394,0.0,0.0,0.0,0.0,0.0,0.0,0.0,0.0,0.0,0.0,1.3271,1.2933,1.2719,1.1209,1.0609,1.0609,1.0609,1.0747,1.0952,1.0952,1.1149,1.1366,1.1089,1.0995,1.0942,1.068,1.0609,1.0609,1.0609,1.0609,1.0609,1.0609,1.0609,1.0609,1.0609,1.0609,1.0609,1.0609,1.0609,1.0609,1.0609,1.0609,1.0609,1.0609,0.0,0.0,0.0,0.0,0.0,0.0,0.0,0.0,0.0,0.0,0.0,0.8791,0.8791,0.8898,0.9138,0.9445,1.006,1.1034,0.0,1.2081,1.2818,1.2841,1.2894,1.2993,1.3236,1.3818,1.4731,1.5436,1.6289,1.7235,1.7593,1.7847,1.7991,1.7991,1.7991,1.7991,1.7991,1.7991,1.7991,1.7991,1.7991,1.8093,1.8854,1.9612,2.0398,1.1892,0.0,0.0,0.0,0.0,1.2018,1.1307,1.1137,1.1108,1.1094,1.1229,1.1483,1.1866,1.2102,1.2245,1.2298,1.2305,0.0,0.0,0.0,0.0,1.1913,1.1536,1.1236,1.0995,1.1436,1.1873,0.0,0.0,0.0,0.0,0.0,0.0,0.0,0.0,0.0,1.3113,1.3036,0.0,1.1927,1.0989,1.0609,1.0609,1.0609,1.0626,1.0667,1.0667,1.0975,1.1366,1.1089,1.0995,1.0942,1.068,1.0609,1.0609,1.0609,1.0609,1.0609,1.0609,1.0609,1.0609,1.0609,1.0609,1.0609,1.0609,1.0609,1.0609,1.0609,1.0609,1.0609,1.0609,0.0,0.0,0.0,0.0,0.0,0.0,0.0,0.0,0.0,0.0,0.8791,0.0,0.8791,0.8818,0.8865,0.9124,0.9488,0.9958,0.0,1.1579,0.0,1.202,1.2328,0.0,0.0,1.2695,1.3821,1.3964,1.4831,1.6331,1.6405,1.7017,1.7991,1.7991,1.7991,1.7991,1.7991,1.7991,1.7991,1.7991,1.7991,1.8025,1.8168,1.832,1.867,0.0,0.0,0.0,0.0,0.0,0.0,0.0,1.1311,1.1099,1.1196,1.147,1.177,1.2076,1.2218,1.2305,1.2305,1.2305,1.2305,1.2305,1.2305,1.2238,1.2116,1.1646,1.1346,1.1206,1.1194,1.1577,1.2407,0.0,0.0,0.0,0.0,0.0,0.0,0.0,1.2892,0.0,0.0,0.0,1.1725,1.0926,1.0609,1.0609,1.0609,1.0609,1.0609,1.0609,1.0774,1.0972,1.0831,1.0784,1.0774,1.0633,1.0609,1.0609,1.0609,1.0609,1.0609,1.0609,1.0609,1.0609,1.0609,1.0609,1.0609,1.0609,1.0609,1.0609,1.0609,1.0609,1.0609,1.0609,1.0222,0.0,0.0,0.0,0.0,0.0,0.0,0.0,0.0,0.0,0.0,0.0,0.0,0.0,0.0,0.0,0.9344,0.9681,0.0,1.0823,0.0,0.0,0.0,1.1756,0.0,1.1682,1.2664,1.2885,1.3704,1.508,1.5288,1.6069,1.7268,1.7268,1.7552,1.7991,1.7991,1.7991,1.7991,1.7991,1.7991,1.7991,1.7991,1.7991,1.8185,0.0,1.3262,0.0,0.0,1.2169,0.0,1.1878,1.1513,1.1263,1.1472,1.1741,1.2002,1.2271,1.2305,1.2305,1.2305,1.2305,1.2305,1.2305,1.2305,1.2305,1.2305,1.1719,1.1406,1.1406,1.0871,1.115,0.0,0.0,0.0,0.0,0.0,0.0,0.0,0.0,0.0,0.0,0.0,1.1694,1.1484,1.0863,1.0609,1.0609,1.0609,1.0609,1.0609,1.0609,1.0609,1.0609,1.0609,1.0609,1.0609,1.0609,1.0609,1.0609,1.0609,1.0609,1.0609,1.0609,1.0609,1.0609,1.0609,1.0609,1.0609,1.0609,1.0609,1.0609,1.0609,1.0609,1.0609,1.0609,1.0329,0.0,0.0,0.0,0.0,0.0,0.0,0.0,0.0,0.0,0.0,0.8791,0.0,0.0,0.0,0.0,0.0,0.9681,0.0,0.0,0.0,0.0,1.0609,1.0609,0.0,1.0926,1.1546,1.1874,1.2654,1.385,1.4177,1.5035,1.6297,1.6297,1.6836,1.7716,1.7923,1.7991,1.7991,1.7991,1.7991,1.7991,1.7991,1.7991,1.811,0.0,0.0,0.0,0.0,0.0,0.0,1.1205,1.1512,1.1815,1.1841,1.1886,1.2002,1.2271,1.2305,1.2305,1.2305,1.2305,1.2305,1.2305,1.2305,1.2305,1.2305,1.1719,1.1406,1.1406,1.0871,1.1015,0.0,0.0,1.2547,0.0,0.0,0.0,0.0,0.0,0.0,0.0,1.1989,1.1375,1.0713,1.0634,1.0609,1.0609,1.0609,1.0609,1.0609,1.0609,1.0609,1.0609,1.0609,1.0609,1.0609,1.0609,1.0609,1.0609,1.0609,1.0609,1.0609,1.0609,1.0609,1.0609,1.0609,1.0609,1.0609,1.0609,1.0609,1.0609,1.0609,1.0609,1.0609,1.0609,1.0329,1.0092,0.0,0.0,0.0,0.0,0.0,0.8791,0.8791,0.0,0.0,0.8791,0.8791,0.8791,0.8791,0.8818,0.0,0.0,0.0,0.0,1.0573,1.0609,1.0609,1.0609,1.0609,1.064,1.0713,1.074,1.1564,1.3016,1.3047,1.3896,1.534,1.534,1.586,1.6801,1.7647,1.7991,1.7991,1.7991,1.7991,1.7991,1.7991,1.7991,1.8008,0.0,0.0,0.0,0.0,0.0,0.0,0.0,1.1734,1.1966,1.2122,1.2149,1.2171,1.2285,1.2305,1.2305,1.2305,1.2305,1.2305,1.2305,1.2305,1.2305,1.2305,1.1719,1.1645,1.2173,1.1147,1.1233,0.0,0.0,0.0,0.0,0.0,0.0,0.0,0.0,1.2986,1.2373,1.1966,1.1335,1.0609,1.0609,1.0609,1.0609,1.0609,1.0609,1.0609,1.0609,1.0609,1.0609,1.0609,1.0609,1.0609,1.0609,1.0609,1.0609,1.0609,1.0609,1.0609,1.0609,1.0609,1.0609,1.0609,1.0609,1.0609,1.0609,1.0609,1.0609,1.0609,1.0609,1.0609,1.0609,1.0492,1.0321,1.0132,0.0,0.0,0.0,0.0,0.0,0.8818,0.0,0.8791,0.0,0.8791,0.8791,0.8791,0.0,0.0,0.0,0.0,0.0,1.0573,0.0,1.0609,1.0609,1.0609,1.0609,1.0609,1.0609,1.1089,1.2003,1.2003,1.2848,1.436,1.5526,1.6245,1.6671,1.7613,1.7991,1.7991,1.7991,1.7991,1.7991,1.7991,1.7991,1.7991,1.3883,0.0,1.217,0.0,1.1514,1.1407,1.1821,1.198,1.2089,1.2278,1.2305,1.2305,1.2305,1.2305,1.2305,1.2305,1.2305,1.2305,1.2305,1.2305,1.2305,1.2305,1.1719,0.0,1.2308,1.1415,1.1389,1.2289,1.2484,0.0,0.0,0.0,0.0,0.0,1.3806,1.3345,1.2882,1.2119,1.1469,1.0926,1.0697,1.0609,1.0609,1.0609,1.0609,1.0609,1.0609,1.0609,1.0609,1.0609,1.0609,1.0609,1.0609,1.0609,1.0609,1.0609,1.0609,1.0609,1.0609,1.0609,1.0609,1.0609,1.0609,1.0609,1.0609,1.0609,1.0609,1.0609,1.0609,1.0609,1.0609,1.0609,1.0519,1.0281,0.0,0.0,0.0,0.931,0.0,0.8945,0.8844,0.8791,0.8791,0.8871,0.8918,0.8918,0.0,0.0,0.0,0.0,0.0,0.0,0.0,0.0,1.0609,1.0609,1.0609,1.0609,1.0609,1.0878,1.1412,1.1586,1.226,1.3382,1.5031,1.5913,1.6262,1.72,1.7759,1.7991,1.7991,1.7991,1.7991,1.7991,1.7991,1.7991,1.3334,1.3212,1.2884,1.1294,1.1504,1.1899,1.1906,1.2129,1.2298,1.2305,1.2305,1.2305,1.2305,1.2305,1.2305,1.2305,1.2305,1.2305,1.2305,1.2305,1.2305,0.0,0.0,1.1406,1.1423,1.1668,1.1413,1.0624,0.0,0.0,1.2443,0.0,1.4352,1.4761,1.3963,1.3814,1.4061,1.2489,1.178,1.1725,1.0926,1.0609,1.0609,1.0609,1.0609,1.0609,1.0609,1.0609,1.0609,1.0609,1.0609,1.0609,1.0609,1.0609,1.0609,1.0609,1.0609,1.0609,1.0609,1.0609,1.0609,1.0609,1.0609,1.0609,1.0609,1.0609,1.0609,1.0609,1.0609,1.0609,1.0609,1.0609,1.0609,1.0586,0.0,0.0,0.0,0.9577,0.0,0.9197,0.8965,0.8791,0.8791,0.9038,0.0,0.0,0.0,0.0,0.0,0.0,0.0,1.0595,1.0609,0.0,1.0609,1.0609,1.0609,1.0609,1.0609,1.0878,1.1426,1.2031,1.2298,1.2372,1.3328,1.4296,1.5287,1.6236,1.7156,1.7991,1.7991,1.7991,1.7991,1.7991,1.7991,1.7991,1.3447,1.2901,1.2383,1.1723,1.1761,1.1955,1.2131,1.2245,1.2305,1.2305,1.2149,1.2022,1.2022,1.2184,1.2305,0.0,1.2305,1.2305,0.0,1.2136,1.2022,1.2022,1.1443,1.1382,1.193,1.1847,1.1942,1.2243,0.0,0.0,0.0,1.4826,1.5064,1.5172,1.437,1.3785,1.3349,1.2833,1.1981,1.1005,1.1304,1.1092,1.0609,1.0609,1.0609,1.0609,1.0609,1.0609,1.0609,1.0609,1.0609,1.0609,1.0609,1.0609,1.0609,1.0609,1.0609,1.0609,1.0609,1.0609,1.0609,1.0609,1.0609,1.0609,1.0609,1.0609,1.0609,1.0609,1.0609,1.0609,1.0609,1.0609,1.0609,1.0609,1.0512,0.0,1.0132,0.0,0.9752,0.9566,0.9459,0.942,0.942,0.9486,0.0,0.0,0.0,0.0,0.0,0.0,0.0,0.0,1.0609,0.0,1.0609,1.0609,1.0609,1.0593,1.0794,1.1179,1.1754,1.2131,1.2305,1.236,1.3291,1.4279,1.5269,1.621,1.7156,1.7991,1.7991,1.7991,1.7991,1.7991,1.7991,1.7991,1.3367,1.2679,1.2065,1.1641,1.1647,1.1764,1.1944,1.1953,1.1953,1.1953,1.1817,1.1703,1.1703,1.1864,0.0,1.1953,1.1953,1.1953,1.1953,1.1804,1.1703,1.1703,1.1249,1.1245,1.173,1.1779,0.0,1.2543,1.3364,1.4019,1.4495,1.4495,1.4495,1.4481,1.3965,1.347,1.2978,1.268,1.1965,1.1061,1.1273,1.1045,1.0609,1.0609,1.0609,1.0609,1.0609,1.0609,1.0609,1.0609,1.0609,1.0609,1.0609,1.0609,1.0609,1.0609,1.0609,1.0609,1.0609,1.0609,1.0609,1.0609,1.0609,1.0609,1.0609,1.0609,1.0609,1.0609,1.0609,1.0609,1.0609,1.0609,1.0609,1.0609,1.0609,1.0526,1.0323,0.0,1.0032,0.0,0.0,0.9701,0.0,0.9794,0.9846,0.0,0.0,0.0,0.0,0.0,1.0383,1.0586,1.0609,1.0609,1.0609,1.0609,1.0646,1.076,1.1146,1.1534,1.1913,1.2189,1.2305,1.2342,1.2915,1.3738,1.47,1.5685,1.6628,1.7501,1.7862,1.7991,1.7991,1.7991,1.7991,1.7991,1.3094,1.2539,1.1958,0.0,1.1226,0.0,1.1406,1.1406,1.1406,1.1406,1.1375,1.1362,1.1362,1.1359,1.1346,1.1346,0.0,0.0,1.1406,1.1375,1.1362,1.1362,1.1122,1.0962,1.0962,1.1511,1.1834,1.188,1.2696,1.3085,1.3085,1.3085,1.3085,1.3085,1.2978,1.2917,1.2872,1.2128,1.1772,1.1663,1.0958,1.0656,1.0609,1.0609,1.0609,1.0609,1.0609,1.0609,1.0609,1.0609,1.0609,1.0609,1.0609,1.0609,1.0609,1.0609,1.0609,1.0609,1.0609,1.0609,1.0609,1.0609,1.0609,1.0609,1.0609,1.0609,1.0609,1.0609,1.0609,1.0609,1.0609,1.0609,1.0609,1.0609,1.0609,1.0609,1.0609,1.0321,1.0132,1.0132,0.0,0.0,0.9761,0.9987,1.0132,0.0,0.0,0.0,0.0,0.0,1.0609,1.0609,1.0609,1.0609,1.0609,1.0613,1.0764,1.1079,1.1621,1.1913,1.1946,1.2196,1.2305,1.2305,1.2305,1.2824,1.3763,1.47,1.5649,1.6584,1.7449,1.7854,1.7896,1.7896,1.794,1.7991,0.0,0.0,1.2014,1.1411,1.1359,1.1406,1.1406,1.1406,1.1406,1.1406,1.1219,1.1096,1.1096,1.0918,1.0801,1.0801,1.1152,1.1406,1.1406,1.1206,1.1096,1.1096,1.0831,1.0693,1.0693,1.1411,1.2089,1.2719,1.3515,1.3921,1.3921,1.3921,1.3921,1.3861,1.2626,1.2081,1.2066,1.188,1.1453,1.0926,1.1351,1.1155,1.0609,1.0609,1.0609,1.0609,1.0609,1.0609,1.0609,1.0609,1.0609,1.0609,1.0609,1.0609,1.0609,1.0609,1.0609,1.0609,1.0609,1.0609,1.0609,1.0609,1.0609,1.0609,1.0609,1.0609,1.0609,1.0609,1.0609,1.0609,1.0609,1.0609,1.0609,1.0609,1.0609,1.0609,1.0609,1.0533,1.0486,0.0,1.0425,1.0385,1.0385,1.0445,1.0486,0.0,0.0,1.0609,1.0609,1.0609,1.0609,1.0609,1.0609,1.0609,1.0609,1.0798,1.1166,1.1681,1.1839,1.2002,1.2204,1.2271,1.2305,1.2305,1.2305,1.2824,1.3727,1.3954,1.4647,1.5544,1.5781,1.6289,1.6922,1.6922,1.7371,1.7991,1.2075,1.1723,1.1371,1.1084,1.1029,1.1029,1.1029,1.1029,1.1029,1.1029,1.0912,1.0827,1.0827,1.0687,1.0609,1.0609,1.0865,1.1029,1.1029,1.0898,1.0827,1.0827,1.0673,1.0609,1.0609,1.1036,1.164,1.2451,1.2886,1.309,1.3098,1.2733,1.2558,1.2527,1.164,1.1257,1.1257,1.1257,1.0998,1.064,1.1076,1.0989,1.0609,1.0609,1.0609,1.0609,1.0609,1.0609,1.0609,1.0609,1.0609,1.0609,1.0609,1.0609,1.0609,1.0609,1.0609,1.0609,1.0609,1.0609,1.0609,1.0609,1.0609,1.0609,1.0609,1.0609,1.0609,1.0609,1.0609,1.0609,1.0609,1.0609,1.0609,1.0609,1.0609,1.0609,1.0609,1.0609,1.0609,1.0609,1.0609,1.0609,1.0609,1.0609,1.0609,1.0609,1.0609,0.0,1.0609,1.0609,1.0609,1.0609,1.0609,1.066,1.0787,1.1199,1.1574,1.1906,1.2022,1.2169,1.2305,1.2305,1.2305,1.2305,1.2305,1.2592,1.3098,1.3528,1.4027,1.4557,1.5021,1.5508,1.5965,1.5965,1.6271,1.6724,1.1617,1.1061,1.0609,1.0609,1.0609,1.0609,1.0609,1.0609,1.0609,1.0609,1.0609,1.0609,1.0609,1.0609,1.0609,1.0609,1.0609,1.0609,1.0609,1.0609,1.0609,1.0609,1.0609,1.0609,1.0609,1.0609,1.0926,1.1617,1.1741,1.1803,1.1787,1.1108,1.0776,1.0776,1.0649,1.0609,1.0609,1.0609,1.0609,1.0609,1.0609,1.0609,1.0609,1.0609,1.0609,1.0609,1.0609,1.0609,1.0609,1.0609,1.0609,1.0609,1.0609,1.0609,1.0609,1.0609,1.0609,1.0609,1.0609,1.0609,1.0609,1.0609,1.0609,1.0609,1.0609,1.0609,1.0609,1.0609,1.0609,1.0609,1.0609,1.0609,1.0609,1.0609,1.0609,1.0609,1.0609,0.0,1.0609,1.0609,1.0609,1.0609,1.0609,1.0609,1.0609,1.0609,1.0609,1.0609,1.0609,1.0609,1.0613,1.066,1.066,1.0804,1.1139,1.1641,1.1926,1.1955,1.2184,1.2305,1.2305,1.2305,1.2305,1.2305,1.2305,1.2305,1.2353,1.3164,1.3491,1.3564,1.4432,1.4843,1.4968,1.4968,1.5074,1.5199,1.0791,1.0688,1.0609,1.0609,1.0609,1.0609,1.0609,1.0609,1.0609,1.0609,1.0609,1.0609,1.0609,1.0609,1.0609,1.0609,1.0609,1.0609,1.0609,1.0609,1.0609,1.0609,1.0609,1.0609,1.0609,1.0609,1.0649,1.0791,1.1469,1.1803,1.1803,1.1663,1.1601,1.1578,1.0895,1.0609,1.0609,1.0609,1.0609,1.0609,1.0609,1.0609,1.0609,1.0609,1.0609,1.0609,1.0609,1.0609,1.0609,1.0609,1.0609,1.0609,1.0609,1.0609,1.0609,1.0609,1.0609,1.0609,1.0609,1.0609,1.0609,1.0609,1.0609,1.0609,1.0609,1.0609,1.0609,1.0609,1.0609,1.0609,1.0609,1.0609,1.0609,1.0609,1.0609,1.0609,1.0609,0.0,1.0609,1.0609,1.0609,1.0609,1.0609,1.0609,1.0609,1.0609,1.0609,1.0609,1.0609,1.0609,1.0707,1.0932,1.0938,1.1206,1.1741,1.1841,1.2009,1.2238,1.2278,1.2305,1.2305,1.2305,1.2305,1.2305,1.2305,1.2305,1.2305,1.2464,1.2519,1.2537,1.2696,1.3237,1.3936,1.3936,1.4468,1.5199,1.0609,1.0609,1.0609,1.0609,1.0609,1.0609,1.0609,1.0609,1.0609,1.0609,1.0609,1.0609,1.0609,1.0609,1.0609,1.0609,1.0609,1.0609,1.0609,1.0609,1.0609,1.0609,1.0609,1.0609,1.0609,1.0609,1.0609,1.0609,1.0966,1.1148,1.1148,1.1148,1.1148,1.1139,1.0776,1.0609,1.0609,1.0609,1.0609,1.0609,1.0609,1.0609,1.0609,1.0609,1.0609,1.0609,1.0609,1.0609,1.0609,1.0609,1.0609,1.0609,1.0609,1.0609,1.0609,1.0609,1.0609,1.0609,1.0609,1.0609,1.0609,1.0609,1.0609,1.0609,1.0609,1.0609,1.0609,1.0609,1.0609,1.0609,1.0609,1.0609,1.0609,1.0609,1.0609,1.0609,1.0609,1.0609,1.0609,1.0609,1.0609,1.0609,1.0609,1.0609,1.0609,1.0609,1.0609,1.0396,0.9935,1.0477,1.0402,0.9521,1.0797,1.1614,1.1899,1.2042,1.2189,1.2305,1.2305,1.2305,1.2305,1.2305,1.2305,1.2305,1.2305,1.2305,1.2305,1.2305,1.2305,1.2305,1.2305,1.2556,1.2952,1.2952,1.3237,1.3647,1.0879,1.0728,1.0609,1.0609,1.0609,1.0609,1.0609,1.0609,1.0609,1.0609,1.0609,1.0609,1.0609,1.0609,1.0609,1.0609,1.0609,1.0609,1.0609,1.0609,1.0609,1.0609,1.0609,1.0609,1.0609,1.0609,1.0609,1.0609,1.0609,1.0609,1.0609,1.0609,1.0609,1.0609,1.0609,1.0609,1.0609,1.0609,1.0609,1.0609,1.0609,1.0609,1.0609,1.0609,1.0609,1.0609,1.0609,1.0609,1.0609,1.0609,1.0609,1.0609,1.0609,1.0609,1.0609,1.0609,1.0609,1.0609,1.0609,1.0609,1.0609,1.0609,1.0609,1.0609,1.0609,1.0609,1.0609,1.0609,1.0609,1.0609,1.0609,1.0609,1.0609,1.0609,0.0,1.0609,1.0609,1.0609,1.0609,1.0609,1.0609,1.0609,1.0609,1.0609,1.0514,1.0301,1.0328,0.9959,0.9097,0.9895,0.9755,0.8378,1.0437,1.1587,1.1634,1.2075,1.2305,1.2305,1.2305,1.2305,1.2305,1.2305,1.2305,1.2305,1.2305,1.2305,1.2305,1.2305,1.2305,1.2305,1.2305,1.2305,1.2305,1.2305,1.2305,1.2305,1.171,1.1108,1.0609,1.0609,1.0609,1.0609,1.0609,1.0609,1.0609,1.0609,1.0609,1.0609,1.0609,1.0609,1.0609,1.0609,1.0609,1.0609,1.0609,1.0609,1.0609,1.0609,1.0609,1.0609,1.0609,1.0609,1.0609,1.0609,1.0609,1.0609,1.0609,1.0609,1.0609,1.0609,1.0609,1.0609,1.0609,1.0609,1.0609,1.0609,1.0609,1.0609,1.0609,1.0609,1.0609,1.0609,1.0609,1.0609,1.0609,1.0609,1.0609,1.0609,1.0609,1.0609,1.0609,1.0609,1.0609,1.0609,1.0609,1.0609,1.0609,1.0609,1.0609,1.0609,1.0609,1.0609,1.0609,1.0609,1.0609,1.0609,1.0609,1.0609,1.0609,1.0609,0.0,0.0,1.0609,1.0609,1.0609,1.0609,1.0609,1.0609,1.0609,1.0609,1.0269,0.9466,0.9512,0.9209,0.8326,0.8477,0.8644,0.876,0.9892,1.0628,1.0884,1.1817,1.2305,1.2305,1.2305,1.2305,1.2305,1.2305,1.2305,1.2305,1.2305,1.2305,1.2305,1.2305,1.2305,1.2305,1.2305,1.2305,1.2305,1.2305,1.2305,1.2305,1.1803,1.1148,1.0609,1.0609,1.0609,1.0609,1.0609,1.0609,1.0609,1.0609,1.0609,1.0609,1.0609,1.0609,1.0609,1.0609,1.0609,1.0609,1.0609,1.0609,1.0609,1.0609,1.0609,1.0609,1.0609,1.0609,1.0609,1.0609,1.0609,1.0609,1.0609,1.0609,1.0609,1.0609,1.0609,1.0609,1.0609,1.0609,1.0609,1.0609,1.0609,1.0609,1.0609,1.0609,1.0609,1.053,0.9983,0.9786,0.9706,0.9176,0.8983,0.8983,0.8983,0.8983,0.8983,0.8983,0.8983,0.8983,0.8983,0.9779,1.0609,1.0609,1.0609,1.0609,1.0609,1.0609,1.0609,1.0609,1.0609,1.0609,1.0609,1.0609,1.0609,1.0609,0.0,1.0609,1.0609,1.0609,1.0609,1.0609,1.0609,1.0609,1.0609,1.011,0.9693,0.9436,0.897,0.8356,0.756,0.7126,0.7308,0.8149,0.8566,0.9443,1.0783,1.118,1.1675,1.2305,1.2305,1.2305,1.2305,1.2305,1.2305,1.2305,1.2305,1.2305,1.2305,1.2305,1.2305,1.2305,1.2305,1.2305,1.2305,1.2305,1.2305,1.2305,1.1803,1.1148,1.0609,1.0609,1.0609,1.0609,1.0609,1.0609,1.0609,1.0609,1.0609,1.0609,1.0609,1.0609,1.0609,1.0609,1.0609,1.0609,1.0609,1.0609,1.0609,1.0609,1.0609,1.0466,1.0206,1.046,1.0333,0.9779,1.0333,1.046,1.0206,1.0466,1.0609,1.0609,1.0609,1.0609,1.0609,1.0609,1.0609,1.0609,1.0609,1.0609,1.0609,1.0609,1.0609,1.0523,0.9913,0.9706,0.9578,0.8694,0.8404,0.8355,0.8091,0.7994,0.7994,0.7994,0.7994,0.7994,0.7994,0.8865,0.9843,1.012,1.019,1.019,1.019,1.019,1.0104,0.9843,1.0009,1.0104,0.9827,0.9779,0.9779,0.9779,0.9779,0.9875,1.0152,1.019,1.0285,1.0577,1.0609,1.0609,1.0609,1.0139,0.9756,0.9576,0.8832,0.7932,0.6902,0.6361,0.6468,0.7303,0.7326,0.8137,0.9847,1.0484,1.1143,1.1823,1.215,1.2305,1.2305,1.2305,1.2305,1.2305,1.2305,1.2305,1.2305,1.2305,1.2305,1.2305,1.2305,1.2305,1.2305,1.2305,1.2305,1.2305,1.1803,1.1148,1.0609,1.0609,1.0609,1.0609,1.0609,1.0609,1.0609,1.0609,1.0609,1.0609,1.0609,1.0609,1.0609,1.0609,1.0593,1.0593,1.0577,1.0593,1.0593,1.0577,1.0593,1.0206,0.9338,1.0158,0.9748,0.801,0.9748,1.0142,0.9306,1.0174,1.0577,1.0593,1.0593,1.0593,1.0609,1.0609,1.0609,1.0609,1.0609,1.0609,1.0609,1.0609,1.0609,1.0593,1.0577,1.0577,1.0444,0.9562,0.9274,0.9123,0.8253,0.7978,0.7978,0.7978,0.7978,0.7978,0.7978,0.7994,0.8205,0.9075,0.929,0.929,0.929,0.929,0.9043,0.8172,0.8683,0.9027,0.8156,0.7994,0.7994,0.7994,0.7994,0.8302,0.9172,0.929,0.961,1.0482,1.0577,1.0577,1.0593,1.0822,1.0609,0.9756,0.9124,0.805,0.6386,0.63,0.63,0.63,0.63,0.6776,0.7783,0.9771,1.0783,1.0802,1.1805,1.228,1.228,1.2305,1.2305,1.2305,1.2305,1.2305,1.2305,1.2305,1.2305,1.2305,1.2305,1.2305,1.2305,1.2305,1.2305,1.2305,1.1803,1.1148,1.0609,1.0609,1.0609,1.0609,1.0609,1.0609,1.0609,1.0609,1.0609,1.0609,1.0609,1.0609,1.0609,1.0609,1.004,0.9428,0.8817,0.9348,0.9412,0.8807,0.9939,1.0482,1.0222,1.0466,1.0056,0.8909,0.9428,0.9246,0.8388,0.8662,0.9102,0.969,0.969,1.0031,1.0609,1.0609,1.0609,1.0609,1.0609,1.0609,1.0609,1.0609,1.0222,0.961,0.9,0.8377,0.7725,0.6859,0.6568,0.6519,0.626,0.6178,0.6178,0.6178,0.6178,0.6178,0.6178,0.6625,0.7291,0.8172,0.8388,0.8388,0.8388,0.8388,0.8323,0.8059,0.8205,0.8307,0.8043,0.7994,0.7994,0.7994,0.7994,0.8091,0.8355,0.8388,0.8484,0.8737,0.8769,0.9016,0.9626,0.8744,0.83,0.875,0.7699,0.6835,0.6335,0.63,0.63,0.63,0.63,0.6451,0.6737,0.8046,0.9045,0.9763,1.077,1.1261,1.1273,1.1978,1.2305,1.2305,1.2305,1.2305,1.2305,1.2305,1.2305,1.2305,1.2305,1.2305,1.2305,1.2305,1.2305,1.2305,1.1335,1.0926,1.0609,1.0609,1.0609,1.0609,1.0609,1.0609,1.0609,1.0609,1.0609,1.0609,1.0609,1.0609,1.046,1.0126,0.9284,0.8565,0.8043,0.8484,0.8549,0.8027,0.9016,0.9566,0.9566,0.9913,0.9658,0.878,0.9123,0.8861,0.7994,0.7994,0.8291,0.878,0.878,0.9086,0.9566,0.9566,0.9566,0.9566,0.9566,0.9566,0.9566,0.9566,0.9246,0.871,0.8188,0.7665,0.7079,0.6207,0.5686,0.5395,0.5395,0.5395,0.5395,0.5395,0.5395,0.5395,0.5395,0.5782,0.6318,0.6842,0.723,0.7486,0.7486,0.7486,0.7388,0.7039,0.7246,0.7372,0.7039,0.6973,0.6973,0.6973,0.6973,0.7083,0.7437,0.7486,0.7616,0.7962,0.7994,0.8225,0.8799,0.8076,0.7732,0.8138,0.7373,0.6718,0.6319,0.63,0.63,0.63,0.63,0.63,0.63,0.6911,0.7706,0.8708,0.9725,1.0209,1.0246,1.1242,1.1712,1.1731,1.2132,1.2305,1.2305,1.2305,1.2305,1.2305,1.2305,1.2305,1.2305,1.2305,1.2305,1.2305,1.0609,1.0609,1.0609,1.0609,1.0609,1.0609,1.0609,1.0609,1.0609,1.0609,1.0609,1.0577,1.0491,1.0482,1.0126,0.9252,0.8388,0.7848,0.7767,0.7848,0.7848,0.7767,0.7848,0.7881,0.7881,0.8732,0.8764,0.7881,0.8678,0.8619,0.7767,0.7767,0.7816,0.7881,0.7881,0.7929,0.7994,0.7994,0.7994,0.7994,0.7994,0.7994,0.7994,0.7994,0.7945,0.7881,0.7881,0.7832,0.7653,0.685,0.6058,0.5395,0.5395,0.5395,0.5395,0.5395,0.5395,0.5395,0.5395,0.5395,0.5395,0.5395,0.5992,0.6593,0.6593,0.6593,0.6367,0.5557,0.6025,0.6346,0.5541,0.5395,0.5395,0.5395,0.5395,0.567,0.6478,0.6593,0.6883,0.767,0.7767,0.7856,0.8056,0.8327,0.8259,0.7696,0.7668,0.7269,0.6358,0.63,0.63,0.63,0.63,0.63,0.63,0.63,0.6756,0.7687,0.8689,0.9169,0.9202,1.0209,1.0708,1.0845,1.1768,1.2224,1.2305,1.2305,1.2305,1.2305,1.2305,1.2305,1.2305,1.2305,1.2305,1.2305,1.0609,1.0609,1.0609,1.0609,1.0609,1.0609,1.0609,1.0609,1.0609,1.0609,1.0609,1.0333,0.9658,0.9578,0.9236,0.8355,0.7486,0.6691,0.6013,0.6609,0.6674,0.5996,0.6609,0.6981,0.6981,0.7832,0.7859,0.6981,0.7177,0.6822,0.5967,0.5967,0.6322,0.6981,0.6981,0.7356,0.7994,0.7994,0.7994,0.7994,0.7994,0.7994,0.7994,0.7994,0.7567,0.6981,0.6981,0.6547,0.593,0.5752,0.5557,0.5395,0.5395,0.5395,0.5395,0.5395,0.5395,0.5395,0.5395,0.5395,0.5395,0.5395,0.5541,0.5686,0.5686,0.5686,0.562,0.5445,0.5557,0.562,0.5428,0.5395,0.5395,0.5395,0.5395,0.5458,0.5653,0.5686,0.5752,0.5947,0.5967,0.6277,0.7107,0.7429,0.7325,0.6665,0.6621,0.6528,0.6319,0.63,0.63,0.63,0.63,0.63,0.63,0.63,0.6412,0.6644,0.7648,0.8122,0.8161,0.9164,1.004,1.0802,1.1031,1.1576,1.2305,1.2305,1.2305,1.2305,1.2305,1.2305,1.2305,1.2305,1.2305,1.2305,1.0609,1.0609,1.0609,1.0609,1.0609,1.0609,1.0609,1.0609,1.045,1.0025,0.9977,0.9652,0.878,0.8678,0.8334,0.7453,0.658,0.5881,0.5428,0.5831,0.5881,0.5428,0.5831,0.6075,0.6075,0.6531,0.6941,0.7323,0.6899,0.6461,0.6009,0.5591,0.564,0.6075,0.6075,0.6334,0.6761,0.6761,0.6761,0.6761,0.6761,0.6761,0.6761,0.6761,0.6482,0.6075,0.6075,0.5782,0.5395,0.5395,0.5395,0.5395,0.5395,0.5395,0.5395,0.5395,0.5395,0.5395,0.5395,0.5395,0.5395,0.5395,0.5395,0.5395,0.5395,0.5395,0.5395,0.5395,0.5395,0.5395,0.5395,0.5395,0.5395,0.5395,0.5395,0.5395,0.5395,0.5395,0.5395,0.5395,0.5395,0.5662,0.6321,0.6647,0.6676,0.6331,0.63,0.63,0.63,0.63,0.63,0.63,0.63,0.63,0.63,0.63,0.63,0.63,0.6834,0.708,0.7119,0.8122,0.8879,0.9418,1.0372,1.1106,1.162,1.2095,1.2305,1.2305,1.2305,1.2305,1.2305,1.2305,1.2305,1.2305,1.0609,1.0609,1.0609,1.0609,1.0609,1.0609,1.0609,1.0466,1.0174,0.9594,0.9268,0.8812,0.8075,0.7735,0.7263,0.6543,0.5815,0.5395,0.5395,0.5395,0.5395,0.5395,0.5395,0.5395,0.5395,0.5395,0.6112,0.7556,0.6838,0.6478,0.6461,0.5736,0.5395,0.5395,0.5395,0.5395,0.5395,0.5395,0.5395,0.5395,0.5395,0.5395,0.5395,0.5395,0.5395,0.5395,0.5395,0.5395,0.5395,0.5395,0.5395,0.5395,0.5395,0.5395,0.5395,0.5395,0.5395,0.5395,0.5395,0.5395,0.5395,0.5395,0.5395,0.5395,0.5395,0.5395,0.5395,0.5395,0.5395,0.5395,0.5395,0.5395,0.5395,0.5395,0.5395,0.5395,0.5395,0.5395,0.5395,0.5395,0.544,0.5549,0.5779,0.61,0.63,0.63,0.63,0.63,0.63,0.63,0.63,0.63,0.63,0.63,0.63,0.63,0.63,0.63,0.63,0.63,0.6338,0.7157,0.7629,0.7893,0.9564,1.0372,1.0602,1.1434,1.1885,1.2033,1.2033,1.215,1.2305,1.2305,1.2305,1.2305,1.0609,1.0609,1.0609,1.0609,1.0609,1.0609,1.0609,0.9967,0.9706,1.0333,0.9112,0.8124,0.801,0.6646,0.5706,0.5591,0.5475,0.5395,0.5395,0.5395,0.5395,0.5395,0.5395,0.5395,0.5395,0.5395,0.5508,0.5756,0.5637,0.5574,0.5574,0.5458,0.5395,0.5395,0.5395,0.5395,0.5395,0.5395,0.5395,0.5395,0.5395,0.5395,0.5395,0.5395,0.5395,0.5395,0.5395,0.5395,0.5395,0.5395,0.5395,0.5395,0.5395,0.5395,0.5395,0.5395,0.5395,0.5395,0.5395,0.5395,0.5395,0.5395,0.5395,0.5395,0.5395,0.5395,0.5395,0.5395,0.5395,0.5395,0.5395,0.5395,0.5395,0.5395,0.5395,0.5395,0.5395,0.5395,0.5395,0.5395,0.5603,0.5755,0.5796,0.61,0.63,0.63,0.63,0.63,0.63,0.63,0.63,0.63,0.63,0.63,0.63,0.63,0.63,0.63,0.63,0.63,0.63,0.6432,0.6984,0.7821,0.8084,0.8689,0.9523,0.9655,1.0214,1.0994,1.0994,1.1521,1.2305,1.2305,1.2305,1.2305,1.0609,1.0609,1.0609,1.0609,1.0609,1.0609,1.0609,1.0269,0.9999,0.9881,0.9198,0.8355,0.7388,0.6161,0.5395,0.5395,0.5395,0.5395,0.5395,0.5395,0.5395,0.5395,0.5395,0.5395,0.5395,0.5395,0.5395,0.5395,0.5395,0.5395,0.5395,0.5395,0.5395,0.5395,0.5395,0.5395,0.5395,0.5395,0.5395,0.5395,0.5395,0.5395,0.5395,0.5395,0.5395,0.5395,0.5395,0.5395,0.5395,0.5395,0.5395,0.5395,0.5395,0.5395,0.5395,0.5395,0.5395,0.5395,0.5395,0.5395,0.5395,0.5395,0.5395,0.5395,0.5395,0.5395,0.5395,0.5395,0.5395,0.5395,0.5395,0.5395,0.5395,0.5395,0.5395,0.5395,0.5395,0.5395,0.5426,0.5498,0.5674,0.5833,0.5903,0.6148,0.63,0.63,0.63,0.63,0.63,0.63,0.63,0.63,0.63,0.63,0.63,0.63,0.63,0.63,0.63,0.63,0.63,0.63,0.6548,0.6984,0.7557,0.8046,0.8504,0.9069,0.9556,0.997,0.997,1.0233,1.0763,1.1885,1.1941,1.1539]}]]